     2              OBSERVATION DATA    GPS                 RINEX VERSION / TYPE
teqc 2000Jul20 Karen Wendt 20030408 21:40:00UTC             PGM / RUN BY / DATE
                                                            COMMENT
L2: 1 -> 1; 150 -> 5; 250 -> 9                              COMMENT
L2: 1 -> 1; 150 -> 5; 250 -> 9                              COMMENT
L2: 1 -> 1; 150 -> 5; 250 -> 9                              COMMENT
L2: 1 -> 1; 150 -> 5; 250 -> 9                              COMMENT
L2: 1 -> 1; 150 -> 5; 250 -> 9                              COMMENT
L2: 1 -> 1; 150 -> 5; 250 -> 9                              COMMENT
L2: 1 -> 1; 150 -> 5; 250 -> 9                              COMMENT
L2: 1 -> 1; 150 -> 5; 250 -> 9                              COMMENT
L2: 1 -> 1; 150 -> 5; 250 -> 9                              COMMENT
L2: 1 -> 1; 150 -> 5; 250 -> 9                              COMMENT
L2: 1 -> 1; 150 -> 5; 250 -> 9                              COMMENT
L2: 1 -> 1; 150 -> 5; 250 -> 9                              COMMENT
L2: 1 -> 1; 150 -> 5; 250 -> 9                              COMMENT
L2: 1 -> 1; 150 -> 5; 250 -> 9                              COMMENT
Original Marker Name: pigg Pig_NCER                         COMMENT
Campaign Name: USGS 2003                                    COMMENT
4-Character Station Name: PIGG                              COMMENT
6-Character Antenna Code: DMRCHT                            COMMENT
Vertical Measurement Point: BCR                             COMMENT
Vertical Offset to Rinex Ref. Point: 0.0348                 COMMENT
Radial Measurement Point: ECF                               COMMENT
Radial Offset to Rinex Ref. Point: 0.1897                   COMMENT
Antenna Height from Field Measurement: 1.4990 m             COMMENT
Additional Antenna Identification Info.:                    COMMENT
Turborogue and Ashtech Choke Ring                           COMMENT
Original XYZ: -2619772.5856 -4455966.9449 3725433.7350      COMMENT
New XYZ position is based on association with SCEC monument COMMENT
E1F1N4L4+0011. Position of that monument is believed to be  COMMENT
valid to within 1 m horizontally; vertical accuracy         COMMENT
should be no worse than 3-times this value.                 COMMENT
                                                            COMMENT
Revised Rinex header created by UCSD GPS archive for        COMMENT
GSAC on 17-Jul-2003 (2003:198) 21:06:00 GMT                 COMMENT
For assistance contact dagnew@ucsd.edu                      COMMENT
or anderson@python.ucsd.edu                                 COMMENT
                                                            COMMENT
PIG                                                         MARKER NAME
CHS US GEOLOGICAL SURVEY                                    OBSERVER / AGENCY
ZE120023208 RECEIVER UNKNOWN ZC00                           REC # / TYPE / VERS
CR619992805 DORNE-MARGOL. TYPE T                            ANT # / TYPE
 -2619783.9635 -4455936.4371  3725421.3501                  APPROX POSITION XYZ
        1.4521        0.0000        0.0000                  ANTENNA: DELTA H/E/N
     1     1     0                                          WAVELENGTH FACT L1/2
     5    C1    L1    L2    P1    P2                        # / TYPES OF OBSERV
    30                                                      INTERVAL
  2003     4     2     0     0    0.000000                  TIME OF FIRST OBS
  2003     4     2    23    59   30.000000                  TIME OF LAST OBS
                                                            END OF HEADER
 03  4  2  0  0  0.0000000  0  8G14G31G 3G17G15G 9G23G18
  22539815.588   -15035274.55643 -11438580.22642  22539818.789    22539818.489
  24008894.576    -2074431.28543  -1601678.30042  24008897.509    24008898.276
  22082280.888   -12152145.88943  -9463069.78542  22082283.321    22082281.482
  21396029.786   -21976720.21543 -17085673.38442  21396031.134    21396029.559
  20253564.066   -23319079.62544 -18155946.21742  20253565.717    20253563.173
  24198444.680    -2832898.93243  -2196416.45142  24198448.046    24198450.876
  21208839.758   -21874344.15444 -16815183.52742  21208842.024    21208839.189
  20561376.907   -26901682.27844 -20948128.92242  20561379.092    20561375.061
 03  4  2  0  0 30.0000000  0  8G14G31G 3G17G15G 9G23G18
  22520613.824   -15136179.15243 -11517206.91542  22520617.037    22520616.842
  23992091.573    -2162731.60743  -1670483.55042  23992094.495    23992095.169
  22073028.272   -12200768.07343  -9500957.12542  22073030.774    22073029.077
  21404156.891   -21934011.45643 -17052393.84042  21404158.224    21404156.739
  20252050.121   -23327035.24644 -18162145.37442  20252051.772    20252049.232
  24187338.618    -2891261.31443  -2241893.36242  24187341.896    24187344.514
  21216528.116   -21833941.40244 -16783700.86142  21216530.373    21216527.654
  20566348.432   -26875556.54244 -20927771.19642  20566350.614    20566346.592
 03  4  2  0  1  0.0000000  0  8G14G31G 3G17G15G 9G23G18
  22501460.638   -15236828.19943 -11595634.47642  22501463.881    22501463.752
  23975349.104    -2250713.30643  -1739040.51642  23975351.914    23975352.699
  22063869.802   -12248896.20943  -9538459.50442  22063872.258    22063870.767
  21412339.626   -21891011.03443 -17018887.03642  21412340.887    21412339.441
  20250596.403   -23334674.74544 -18168098.21242  20250598.017    20250595.478
  24176292.963    -2949306.63243  -2287123.21342  24176296.287    24176298.546
  21224249.752   -21793364.35744 -16752082.37842  21224251.970    21224249.307
  20571372.462   -26849155.08544 -20907198.62142  20571374.624    20571370.594
 03  4  2  0  1 30.0000000  0  8G14G31G 3G17G15G 9G23G18
  22482359.711   -15337203.44543 -11673848.69542  22482362.925    22482362.674
  23958670.701    -2338358.12043  -1807334.99742  23958673.622    23958674.372
  22054808.481   -12296513.30143  -9575563.66442  22054810.945    22054809.587
  21420580.890   -21847703.22243 -16985140.71742  21420582.200    21420580.702
  20249205.966   -23341981.49044 -18173791.75442  20249207.589    20249205.059
  24165310.792    -3007016.21943  -2332091.46942  24165314.209    24165316.712
  21232007.162   -21752598.88943 -16720317.08542  21232009.362    21232006.819
  20576451.573   -26822463.74044 -20886400.15242  20576453.745    20576449.794
 03  4  2  0  2  0.0000000  0  8G14G31G 3G17G15G 9G23G18
  22463313.798   -15437289.00943 -11751837.19642  22463317.112    22463316.731
  23942059.407    -2425650.27343  -1875354.67342  23942062.249    23942063.284
  22045847.267   -12343604.31643  -9612257.90442  22045849.725    22045848.361
  21428883.218   -21804073.92143 -16951143.87342  21428884.542    21428883.164
  20247881.499   -23348941.31444 -18179214.96542  20247883.118    20247880.634
  24154395.838    -3064373.79743  -2376785.44442  24154399.159    24154401.827
  21239802.667   -21711633.12143 -16688395.70942  21239804.880    21239802.307
  20581588.201   -26795470.51544 -20865366.44742  20581590.349    20581586.468
 03  4  2  0  2 30.0000000  0  8G14G31G 3G17G15G 9G23G18
  22444317.665   -15537114.03943 -11829622.69842  22444320.969    22444320.331
  23925509.819    -2512618.82243  -1943122.18242  23925512.423    23925513.657
  22036980.631   -12390199.21743  -9648565.57642  22036983.013    22036981.566
  21437240.738   -21760154.73243 -16916921.14642  21437242.032    21437240.758
  20246617.205   -23355584.86244 -18184391.73042  20246618.811    20246616.368
  24143542.258    -3121408.07243  -2421227.44542  24143545.521    24143548.256
  21247629.976   -21670500.03043 -16656343.94642  21247632.154    21247629.576
  20586776.009   -26768208.28144 -20844123.13442  20586778.165    20586774.350
 03  4  2  0  3  0.0000000  0  8G14G31G 3G17G15G 9G23G18
  22425374.686   -15636660.07943 -11907190.81142  22425377.954    22425377.114
  23909025.002    -2599245.59143  -2010623.37042  23909027.567    23909028.980
  22028211.502   -12436280.67943  -9684473.14642  22028213.886    22028212.510
  21445656.749   -21715929.62243 -16882460.04942  21445657.996    21445656.505
  20245416.368   -23361895.36044 -18189308.97842  20245417.961    20245415.540
  24132753.820    -3178100.49243  -2465403.10442  24132757.028    24132759.884
  21255491.842   -21629185.44843 -16624150.76642  21255493.973    21255491.440
  20592017.785   -26740662.82244 -20822659.13242  20592019.929    20592016.061
 03  4  2  0  3 30.0000000  0  8G14G31G 3G17G15G 9G23G18
  22406478.322   -15735959.30043 -11984566.61942  22406481.672    22406480.879
  23892599.061    -2685562.91243  -2077883.45142  23892601.588    23892603.001
  22019533.597   -12481882.21243  -9720006.74342  22019536.002    22019534.745
  21454123.940   -21671433.45843 -16847787.72842  21454125.217    21454123.744
  20244272.420   -23367906.52544 -18193992.96942  20244273.998    20244271.629
  24122024.417    -3234482.91143  -2509337.19442  24122027.502    24122030.463
  21263381.389   -21587725.81444 -16591844.55642  21263383.501    21263380.891
  20597306.527   -26712870.42344 -20801002.70642  20597308.695    20597304.711
 03  4  2  0  4  0.0000000  0  8G14G31G 3G17G15G 9G23G18
  22387637.857   -15834965.89543 -12061714.41542  22387641.098    22387640.365
  23876241.269    -2771524.62243  -2144866.45242  23876243.648    23876244.696
  22010955.924   -12526958.82243  -9755131.33742  22010958.241    22010956.786
  21462651.431   -21626621.55543 -16812869.37842  21462652.626    21462651.168
  20243194.026   -23373573.72044 -18198408.94642  20243195.588    20243193.171
  24111362.801    -3290508.80243  -2552993.53842  24111365.883    24111369.015
  21271306.548   -21546079.05044 -16559392.52642  21271308.682    21271305.976
  20602650.268   -26684788.82944 -20779120.93442  20602652.474    20602648.365
 03  4  2  0  4 30.0000000  0  8G14G31G 3G17G15G 9G23G18
  22368853.163   -15933680.11643 -12138634.38642  22368856.250    22368855.452
  23859950.768    -2857131.27343  -2211572.77742  23859953.444    23859954.047
  22002477.803   -12571511.84543  -9789847.94742  22002480.130    22002478.496
  21471238.425   -21581497.04143 -16777707.43542  21471239.631    21471238.039
  20242180.593   -23378899.14044 -18202558.59542  20242182.175    20242179.793
  24100769.467    -3346178.20743  -2596372.05342  24100772.459    24100775.232
  21279266.512   -21504249.48944 -16526798.05542  21279268.662    21279265.872
  20608048.129   -26656422.39244 -20757017.20442  20608050.379    20608046.265
 03  4  2  0  5  0.0000000  0  8G14G31G 3G17G15G 9G23G18
  22350120.274   -16032121.15543 -12215341.50042  22350123.341    22350122.495
  23843724.059    -2942401.91143  -2278017.24242  23843726.824    23843727.398
  21994095.335   -12615561.50943  -9824172.29842  21994097.672    21994096.122
  21479880.796   -21536081.07443 -16742318.40142  21479882.047    21479880.324
  20241228.350   -23383903.29744 -18206457.91342  20241229.926    20241227.528
  24090240.224    -3401509.50043  -2639487.09142  24090243.252    24090245.591
  21287256.810   -21462260.13343 -16494079.07142  21287258.993    21287256.191
  20613495.943   -26627794.00344 -20734709.35742  20613498.149    20613494.085
 03  4  2  0  5 30.0000000  0  8G14G31G 3G17G15G 9G23G18
  22331440.140   -16130284.91843 -12291832.56142  22331443.084    22331442.312
  23827562.104    -3027332.65843  -2344196.89842  23827564.912    23827565.186
  21985809.152   -12659104.97143  -9858102.20642  21985811.523    21985810.076
  21488578.998   -21490371.85843 -16706700.86842  21488580.288    21488578.469
  20240337.624   -23388583.79944 -18210105.02942  20240339.210    20240336.791
  24079775.670    -3456498.47143  -2682335.42042  24079778.840    24079781.153
  21295277.433   -21420111.02743 -16461235.60542  21295279.650    21295276.863
  20618993.642   -26598903.58944 -20712197.33742  20618995.829    20618991.772
 03  4  2  0  6  0.0000000  0  8G14G31G 3G17G15G 9G23G18
  22312811.316   -16228179.79643 -12368114.10342  22312814.173    22312813.372
  23811463.433    -3111931.95243  -2410118.30942  23811466.182    23811465.931
  21977617.561   -12702151.68643  -9891645.03942  21977619.920    21977618.562
  21497331.076   -21444379.84043 -16670862.95342  21497332.361    21497330.607
  20239506.683   -23392950.49344 -18213507.62842  20239508.258    20239505.725
  24069375.208    -3511153.23843  -2724923.32242  24069378.498    24069380.330
  21303326.176   -21377814.56843 -16428277.32142  21303328.354    21303325.609
  20624538.707   -26569763.49944 -20689490.76642  20624540.943    20624536.975
 03  4  2  0  6 30.0000000  0  8G14G31G 3G17G15G 9G23G18
  22294242.299   -16325760.74343 -12444151.01542  22294245.165    22294244.182
  23795436.397    -3196154.78943  -2475746.38642  23795439.190    23795438.704
  21969529.032   -12744657.70943  -9924766.57042  21969531.383    21969529.854
  21506144.726   -21398062.80343 -16634771.75142  21506146.042    21506144.490
  20238743.747   -23396959.73944 -18216631.69042  20238745.314    20238742.725
  24059047.132    -3565428.59143  -2767215.58542  24059050.256    24059051.808
  21311410.773   -21335329.71843 -16395172.24242  21311412.942    21311410.217
  20630139.255   -26540332.70244 -20666557.67442  20630141.459    20630137.468
 03  4  2  0  7  0.0000000  0  8G14G31G 3G17G15G 9G23G18
  22275729.912   -16423043.39543 -12519955.49742  22275732.919    22275731.694
  23779477.809    -3280016.74043  -2541093.22642  23779480.629    23779480.236
  21961540.143   -12786639.71943  -9957479.77742  21961542.484    21961540.800
  21515017.093   -21351438.38543 -16598441.06042  21515018.381    21515016.711
  20238045.535   -23400628.62744 -18219490.53942  20238047.099    20238044.490
  24048788.195    -3619339.54043  -2809223.89142  24048791.313    24048792.799
  21319527.493   -21292675.98643 -16361935.56842  21319529.660    21319526.920
  20635791.366   -26510630.76344 -20643413.29642  20635793.555    20635789.561
 03  4  2  0  7 30.0000000  0  8G14G31G 3G17G15G 9G23G18
  22257270.106   -16520049.19243 -12595544.25242  22257273.240    22257271.887
  23763583.784    -3363539.43543  -2606175.71442  23763586.449    23763586.471
  21953646.515   -12828120.40343  -9989802.33742  21953648.871    21953647.221
  21523943.512   -21304529.72343 -16561888.87742  21523944.820    21523943.090
  20237407.740   -23403980.27744 -18222102.19542  20237409.298    20237406.627
  24038594.551    -3672907.13743  -2850964.66842  24038597.773    24038599.058
  21327671.542   -21249878.84443 -16328587.14042  21327673.705    21327670.948
  20641490.210   -26480682.93544 -20620077.32342  20641492.382    20641488.466
 03  4  2  0  8  0.0000000  0  8G14G31G 3G17G15G 9G23G18
  22238867.958   -16616752.85143 -12670897.56442  22238871.037    22238869.590
  23747759.077    -3446697.53543  -2670974.08942  23747761.658    23747762.002
  21945853.036   -12869075.36743 -10021715.24242  21945855.328    21945853.786
  21532928.225   -21257314.27343 -16525097.63642  21532929.562    21532928.020
  20236834.835   -23406990.87144 -18224448.08842  20236836.409    20236833.682
  24028470.587    -3726105.69643  -2892417.91542  24028473.872    24028475.520
  21335847.024   -21206916.65543 -16295110.10642  21335849.175    21335846.414
  20647240.017   -26450467.64244 -20596532.92742  20647242.130    20647238.178
 03  4  2  0  8 30.0000000  0  8G14G31G 3G17G15G 9G23G18
  22220526.836   -16713135.05143 -12746000.39242  22220530.027    22220528.466
  23732007.562    -3529471.72443  -2735473.29742  23732009.998    23732010.677
  21938163.002   -12909486.80343 -10053204.61742  21938165.327    21938163.747
  21541974.751   -21209774.79143 -16488053.90742  21541976.056    21541974.584
  20236330.301   -23409642.35744 -18226514.16442  20236331.872    20236329.070
  24018421.079    -3778915.49743  -2933568.21442  24018424.284    24018425.872
  21344056.712   -21163774.06443 -16261492.50142  21344058.888    21344056.183
  20653043.636   -26419969.63544 -20572768.23542  20653045.737    20653041.681
 03  4  2  0  9  0.0000000  0  8G14G31G 3G17G15G 9G23G18
  22202240.591   -16809228.72743 -12820878.40842  22202243.805    22202242.214
  23716322.855    -3611895.04343  -2799699.14842  23716325.253    23716325.845
  21930569.852   -12949388.71643 -10084296.96442  21930572.183    21930570.578
  21551076.210   -21161946.43343 -16450785.07942  21551077.549    21551076.043
  20235887.405   -23411969.43944 -18228327.44542  20235889.008    20235886.235
  24008439.232    -3831369.47943  -2974441.24742  24008442.593    24008444.037
  21352293.710   -21120487.88643 -16227763.00742  21352295.878    21352293.284
  20658894.071   -26389225.65744 -20548811.88142  20658896.198    20658892.017
 03  4  2  0  9 30.0000000  0  8G14G31G 3G17G15G 9G23G18
  22184016.172   -16904997.93443 -12895503.57942  22184019.282    22184017.701
  23700711.487    -3693931.44943  -2863623.47442  23700713.932    23700714.725
  21923080.328   -12988746.15843 -10114965.05842  21923082.652    21923080.937
  21560239.074   -21113795.36643 -16413264.78242  21560240.433    21560238.982
  20235512.971   -23413937.41844 -18229860.91642  20235514.587    20235511.728
  23998532.309    -3883430.92743  -3015008.42042  23998535.513    23998536.880
  21360564.259   -21077026.11244 -16193896.68242  21360566.386    21360563.779
  20664797.351   -26358203.37444 -20524638.67442  20664799.545    20664795.318
 03  4  2  0 10  0.0000000  0  8G14G31G 3G17G15G 9G23G18
  22165848.231   -17000470.27543 -12969897.43442  22165851.365    22165849.693
  23685168.636    -3775608.79643  -2927268.02442  23685171.130    23685172.129
  21915688.870   -13027588.25343 -10145231.58542  21915691.226    21915689.435
  21569457.682   -21065351.60943 -16375516.41342  21569459.014    21569457.606
  20235201.163   -23415575.83644 -18231137.58042  20235202.810    20235199.982
  23988694.743    -3935127.16343  -3055291.05042  23988697.709    23988699.351
  21368862.175   -21033420.35143 -16159918.15742  21368864.334    21368861.685
  20670747.669   -26326934.35544 -20500273.20242  20670749.856    20670745.665
 03  4  2  0 10 30.0000000  0  8G14G31G 3G17G15G 9G23G18
  22147740.637   -17095625.73943 -13044044.37642  22147743.725    22147742.062
  23669698.095    -3856907.01243  -2990617.12942  23669700.533    23669701.536
  21908399.084   -13065895.88743 -10175081.64142  21908401.478    21908399.698
  21578735.437   -21016596.82943 -16337525.70242  21578736.785    21578735.429
  20234955.645   -23416866.10544 -18232142.96842  20234957.305    20234954.464
  23978930.303    -3986437.83443  -3095273.23742  23978933.430    23978935.239
  21377190.592   -20989654.35843 -16125814.79142  21377192.758    21377190.106
  20676747.985   -26295402.51144 -20475702.92442  20676750.162    20676745.990
 03  4  2  0 11  0.0000000  0  8G14G31G 3G17G15G 9G23G18
  22129690.144   -17190480.41743 -13117956.95342  22129693.208    22129691.761
  23654296.657    -3937841.99743  -3053683.19142  23654299.182    23654299.898
  21901207.739   -13103686.37443 -10204528.72442  21901210.068    21901208.422
  21588068.811   -20967549.34943 -16299306.89842  21588070.153    21588068.742
  20234773.036   -23417825.45344 -18232890.49142  20234774.673    20234771.885
  23969236.202    -4037378.78243  -3134967.25242  23969239.489    23969241.237
  21385545.699   -20945748.00543 -16091602.05542  21385547.851    21385545.150
  20682794.582   -26263627.45144 -20450943.12442  20682796.754    20682792.603
 03  4  2  0 11 30.0000000  0  8G14G31G 3G17G15G 9G23G18
  22111701.488   -17285010.81843 -13191616.85742  22111704.495    22111703.156
  23638968.865    -4018390.67143  -3116448.25742  23638971.401    23638971.527
  21894118.892   -13140937.66143 -10233555.65342  21894121.158    21894119.672
  21597461.880   -20918189.03743 -16260844.35042  21597463.183    21597461.682
  20234657.583   -23418432.16044 -18233363.23142  20234659.176    20234656.491
  23959617.199    -4087926.37043  -3174354.78842  23959620.357    23959621.780
  21393931.184   -20901681.85843 -16057264.79942  21393933.321    21393930.628
  20688891.035   -26231589.96044 -20425978.84442  20688893.225    20688889.118
 03  4  2  0 12  0.0000000  0  8G14G31G 3G17G15G 9G23G18
  22093777.571   -17379202.34743 -13265012.68542  22093780.457    22093778.955
  23623717.124    -4098538.28343  -3178900.78642  23623719.649    23623719.464
  21887135.402   -13177636.24643 -10262151.91742  21887137.605    21887136.020
  21606916.932   -20868502.51843 -16222127.60942  21606918.231    21606916.723
  20234611.745   -23418672.89644 -18233550.80542  20234613.333    20234610.670
  23950075.905    -4138065.45343  -3213424.04642  23950079.150    23950080.432
  21402349.170   -20857445.00443 -16022794.52442  21402351.262    21402348.567
  20695039.608   -26199279.02844 -20400801.49742  20695041.761    20695037.688
 03  4  2  0 12 30.0000000  0  8G14G31G 3G17G15G 9G23G18
  22075918.502   -17473051.25143 -13338141.55142  22075921.506    22075919.906
  23608542.447    -4178281.23943  -3241038.01542  23608545.008    23608544.561
  21880257.623   -13213779.77243 -10290315.67842  21880259.881    21880258.142
  21616434.293   -20818488.15443 -16183155.40542  21616435.588    21616434.272
  20234635.929   -23418545.58344 -18233451.59142  20234637.488    20234634.867
  23940613.206    -4187792.19343  -3252171.97742  23940616.522    23940617.689
  21410799.628   -20813037.38943 -15988191.19142  21410801.717    21410799.051
  20701240.192   -26166694.70744 -20375411.11642  20701242.352    20701238.252
 03  4  2  0 13  0.0000000  0  8G14G31G 3G17G15G 9G23G18
  22058119.453   -17566584.46543 -13411024.43642  22058122.478    22058121.012
  23593439.621    -4257646.33043  -3302880.80742  23593442.093    23593441.822
  21873480.064   -13249396.61043 -10318069.02742  21873482.351    21873480.503
  21626008.560   -20768175.32843 -16143950.62542  21626009.889    21626008.692
  20234724.740   -23418078.66544 -18233087.75542  20234726.289    20234723.673
  23931223.929    -4237132.88443  -3290619.13042  23931227.127    23931228.308
  21419276.813   -20768489.58343 -15953478.61842  21419278.915    21419276.228
  20707486.923   -26133867.73544 -20349831.65942  20707489.086    20707484.990
 03  4  2  0 13 30.0000000  0  8G14G31G 3G17G15G 9G23G18
  22040378.970   -17659811.27643 -13483668.55142  22040381.821    22040380.430
  23578407.147    -4336642.88443  -3364436.43342  23578409.580    23578409.351
  21866800.582   -13284497.00043 -10345419.93242  21866802.901    21866801.175
  21635637.303   -20717576.05943 -16104522.65542  21635638.686    21635637.458
  20234876.214   -23417282.76444 -18232467.56542  20234877.729    20234875.122
  23921906.771    -4286096.28343  -3328772.29542  23921909.883    23921910.761
  21427778.193   -20723814.70743 -15918667.03342  21427780.316    21427777.626
  20713777.428   -26100811.12544 -20324073.26942  20713779.589    20713775.441
 03  4  2  0 14  0.0000000  0  8G14G31G 3G17G15G 9G23G18
  22022693.129   -17752749.73143 -13556087.99042  22022696.092    22022694.681
  23563441.322    -4415288.97143  -3425718.97642  23563443.817    23563443.555
  21860215.715   -13319100.12743 -10372383.37242  21860218.008    21860216.400
  21645316.792   -20666709.83643 -16064886.66342  21645318.162    21645316.945
  20235086.531   -23416177.35644 -18231606.20142  20235088.054    20235085.461
  23912657.538    -4334700.41743  -3366645.47942  23912660.944    23912661.775
  21436299.623   -20679034.66643 -15883773.49442  21436301.755    21436298.990
  20720107.471   -26067546.56444 -20298152.83442  20720109.640    20720105.516
 03  4  2  0 14 30.0000000  0  8G14G31G 3G17G15G 9G23G18
  22005070.493   -17845356.81843 -13628249.19842  22005073.420    22005071.960
  23548550.175    -4493541.76943  -3486695.03942  23548552.764    23548552.483
  21853733.388   -13353164.37443 -10398926.89142  21853735.593    21853734.153
  21655054.811   -20615536.13743 -16025011.08142  21655056.139    21655054.889
  20235363.705   -23414720.88744 -18230471.28142  20235365.244    20235362.549
  23903484.960    -4382901.91943  -3404205.03842  23903488.368    23903489.282
  21444848.430   -20634110.29543 -15848767.48942  21444850.588    21444847.798
  20726484.557   -26034034.88444 -20272039.83342  20726486.727    20726482.537
 03  4  2  0 15  0.0000000  0  8G14G31G 3G17G15G 9G23G18
  21987516.745   -17937602.02243 -13700128.43142  21987519.631    21987518.081
  23533739.302    -4571370.80643  -3547340.89842  23533742.049    23533741.995
  21847359.300   -13386660.68843 -10425027.86442  21847361.489    21847359.967
  21664856.647   -20564027.13843 -15984874.23042  21664857.967    21664856.707
  20235713.203   -23412884.26644 -18229040.12742  20235714.756    20235712.009
  23894394.945    -4430670.30743  -3441427.02942  23894398.239    23894399.083
  21453429.764   -20589014.80043 -15813628.14642  21453431.917    21453429.249
  20732913.650   -26000249.48944 -20245713.54242  20732915.843    20732911.703
 03  4  2  0 15 30.0000000  0  8G14G31G 3G17G15G 9G23G18
  21970024.841   -18029522.15843 -13771754.36542  21970027.780    21970026.101
  23519002.563    -4648812.70743  -3607685.08142  23519005.175    23519005.323
  21841086.040   -13419627.22643 -10450716.03742  21841088.251    21841086.456
  21674715.065   -20512221.20443 -15944506.01642  21674716.406    21674715.061
  20236127.673   -23410705.87144 -18227342.65742  20236129.260    20236126.482
  23885380.539    -4478041.76743  -3478339.66342  23885383.693    23885384.421
  21462035.948   -20543788.57643 -15778386.92742  21462038.061    21462035.551
  20739387.304   -25966230.48344 -20219205.20942  20739389.462    20739385.298
 03  4  2  0 16  0.0000000  0  8G14G31G 3G17G15G 9G23G18
  21952599.557   -18121092.47843 -13843107.71342  21952602.526    21952600.761
  23504344.243    -4725842.92143  -3667708.48442  23504346.898    23504347.038
  21834917.882   -13452040.62643 -10475973.17442  21834920.135    21834918.248
  21684634.343   -20460095.71743 -15903888.77242  21684635.675    21684634.249
  20236611.610   -23408162.45944 -18225360.76242  20236613.171    20236610.434
  23876446.202    -4524991.20843  -3514923.46842  23876449.534    23876450.058
  21470671.032   -20498410.60943 -15743027.46942  21470673.104    21470670.701
  20745909.308   -25931957.20344 -20192498.74342  20745911.484    20745907.364
 03  4  2  0 16 30.0000000  0  8G14G31G 3G17G15G 9G23G18
  21935236.585   -18212334.44943 -13914205.21842  21935239.600    21935237.960
  23489760.175    -4802483.00343  -3727427.87942  23489762.791    23489762.755
  21828850.723   -13483923.70043 -10500817.07242  21828853.002    21828851.047
  21694609.547   -20407675.05443 -15863041.50542  21694610.966    21694609.688
  20237160.771   -23405276.81944 -18223112.19342  20237162.327    20237159.545
  23867587.860    -4571539.83143  -3551194.97742  23867591.242    23867591.919
  21479330.242   -20452906.20643 -15707569.49242  21479332.299    21479329.902
  20752474.893   -25897454.86044 -20165613.79342  20752477.084    20752472.922
 03  4  2  0 17  0.0000000  0  7G14G31G 3G15G 9G23G18
  21917944.200   -18303205.33543 -13985013.56042  21917947.235    21917945.675
  23475258.332    -4878689.95143  -3786809.80342  23475261.035    23475260.727
  21822892.393   -13515234.89143 -10525215.35742  21822894.708    21822892.636
  20237782.901   -23402007.37344 -18220564.54742  20237784.460    20237781.723
  23858814.409    -4617644.57543  -3587120.63542  23858817.516    23858818.193
  21488021.081   -20407235.98343 -15671982.30542  21488023.142    21488020.646
  20759091.586   -25862683.89544 -20138519.52742  20759093.783    20759089.644
 03  4  2  0 17 30.0000000  0  8G14G31G 3G17G15G 9G23G18
  21900716.337   -18393737.79443 -14055558.19242  21900719.338    21900717.695
  23460832.509    -4954496.76343  -3845879.90842  23460835.193    23460834.877
  21817036.320   -13546008.46143 -10549194.71842  21817038.598    21817036.574
  21714747.516     -585205.00153   -464849.26752  21714747.864    21714746.265
  20238471.526   -23398388.89544 -18217744.93642  20238473.097    20238470.292
  23850119.135    -4663337.96843  -3622725.74942  23850122.185    23850122.941
  21496736.418   -20361436.40843 -15636294.31342  21496738.543    21496736.041
  20765752.308   -25827681.21744 -20111244.70642  20765754.516    20765750.393
 03  4  2  0 18  0.0000000  0  8G14G31G 3G17G15G 9G23G18
  21883552.040   -18483936.21243 -14125842.55142  21883555.035    21883553.377
  23446482.111    -5029907.69943  -3904641.55742  23446484.597    23446484.421
  21811281.339   -13576250.01043 -10572759.51542  21811283.648    21811281.814
  21724899.399     -531852.32843   -423275.80842  21724900.459    21724898.404
  20239225.468   -23394426.94344 -18214657.68642  20239227.046    20239224.143
  23841501.459    -4708623.83843  -3658013.32342  23841504.433    23841505.250
  21505474.974   -20315515.19243 -15600511.53742  21505477.052    21505474.600
  20772455.730   -25792454.47244 -20083795.27942  20772457.926    20772453.739
 03  4  2  0 18 30.0000000  0  8G14G31G 3G17G15G 9G23G18
  21866456.905   -18573771.85343 -14195844.22242  21866459.869    21866458.172
  23432212.381    -5104894.17343  -3963072.43042  23432214.835    23432214.828
  21805632.977   -13605932.35543 -10595888.57942  21805635.292    21805633.431
  21735112.902     -478178.73643   -381452.25042  21735114.075    21735112.152
  20240049.968   -23390094.17844 -18211281.47742  20240051.568    20240048.650
  23832966.699    -4753473.49543  -3692960.96542  23832969.722    23832970.331
  21514241.372   -20269447.48643 -15564614.61142  21514243.483    21514240.958
  20779206.433   -25756978.98444 -20056152.02142  20779208.628    20779204.441
 03  4  2  0 19  0.0000000  0  8G14G31G 3G17G15G 9G23G18
  21849430.569   -18663245.25943 -14265563.62342  21849433.562    21849431.728
  23418023.696    -5179456.87043  -4021173.11142  23418026.048    23418025.998
  21800090.625   -13635057.54843 -10618583.49742  21800092.955    21800091.057
  21745386.961     -424186.65043   -339380.51342  21745388.202    21745386.582
  20240944.608   -23385392.58144 -18207617.88042  20240946.229    20240943.335
  23824515.184    -4797887.38743  -3727569.03942  23824518.092    23824518.381
  21523034.875   -20223237.57243 -15528606.88342  21523036.963    21523034.461
  20786003.775   -25721258.61144 -20028317.94342  20786005.967    20786001.776
 03  4  2  0 19 30.0000000  0  8G14G31G 3G17G15G 9G23G18
  21832468.085   -18752382.28443 -14335020.92142  21832471.146    21832469.164
  23403910.542    -5253621.43343  -4078963.54842  23403912.961    23403912.914
  21794649.169   -13663652.83243 -10640865.49842  21794651.470    21794649.527
  21755716.698     -369903.99143   -297082.37642  21755717.951    21755716.206
  20241904.303   -23380349.28544 -18203688.02042  20241905.933    20241903.105
  23816141.322    -4841890.65743  -3761857.15942  23816144.354    23816144.822
  21531849.733   -20176914.75843 -15492511.18242  21531851.837    21531849.340
  20792842.194   -25685323.04244 -20000316.17842  20792844.382    20792840.120
 03  4  2  0 20  0.0000000  0  8G14G31G 3G17G15G 9G23G18
  21815575.791   -18841152.44443 -14404192.34042  21815578.721    21815576.586
  23389879.006    -5327357.44943  -4136420.05142  23389881.447    23389881.360
  21789314.019   -13691689.05043 -10662711.85342  21789316.324    21789314.388
  21766106.810     -315302.43543   -254535.73642  21766108.161    21766106.471
  20242934.560   -23374935.11244 -18199469.15942  20242936.149    20242933.374
  23807851.555    -4885452.55843  -3795801.36742  23807854.553    23807855.143
  21540691.234   -20130451.94743 -15456306.38242  21540693.337    21540690.854
  20799726.575   -25649145.11744 -19972125.58042  20799728.784    20799724.541
 03  4  2  0 20 30.0000000  0  8G14G31G 3G17G15G 9G23G18
  21798749.432   -18929575.14743 -14473093.02042  21798752.367    21798750.251
  23375925.223    -5400684.47743  -4193557.86842  23375927.768    23375927.647
  21784081.336   -13719187.16943 -10684138.92842  21784083.650    21784081.585
  21776553.654     -260404.23643   -211757.94742  21776554.929    21776553.368
  20244031.417   -23369171.16944 -18194977.75542  20244032.960    20244030.155
  23799642.403    -4928592.56543  -3829416.80942  23799645.418    23799645.698
  21549555.059   -20083872.20143 -15420010.48242  21549557.128    21549554.642
  20806652.656   -25612748.23444 -19943764.36242  20806654.839    20806650.592
 03  4  2  0 21  0.0000000  0  8G14G31G 3G17G15G 9G23G18
  21781993.519   -19017627.59043 -14541705.18542  21781996.477    21781994.320
  23362053.815    -5473579.53843  -4250359.12042  23362056.474    23362055.953
  21778955.060   -13746125.57743 -10705129.86242  21778957.370    21778955.271
  21787060.822     -205188.32543   -168732.58542  21787062.165    21787060.608
  20245198.907   -23363035.91244 -18190197.02342  20245200.439    20245197.612
  23791517.510    -4971287.64943  -3862685.56142  23791520.645    23791521.054
  21558444.850   -20037156.08743 -15383608.31842  21558446.931    21558444.404
  20813624.115   -25576112.90644 -19915217.34342  20813626.313    20813621.966
 03  4  2  0 21 30.0000000  0  8G14G31G 3G17G15G 9G23G18
  21765306.300   -19105319.33243 -14610036.27842  21765309.246    21765306.974
  23348262.546    -5546052.53143  -4306831.46142  23348265.271    23348264.675
  21773933.097   -13772515.72743 -10725693.57142  21773935.376    21773933.366
  21797626.102     -149666.75743   -125469.05842  21797627.388    21797625.925
  20246434.947   -23356540.35844 -18185135.53942  20246436.487    20246433.595
  23783475.670    -5013546.99343  -3895614.81842  23783478.810    23783479.245
  21567358.036   -19990317.03243 -15347110.35042  21567360.087    21567357.546
  20820638.473   -25539252.31744 -19886494.80242  20820640.694    20820636.279
 03  4  2  0 22  0.0000000  0  8G14G31G 3G17G15G 9G23G18
  21748689.456   -19192640.59443 -14678078.68842  21748692.467    21748690.136
  23334553.442    -5618093.57443  -4362967.23042  23334556.090    23334555.720
  21769017.178   -13798349.15843 -10745823.48342  21769019.467    21769017.443
  21808251.155      -93831.89343    -81961.40242  21808252.400    21808251.104
  20247741.122   -23349676.10844 -18179786.75642  20247742.673    20247739.812
  23775518.994    -5055360.59943  -3928196.65742  23775522.125    23775521.952
  21576295.852   -19943348.71943 -15310511.67542  21576297.898    21576295.338
  20827696.837   -25502160.23744 -19857591.88542  20827699.099    20827694.651
 03  4  2  0 22 30.0000000  0  8G14G31G 3G17G15G 9G23G18
  21732145.552   -19279579.30843 -14745823.00142  21732148.467    21732146.081
  23320928.848    -5689690.65243  -4418757.05142  23320931.450    23320931.123
  21764209.128   -13823615.04643 -10765511.15642  21764211.461    21764209.442
  21818937.823      -37673.56343    -38201.68542  21818939.135    21818937.823
  20249119.614   -23342432.62944 -18174142.47642  20249121.137    20249118.195
  23767649.197    -5096716.31343  -3960421.72442  23767652.407    23767652.148
  21585259.809   -19896242.69643 -15273805.68742  21585261.896    21585259.300
  20834800.899   -25464828.17344 -19828501.96742  20834803.160    20834798.750
 03  4  2  0 23  0.0000000  0  8G14G31G 3G17G15G 9G23G18
  21715670.617   -19366154.66743 -14813284.18442  21715673.616    21715671.241
  23307385.014    -5760863.05443  -4474215.95742  23307387.586    23307387.292
  21759505.287   -13848334.14943 -10784772.76742  21759507.566    21759505.459
  21829681.778       18786.71643      5793.30442  21829683.092    21829681.723
  20250566.184   -23334830.54344 -18168218.75742  20250567.789    20250564.814
  23759862.885    -5137632.74043  -3992304.49242  23759866.120    23759865.887
  21594245.678   -19849021.41943 -15237009.90042  21594247.770    21594245.217
  20841946.317   -25427279.04944 -19799242.90842  20841948.529    20841944.159
 03  4  2  0 23 30.0000000  0  8G14G31G 3G17G15G 9G23G18
  21699265.765   -19452361.94343 -14880458.55542  21699268.724    21699266.502
  23293923.061    -5831605.91443  -4529340.17642  23293925.611    23293925.315
  21754906.051   -13872503.36843 -10803605.89242  21754908.343    21754906.222
  21840483.771       75551.34243     50025.44042  21840485.027    21840483.621
  20252081.733   -23326866.15744 -18162012.73142  20252083.349    20252080.405
  23752161.045    -5178105.03943  -4023841.20742  23752164.346    23752164.115
  21603253.819   -19801683.51043 -15200123.21942  21603255.901    21603253.354
  20849133.276   -25389511.51044 -19769813.66542  20849135.506    20849131.169
 03  4  2  0 24  0.0000000  0  8G14G31G 3G17G15G 9G23G18
  21682932.737   -19538192.04543 -14947339.02642  21682935.630    21682933.473
  23280544.498    -5901910.22843  -4584122.65742  23280547.095    23280546.859
  21750412.869   -13896114.98043 -10822004.52742  21750415.226    21750413.078
  21851344.972      132627.19443     94500.10142  21851346.204    21851344.892
  20253667.747   -23318531.71844 -18155518.35642  20253669.360    20253666.354
  23744545.433    -5218123.80943  -4055024.54642  23744548.664    23744548.569
  21612285.326   -19754223.14643 -15163141.13042  21612287.394    21612284.817
  20856362.793   -25351519.77544 -19740209.71842  20856365.058    20856360.775
 03  4  2  0 24 30.0000000  0  8G14G31G 3G17G15G 9G23G18
  21666673.533   -19623634.45443 -15013917.39442  21666676.390    21666674.191
  23267251.359    -5971765.46443  -4638555.22142  23267253.876    23267253.844
  21746027.478   -13919159.98543 -10839961.64542  21746029.868    21746027.778
  21862267.141      190023.14343    139224.19142  21862268.362    21862267.151
  20255325.825   -23309818.05944 -18148728.48242  20255327.445    20255324.531
  23737018.430    -5257678.50643  -4085846.25642  23737021.483    23737021.361
  21621341.428   -19706633.16143 -15126058.03942  21621343.553    21621340.894
  20863636.422   -25313296.68244 -19710425.50042  20863638.678    20863634.409
 03  4  2  0 25  0.0000000  0  8G14G31G 3G17G15G 9G23G18
  21650482.723   -19708717.04543 -15080215.38242  21650485.579    21650483.380
  23254038.476    -6041199.85243  -4692659.85242  23254040.935    23254040.861
  21741744.253   -13941668.19943 -10857500.48642  21741746.574    21741744.541
  21873244.227      247708.40043    184173.70642  21873245.477    21873244.295
  20257050.516   -23300754.85144 -18141666.23542  20257052.117    20257049.187
  23729574.304    -5296797.14743  -4116328.16742  23729577.375    23729577.192
  21630416.095   -19658945.19343 -15088898.59142  21630418.226    21630415.681
  20870948.065   -25274873.94644 -19680485.71342  20870950.320    20870946.007
 03  4  2  0 25 30.0000000  0  8G14G31G 3G17G15G 9G23G18
  21634365.785   -19793411.54443 -15146210.96442  21634368.639    21634366.405
  23240911.177    -6110184.66043  -4746414.17042  23240913.635    23240913.369
  21737568.389   -13963612.48543 -10874599.91742  21737570.665    21737568.637
  21884281.476      305709.56143    229369.39242  21884282.738    21884281.360
  20258846.836   -23291314.88244 -18134310.39942  20258848.428    20258845.556
  23722218.370    -5335450.61143  -4146447.62642  23722221.554    23722221.221
  21639514.262   -19611134.14543 -15051643.23042  21639516.344    21639513.825
  20878302.442   -25236226.49744 -19650370.81842  20878304.678    20878300.368
 03  4  2  0 26  0.0000000  0  8G14G31G 3G17G15G 9G23G18
  21618324.071   -19877711.55943 -15211899.15242  21618326.850    21618324.443
  23227870.448    -6178713.64743  -4799813.27842  23227872.964    23227872.470
  21733500.692   -13984987.96043 -10891256.09142  21733502.901    21733501.074
  21895379.691      364031.12043    274814.71742  21895380.940    21895379.571
  20260715.881   -23281493.27544 -18126657.19542  20260717.437    20260714.519
  23714952.753    -5373632.56443  -4176199.71642  23714955.716    23714955.281
  21648636.357   -19563196.92443 -15014289.56142  21648638.454    21648635.975
  20885700.136   -25197351.19944 -19620078.39042  20885702.342    20885698.092
 03  4  2  0 26 30.0000000  0  8G14G31G 3G17G15G 9G23G18
  21602355.861   -19961624.29143 -15277285.56642  21602358.750    21602356.199
  23214914.990    -6246794.47543  -4852863.19842  23214917.510    23214916.680
  21729539.522   -14005804.15943 -10907476.48742  21729541.711    21729539.887
  21906536.976      422663.44543    320502.20842  21906538.250    21906537.026
  20262655.799   -23271298.59244 -18118713.27242  20262657.362    20262654.468
  23707775.320    -5411350.31643  -4205590.06742  23707778.361    23707777.840
  21657780.519   -19515144.28143 -14976845.94442  21657782.595    21657780.044
  20893139.103   -25158259.05544 -19589616.98242  20893141.303    20893137.131
 03  4  2  0 27  0.0000000  0  8G14G31G 3G17G15G 9G23G18
  21586465.965   -20045125.13643 -15342351.03942  21586468.917    21586466.397
  23202049.392    -6314402.11943  -4905544.39642  23202051.949    23202051.144
  21725689.276   -14026037.47543 -10923242.70542  21725691.453    21725689.446
  21917757.825      481628.96243    366449.33642  21917759.036    21917757.780
  20264671.204   -23260707.35944 -18110460.35442  20264672.751    20264669.894
  23700690.755    -5448578.61343  -4234599.05642  23700693.705    23700693.457
  21666950.721   -19466954.65643 -14939295.60142  21666952.766    21666950.233
  20900623.367   -25118928.71744 -19558969.96742  20900625.539    20900621.460
 03  4  2  0 27 30.0000000  0  8G14G31G 3G17G15G 9G23G18
  21570651.149   -20128232.01443 -15407109.52642  21570654.058    21570651.556
  23189270.657    -6381554.66643  -4957870.96942  23189273.151    23189272.477
  21721946.113   -14045707.62243 -10938570.07242  21721948.301    21721946.243
  21929038.191      540907.44643    412640.32042  21929039.431    21929038.070
  20266758.443   -23249739.03844 -18101913.60142  20266759.985    20266756.996
  23693696.320    -5485335.27243  -4263240.46642  23693699.237    23693698.721
  21676142.929   -19418649.39443 -14901655.14342  21676144.977    21676142.387
  20908148.950   -25079381.61644 -19528154.04342  20908151.122    20908146.964
 03  4  2  0 28  0.0000000  0  8G14G31G 3G17G15G 9G23G18
  21554907.683   -20210964.69643 -15471576.42742  21554910.534    21554907.942
  23176574.821    -6448272.02343  -5009858.44042  23176577.334    23176576.605
  21718306.136   -14064835.84743 -10953475.16042  21718308.312    21718306.326
  21940373.812      600476.63343    459057.83842  21940375.089    21940373.757
  20268913.326   -23238414.81844 -18093089.52442  20268914.887    20268911.913
  23686787.730    -5521640.01243  -4291529.77642  23686790.667    23686790.070
  21685352.766   -19370251.54743 -14863942.53342  21685354.818    21685352.120
  20915711.441   -25039640.65744 -19497187.06142  20915713.651    20915709.369
 03  4  2  0 28 30.0000000  0  8G14G31G 3G17G15G 9G23G18
  21539242.041   -20293287.34843 -15535723.83642  21539244.961    21539242.330
  23163968.585    -6514518.51143  -5061479.01242  23163971.075    23163970.242
  21714775.769   -14083387.90943 -10967931.28842  21714777.999    21714776.082
  21951771.207      660370.47543    505728.33242  21951772.510    21951771.269
  20271142.599   -23226700.21244 -18083961.24842  20271144.147    20271141.176
  23679971.788    -5557457.03843  -4319439.06442  23679974.650    23679974.412
  21694586.395   -19321728.59043 -14826132.44942  21694588.461    21694585.758
  20923316.888   -24999673.75744 -19466044.01442  20923319.125    20923314.724
 03  4  2  0 29  0.0000000  0  8G14G31G 3G17G15G 9G23G18
  21523648.710   -20375230.26343 -15599575.34142  21523651.612    21523648.993
  23151445.732    -6580324.14943  -5112756.03042  23151448.334    23151447.644
  21711349.002   -14101395.51543 -10981963.17142  21711351.203    21711349.306
  21963224.410      720556.90443    552626.79742  21963225.700    21963224.305
  20273440.147   -23214626.54144 -18074553.18242  20273441.714    20273438.740
  23673243.164    -5592816.16743  -4346991.50142  23673245.967    23673245.863
  21703837.443   -19273113.68943 -14788250.70942  21703839.548    21703836.860
  20930958.952   -24959514.08744 -19434750.77642  20930961.174    20930956.943
 03  4  2  0 29 30.0000000  0  8G14G31G 3G17G15G 9G23G18
  21508130.114   -20456780.49143 -15663120.86442  21508132.981    21508130.384
  23139009.583    -6645676.17943  -5163679.61242  23139012.057    23139011.291
  21708027.873   -14118847.95743 -10995562.45342  21708030.064    21708028.141
  21974735.122      781046.06843    599761.18142  21974736.360    21974735.082
  20275808.182   -23202182.38444 -18064856.41442  20275809.742    20275806.811
  23666604.086    -5627704.34343  -4374176.98442  23666606.734    23666606.725
  21713107.852   -19224397.43443 -14750289.99542  21713109.960    21713107.279
  20938639.455   -24919152.50744 -19403300.19342  20938641.674    20938637.556
 03  4  2  0 30  0.0000000  0  8G14G31G 3G17G15G 9G23G18
  21492688.288   -20537927.62743 -15726352.29142  21492691.099    21492688.493
  23126662.011    -6710564.29143  -5214241.72042  23126664.392    23126663.282
  21704814.234   -14135736.43543 -11008722.29042  21704816.380    21704814.254
  21986304.998      841846.27843    647137.92742  21986306.282    21986305.151
  20278248.455   -23189358.49544 -18054863.75642  20278250.014    20278247.146
  23660056.356    -5662111.10043  -4400987.30342  23660059.037    23660059.045
  21722399.001   -19175572.29343 -14712244.43442  21722401.114    21722398.400
  20946359.871   -24878581.60244 -19371686.49542  20946362.077    20946358.040
 03  4  2  0 30 30.0000000  0  8G14G31G 3G17G15G 9G23G18
  21477323.315   -20618671.12743 -15789269.19942  21477326.152    21477323.494
  23114402.621    -6774988.04243  -5264441.97842  23114404.992    23114403.691
  21701707.526   -14152061.73643 -11021443.27842  21701709.723    21701707.546
  21997934.041      902956.55643    694756.28142  21997935.264    21997934.060
  20280760.825   -23176155.67944 -18044575.83042  20280762.393    20280759.536
  23653600.423    -5696035.69743  -4427421.92042  23653603.127    23653603.195
  21731710.395   -19126641.11443 -14674116.23742  21731712.539    21731709.640
  20954119.593   -24837804.10944 -19339911.81742  20954121.798    20954117.697
 03  4  2  0 31  0.0000000  0  8G14G31G 3G17G15G 9G23G18
  21462036.008   -20699005.91543 -15851867.62642  21462038.877    21462036.231
  23102232.488    -6838942.38743  -5314276.45442  23102234.746    23102233.371
  21698708.781   -14167820.74843 -11033723.00142  21698710.970    21698708.777
  22009622.277      964379.47843    742618.25242  22009623.610    22009622.408
  20283345.993   -23162570.48944 -18033989.95042  20283347.547    20283344.780
  23647237.506    -5729473.05443  -4453476.88142  23647240.113    23647239.835
  21741042.200   -19077602.13443 -14635904.04642  21741044.361    21741041.436
  20961919.009   -24796818.21544 -19307974.74742  20961921.238    20961917.037
 03  4  2  0 31 30.0000000  0  8G14G31G 3G17G15G 9G23G18
  21446825.311   -20778937.71543 -15914152.04642  21446828.206    21446825.607
  23090150.509    -6902432.99943  -5363749.56242  23090152.805    23090151.454
  21695816.342   -14183020.65943 -11045567.06042  21695818.515    21695816.463
  22021368.833     1026107.18543    790717.70642  22021370.046    22021368.778
  20286002.596   -23148609.84344 -18023111.51242  20286004.158    20286001.363
  23640966.077    -5762428.65543  -4479156.47242  23640968.754    23640968.452
  21750392.755   -19028464.02843 -14597614.60942  21750394.934    21750392.107
  20969756.333   -24755632.92844 -19275882.30742  20969758.581    20969754.332
 03  4  2  0 32  0.0000000  0  8G14G31G 3G17G15G 9G23G18
  21431697.272   -20858436.17243 -15976098.79042  21431700.118    21431697.430
  23078162.468    -6965429.61143  -5412837.74542  23078164.919    23078163.619
  21693035.554   -14197632.90943 -11056953.18442  21693037.769    21693035.882
  22033178.622     1088168.05043    839076.79442  22033179.881    22033178.575
  20288736.199   -23134244.54644 -18011917.77242  20288737.759    20288734.988
  23634792.098    -5794872.14743  -4504436.99742  23634794.702    23634794.652
  21759767.427   -18979199.52543 -14559226.69142  21759769.564    21759766.805
  20977636.665   -24714221.30144 -19243613.50042  20977638.919    20977634.635
 03  4  2  0 32 30.0000000  0  8G14G31G 3G17G15G 9G23G18
  21416645.458   -20937533.70743 -16037733.13542  21416648.328    21416645.536
  23066262.475    -7027964.79543  -5461566.37842  23066264.861    23066263.734
  21690360.322   -14211691.66943 -11067908.03642  21690362.463    21690360.563
  22045045.200     1150527.02543    887668.15042  22045046.389    22045045.167
  20291540.446   -23119508.35744 -18000435.02242  20291541.984    20291539.080
  23628709.463    -5826836.08043  -4529343.87442  23628712.022    23628712.050
  21769159.532   -18929844.21743 -14520768.02542  21769161.603    21769158.770
  20985553.368   -24672618.94044 -19211196.07142  20985555.539    20985551.221
 03  4  2  0 33  0.0000000  0  8G14G31G 3G17G15G 9G23G18
  21401672.806   -21016215.22743 -16099043.31042  21401675.652    21401672.786
  23054452.886    -7090023.37743  -5509923.64042  23054455.368    23054454.627
  21687792.979   -14225183.51243 -11078421.13642  21687795.129    21687793.060
  22056971.095     1213197.52143    936502.25342  22056972.243    22056971.070
  20294417.851   -23104387.51744 -17988652.55142  20294419.411    20294416.420
  23622721.275    -5858304.92743  -4553864.94942  23622723.828    23622723.719
  21778571.153   -18880385.92243 -14482229.11042  21778573.211    21778570.466
  20993508.516   -24630813.75444 -19178620.59542  20993510.694    20993506.426
 03  4  2  0 33 30.0000000  0  8G14G31G 3G17G15G 9G23G18
  21386781.580   -21094468.49843 -16160019.78742  21386784.405    21386781.533
  23042736.488    -7151593.12143  -5557899.98442  23042738.963    23042738.369
  21685335.429   -14238097.61543 -11088484.05242  21685337.660    21685335.515
  22068958.113     1276189.46243    985586.83242  22068959.283    22068958.052
  20297370.552   -23088870.90544 -17976561.68442  20297372.107    20297369.092
  23616829.577    -5889266.11843  -4577990.46342  23616832.154    23616831.909
  21788004.077   -18830815.52243 -14443602.84142  21788006.146    21788003.512
  21001503.999   -24588796.70443 -19145880.03842  21001506.156    21001502.013
 03  4  2  0 34  0.0000000  0  8G14G31G 3G17G15G 9G23G18
  21371972.943   -21172288.57643 -16220658.71142  21371975.707    21371972.714
  23031114.075    -7212669.28643  -5605491.75142  23031116.512    23031115.928
  21682988.301   -14250431.21943 -11098094.62642  21682990.570    21682988.444
  22081006.655     1339505.71243   1034924.12242  22081007.861    22081006.833
  20300399.231   -23072955.02744 -17964159.69442  20300400.780    20300397.780
  23611035.218    -5919714.85243  -4601716.65242  23611037.897    23611037.718
  21797458.707   -18781131.13543 -14404887.74342  21797460.775    21797458.127
  21009540.257   -24546566.06444 -19112973.04042  21009542.379    21009538.220
 03  4  2  0 34 30.0000000  0  8G14G31G 3G17G15G 9G23G18
  21357241.728   -21249700.73543 -16280979.77942  21357244.628    21357241.550
  23019580.701    -7273277.06743  -5652718.54842  23019583.101    23019582.379
  21680746.632   -14262211.23443 -11107273.83542  21680748.914    21680746.807
  22093112.039     1403118.94443   1084492.82542  22093113.123    22093112.081
  20303498.962   -23056666.14544 -17951467.06442  20303500.496    20303497.397
  23605333.700    -5949676.24443  -4625063.09142  23605336.412    23605336.130
  21806929.619   -18731360.95743 -14366105.79942  21806931.688    21806929.124
  21017611.762   -24504150.19744 -19079921.72142  21017613.909    21017609.770
 03  4  2  0 35  0.0000000  0  8G14G31G 3G17G15G 9G23G18
  21342591.202   -21326689.51743 -16340970.94342  21342594.013    21342590.998
  23008139.494    -7333401.12143  -5699568.39642  23008141.809    23008141.046
  21678612.973   -14273423.99443 -11116011.03342  21678615.233    21678613.142
  22105276.202     1467042.65243   1134303.46542  22105277.327    22105276.395
  20306672.213   -23039990.28344 -17938472.88542  20306673.764    20306670.696
  23599727.917    -5979134.83843  -4648017.70842  23599730.552    23599730.310
  21816419.182   -18681492.58343 -14327247.33442  21816421.209    21816418.754
  21025720.904   -24461536.76944 -19046716.45142  21025723.052    21025718.902
 03  4  2  0 35 30.0000000  0  8G14G31G 3G17G15G 9G23G18
  21328019.198   -21403265.75743 -16400640.64442  21328022.001    21328019.020
  22996788.378    -7393052.31343  -5746049.77642  22996790.699    22996789.837
  21676584.752   -14284082.05343 -11124315.98642  21676586.977    21676585.008
  22117497.222     1531263.54343   1184345.66142  22117498.374    22117497.225
  20309916.904   -23022939.37744 -17925186.46342  20309918.448    20309915.468
  23594215.544    -6008101.12843  -4670588.74942  23594218.280    23594217.893
  21825924.999   -18631539.55943 -14288322.91342  21825927.007    21825924.514
  21033864.975   -24418739.57744 -19013367.99142  21033867.115    21033862.952
 03  4  2  0 36  0.0000000  0  8G14G31G 3G17G15G 9G23G18
  21313528.715   -21479412.92043 -16459976.00542  21313531.562    21313528.631
  22985530.308    -7452214.28743  -5792149.93042  22985532.653    22985531.645
  21674664.918   -14294170.85143 -11132177.37342  21674667.139    21674665.040
  22129777.358     1595796.41643   1234630.95642  22129778.592    22129777.501
  20313235.856   -23005498.42044 -17911596.11342  20313237.412    20313234.365
  23588800.350    -6036558.88043  -4692763.51242  23588803.091    23588802.473
  21835449.343   -18581488.62743 -14249322.20442  21835451.429    21835448.885
  21042046.433   -24375745.53744 -18979866.15642  21042048.590    21042044.398
 03  4  2  0 36 30.0000000  0  8G14G31G 3G17G15G 9G23G18
  21299122.638   -21555116.49243 -16518965.70542  21299125.463    21299122.543
  22974367.940    -7510872.45543  -5837857.52142  22974370.414    22974369.228
  21672855.815   -14303677.51243 -11139585.14442  21672858.029    21672855.858
  22142119.300     1660653.78043   1285169.12042  22142120.530    22142119.692
  20316631.501   -22987653.94044 -17897691.31642  20316633.070    20316630.107
  23583484.536    -6064493.38043  -4714530.50242  23583487.366    23583486.535
  21844994.649   -18531327.91243 -14210235.94942  21844996.745    21844994.106
  21050267.651   -24332542.85444 -18946201.73242  21050269.790    21050265.485
 03  4  2  0 37  0.0000000  0  8G14G31G 3G17G15G 9G23G18
  21284798.401   -21630390.32743 -16577620.54642  21284801.213    21284798.261
  22963298.743    -7569040.78943  -5883183.41842  22963301.210    22963299.980
  21671154.597   -14312617.73343 -11146551.54442  21671156.832    21671154.576
  22154520.060     1725819.53343   1335947.56142  22154521.322    22154520.451
  20320101.123   -22969421.05044 -17883483.86542  20320102.657    20320099.749
  23578265.588    -6091918.42143  -4735900.59142  23578268.535    23578267.527
  21854557.627   -18481074.36943 -14171077.36042  21854559.699    21854557.064
  21058525.296   -24289148.59244 -18912388.03742  21058527.448    21058523.137
 03  4  2  0 37 30.0000000  0  8G14G31G 3G17G15G 9G23G18
  21270555.339   -21705238.36243 -16635943.59742  21270558.098    21270555.091
  22952322.003    -7626723.34843  -5928130.80442  22952324.494    22952323.195
  21669559.891   -14320997.28943 -11153081.04642  21669562.196    21669560.003
  22166978.176     1791287.31743   1386961.36642  22166979.415    22166978.445
  20323643.586   -22950805.04444 -17868977.87642  20323645.107    20323642.243
  23573143.092    -6118837.96543  -4756876.73942  23573145.929    23573144.386
  21864136.879   -18430734.89743 -14131851.80042  21864138.970    21864136.374
  21066818.015   -24245569.70643 -18878430.47342  21066820.143    21066815.946
 03  4  2  0 38  0.0000000  0  8G14G31G 3G17G15G 9G23G18
  21256393.152   -21779660.76943 -16693934.98242  21256396.001    21256392.890
  22941437.676    -7683920.41643  -5972699.87242  22941440.078    22941438.876
  21668071.703   -14328818.21143 -11159175.26442  21668073.937    21668071.656
  22179493.350     1857055.13643   1438208.95842  22179494.536    22179493.613
  20327258.805   -22931806.96144 -17854174.16642  20327260.332    20327257.439
  23568116.353    -6145252.14443  -4777459.20042  23568119.200    23568117.816
  21873731.982   -18380312.25843 -14092561.43342  21873734.096    21873731.465
  21075145.288   -24201809.34044 -18844331.50342  21075147.386    21075143.344
 03  4  2  0 38 30.0000000  0  8G14G31G 3G17G15G 9G23G18
  21242311.449   -21853659.94143 -16751596.58242  21242314.294    21242311.166
  22930645.251    -7740634.25043  -6016892.39242  22930647.645    22930646.524
  21666688.977   -14336084.57143 -11164837.35842  21666691.212    21666688.843
  22192064.990     1923118.50043   1489686.83442  22192066.120    22192065.119
  20330945.957   -22912430.72744 -17839075.79842  20330947.494    20330944.589
  23563185.868    -6171163.11843  -4797649.48142  23563188.700    23563187.103
  21883342.041   -18329811.48143 -14053210.19242  21883344.128    21883341.435
  21083506.110   -24157872.84144 -18810095.28342  21083508.243    21083504.169
 03  4  2  0 39  0.0000000  0  8G14G31G 3G17G15G 9G23G18
  21228319.737   -21927186.65543 -16808890.02742  21228322.593    21228319.400
  22919954.304    -7796815.85243  -6060670.20742  22919956.750    22919955.570
  21665420.746   -14342749.21443 -11170030.58542  21665422.936    21665420.635
  22204701.552     1989524.74743   1541431.92542  22204702.771    22204701.898
  20334714.154   -22892628.46144 -17823645.44342  20334715.676    20334712.875
  23558360.396    -6196521.79543  -4817409.44442  23558363.246    23558361.504
  21892975.603   -18279186.55643 -14013762.19342  21892977.700    21892975.132
  21091909.207   -24113714.19944 -18775685.96342  21091911.348    21091907.335
 03  4  2  0 39 30.0000000  0  8G14G31G 3G17G15G 9G23G18
  21214410.972   -22000277.45643 -16865843.80642  21214413.840    21214410.638
  22909357.689    -7852501.74443  -6104061.72942  22909360.107    22909358.943
  21664259.629   -14348850.21743 -11174784.58742  21664261.857    21664259.737
  22217396.178     2056235.28343   1593414.11642  22217397.413    22217396.615
  20338556.283   -22872437.83244 -17807912.47742  20338557.811    20338555.051
  23553632.821    -6221364.60743  -4836767.39242  23553635.739    23553633.949
  21902625.382   -18228476.46043 -13974247.84142  21902627.485    21902624.948
  21100347.244   -24069372.58144 -18741134.05542  21100349.363    21100345.262
 03  4  2  0 40  0.0000000  0  8G14G31G 3G17G15G 9G23G18
  21200588.090   -22072916.34443 -16922445.44842  21200590.976    21200587.795
  22898858.158    -7907676.15243  -6147054.69742  22898860.638    22898859.605
  21663208.503   -14354373.90143 -11179088.74042  21663210.718    21663208.704
  22230151.398     2123263.55343   1645643.87442  22230152.622    22230151.703
  20342475.088   -22851844.16644 -17791865.44442  20342476.608    20342473.896
  23549006.115    -6245675.58243  -4855710.93342  23549009.028    23549007.497
  21912293.916   -18177668.29443 -13934657.07742  21912296.050    21912293.370
  21108822.582   -24024835.04944 -18706429.48942  21108824.743    21108820.468
 03  4  2  0 40 30.0000000  0  8G14G31G 3G17G15G 9G23G18
  21186845.227   -22145135.17543 -16978719.76742  21186848.090    21186844.819
  22888449.898    -7962370.93943  -6189673.91542  22888452.295    22888451.399
  21662260.955   -14359353.57143 -11182968.99242  21662263.140    21662261.119
  22242960.364     2190575.54743   1698094.73342  22242961.585    22242960.815
  20346464.411   -22830880.28444 -17775529.93942  20346465.912    20346463.186
  23544474.803    -6269486.73343  -4874265.00442  23544477.686    23544476.067
  21921974.566   -18126796.39443 -13895016.64742  21921976.692    21921973.937
  21117328.498   -23980136.30544 -18671599.30542  21117330.693    21117326.357
 03  4  2  0 41  0.0000000  0  8G14G31G 3G17G15G 9G23G18
  21173188.766   -22216899.69043 -17034640.07842  21173191.643    21173188.405
  22878139.208    -8016551.95843  -6231892.80042  22878141.632    22878140.889
  21661422.999   -14363756.96143 -11186400.19142  21661425.204    21661423.170
  22255829.810     2258203.82743   1750792.02342  22255831.058    22255830.146
  20350530.354   -22809513.17344 -17758880.22442  20350531.897    20350529.179
  23540045.270    -6292763.62843  -4892402.69642  23540048.084    23540046.465
  21931673.291   -18075829.31543 -13855302.05242  21931675.420    21931672.611
  21125871.002   -23935245.03244 -18636619.09442  21125873.200    21125868.871
 03  4  2  0 41 30.0000000  0  8G14G31G 3G17G15G 9G23G18
  21159617.855   -22288214.80443 -17090210.21142  21159620.672    21159617.529
  22867925.960    -8070224.00643  -6273715.09242  22867928.303    22867927.437
  21660693.442   -14367590.76843 -11189387.55842  21660695.587    21660693.549
  22268758.034     2326141.70043   1803730.57042  22268759.333    22268758.469
  20354672.025   -22787748.78544 -17741920.95442  20354673.570    20354670.814
  23535716.433    -6315511.11043  -4910127.87942  23535719.173    23535717.821
  21941388.713   -18024774.47943 -13815519.06942  21941390.849    21941388.035
  21134448.691   -23890168.78744 -18601494.74642  21134450.889    21134446.629
 03  4  2  0 42  0.0000000  0  8G14G31G 3G17G15G 9G23G18
  21146132.584   -22359080.51743 -17145430.15742  21146135.322    21146132.145
  22857809.169    -8123387.38343  -6315141.02142  22857811.650    22857810.811
  21660071.811   -14370857.02443 -11191932.67142  21660073.973    21660071.992
  22281744.601     2394386.78843   1856908.50642  22281745.898    22281745.324
  20358889.042   -22765588.48744 -17724653.17842  20358890.640    20358887.786
  23531488.552    -6337729.25543  -4927440.63242  23531491.202    23531489.923
  21951120.259   -17973634.77043 -13775669.94942  21951122.367    21951119.655
  21143061.055   -23844910.58544 -18566228.61242  21143063.242    21143058.986
 03  4  2  0 42 30.0000000  0  8G14G31G 3G17G15G 9G23G18
  21132735.024   -22429484.99343 -17200290.70442  21132737.763    21132734.538
  22847791.667    -8176030.13843  -6356161.27342  22847794.103    22847793.235
  21659560.165   -14373545.58843 -11194027.64942  21659562.382    21659560.280
  22294791.576     2462948.75643   1910333.36042  22294792.845    22294792.388
  20363183.408   -22743021.41144 -17707068.44042  20363185.025    20363182.084
  23527362.977    -6359406.17043  -4944331.68442  23527365.622    23527364.613
  21960869.689   -17922400.78243 -13735747.36942  21960871.771    21960869.173
  21151709.687   -23799461.49544 -18530813.73042  21151711.931    21151707.728
 03  4  2  0 43  0.0000000  0  8G14G31G 3G17G15G 9G23G18
  21119420.344   -22499454.14844 -17254812.04242  21119423.087    21119419.787
  22837868.280    -8228178.46143  -6396796.24942  22837870.681    22837869.733
  21659153.076   -14375684.80543 -11195694.55942  21659155.265    21659153.114
  22307893.516     2531800.05943   1963983.66342  22307894.832    22307894.376
  20367549.971   -22720074.80044 -17689187.95542  20367551.573    20367548.647
  23523336.139    -6380568.07043  -4960821.39442  23523338.663    23523337.420
  21970631.748   -17871100.94943 -13695773.48742  21970633.850    21970631.276
  21160389.358   -23753850.05644 -18495272.34142  21160391.587    21160387.297
 03  4  2  0 43 30.0000000  0  8G14G31G 3G17G15G 9G23G18
  21106195.297   -22568952.15043 -17308966.24342  21106198.065    21106194.707
  22828045.788    -8279796.63143  -6437018.13042  22828048.166    22828046.955
  21658856.974   -14377240.57143 -11196906.83342  21658859.233    21658857.062
  22321057.138     2600974.61543   2017885.83842  22321058.388    22321057.884
  20371995.428   -22696714.09344 -17670984.79642  20371996.988    20371993.996
  23519413.901    -6401179.17343  -4976881.90942  23519416.403    23519415.451
  21980412.660   -17819702.27543 -13655722.57942  21980414.768    21980412.107
  21169106.002   -23708043.40944 -18459578.85442  21169108.247    21169104.040
 03  4  2  0 44  0.0000000  0  8G14G31G 3G17G15G 9G23G18
  21093054.280   -22638008.02643 -17362775.93942  21093057.104    21093053.778
  22818318.443    -8330913.54643  -6476849.42242  22818320.931    22818319.539
  21658666.189   -14378243.46143 -11197688.29242  21658668.401    21658666.261
  22334276.246     2670441.29843   2072015.65842  22334277.541    22334276.889
  20376513.918   -22672969.17344 -17652482.26142  20376515.471    20376512.466
  23515591.056    -6421268.26443  -4992535.70242  23515593.560    23515593.024
  21990206.369   -17768236.14543 -13615619.11042  21990208.508    21990205.848
  21177853.888   -23662072.88744 -18423757.66942  21177856.105    21177851.921
 03  4  2  0 44 30.0000000  0  8G14G31G 3G17G15G 9G23G18
  21079998.946   -22706613.78543 -17416234.89142  21080001.751    21079998.458
  22808687.805    -8381521.64443  -6516284.23242  22808690.344    22808689.023
  21658581.587   -14378687.91343 -11198034.59942  21658583.818    21658581.696
  22347551.830     2740205.38143   2126377.24242  22347553.127    22347552.472
  20381106.772   -22648833.54944 -17633675.27042  20381108.315    20381105.294
  23511869.074    -6440827.68143  -5007776.74442  23511871.522    23511871.144
  22000013.805   -17716697.38943 -13575459.05842  22000015.988    22000013.317
  21186633.819   -23615933.76844 -18387805.11442  21186636.015    21186631.893
 03  4  2  0 45  0.0000000  0  8G14G31G 3G17G15G 9G23G18
  21067032.368   -22774753.30043 -17469330.53742  21067035.159    21067031.760
  22799157.357    -8431604.54243  -6555309.81042  22799159.806    22799158.432
  21658606.095   -14378559.35243 -11197934.41342  21658608.289    21658606.126
  22360887.061     2810281.70143   2180982.10642  22360888.314    22360887.471
  20385776.951   -22624291.94144 -17614551.95142  20385778.466    20385775.391
  23508250.934    -6459841.25243  -5022592.44342  23508253.291    23508253.087
  22009837.823   -17665071.99243 -13535231.49442  22009839.949    22009837.250
  21195448.462   -23569612.36843 -18351710.51842  21195450.638    21195446.530
 03  4  2  0 45 30.0000000  0  8G14G31G 3G17G15G 9G23G18
  21054155.446   -22842421.54743 -17522058.96642  21054158.231    21054154.781
  22789727.649    -8481157.43343  -6593922.37642  22789730.063    22789728.731
  21658740.102   -14377854.74843 -11197385.36542  21658742.342    21658740.207
  22374282.003     2880672.99343   2235832.40242  22374283.332    22374282.410
  20390525.027   -22599340.49644 -17595109.26942  20390526.554    20390523.565
  23504737.477    -6478303.84243  -5036978.76842  23504740.021    23504739.621
  22019678.657   -17613357.54043 -13494934.53742  22019680.787    22019678.135
  21204298.231   -23523106.27744 -18315472.01142  21204300.381    21204296.373
 03  4  2  0 46  0.0000000  0  8G14G31G 3G17G15G 9G23G18
  21041366.412   -22909628.13743 -17574427.66542  21041369.171    21041365.718
  22780396.965    -8530190.00743  -6632129.49642  22780399.350    22780397.985
  21658981.542   -14376586.01643 -11196396.73242  21658983.764    21658981.688
  22387735.089     2951367.88343   2290919.24742  22387736.379    22387735.215
  20395349.035   -22573990.15044 -17575355.74642  20395350.533    20395347.632
  23501327.448    -6496225.12243  -5050943.26942  23501329.943    23501329.171
  22029534.243   -17561566.12343 -13454577.61442  22029536.353    22029533.799
  21213180.880   -23476427.92044 -18279099.27242  21213183.055    21213178.970
 03  4  2  0 46 30.0000000  0  8G14G31G 3G17G15G 9G23G18
  21028666.000   -22976369.57444 -17626433.90742  21028668.707    21028665.173
  22771165.822    -8578699.01543  -6669928.66242  22771168.230    22771166.897
  21659330.643   -14374751.60643 -11194967.31842  21659332.879    21659330.759
  22401245.838     3022367.54643   2346243.57942  22401247.171    22401245.958
  20400249.397   -22548238.45044 -17555289.49242  20400250.925    20400248.006
  23498020.575    -6513601.74643  -5064483.41042  23498023.234    23498022.523
  22039404.763   -17509696.89943 -13414160.05742  22039406.831    22039404.233
  21222096.417   -23429576.54444 -18242591.72642  21222098.615    21222094.509
 03  4  2  0 47  0.0000000  0  8G14G31G 3G17G15G 9G23G18
  21016058.445   -23042622.29744 -17678059.33142  21016061.225    21016057.651
  22762039.095    -8626660.84143  -6707301.43642  22762041.395    22762040.145
  21659791.503   -14372329.64843 -11193080.08542  21659793.709    21659791.571
  22414818.701     3093693.99743   2401822.57942  22414819.998    22414818.911
  20405230.448   -22522063.07144 -17534893.10342  20405231.952    20405228.987
  23494821.753    -6530410.18843  -5077580.85042  23494824.344    23494824.008
  22049294.061   -17457728.61143 -13373665.30342  22049296.145    22049293.489
  21231049.018   -23382531.01244 -18205932.88042  21231051.190    21231046.937
 03  4  2  0 47 30.0000000  0  8G14G31G 3G17G15G 9G23G18
  21003538.427   -23108415.01143 -17729326.31042  21003541.181    21003537.606
  22753010.888    -8674104.47243  -6744270.44342  22753013.289    22753011.938
  21660358.244   -14369351.00543 -11190759.05342  21660360.445    21660358.397
  22428448.166     3165315.81943   2457631.70442  22428449.372    22428448.199
  20410286.355   -22495493.83744 -17514189.80742  20410287.879    20410284.930
  23491725.912    -6546679.38143  -5090257.99642  23491728.292    23491727.935
  22059196.063   -17405692.44543 -13333117.66442  22059198.165    22059195.673
  21240032.422   -23335322.66944 -18169147.17942  21240034.576    21240030.360
 03  4  2  0 48  0.0000000  0  8G14G31G 3G17G15G 9G23G18
  20991102.244   -23173767.32744 -17780250.12642  20991104.963    20991101.426
  22744077.641    -8721049.61843  -6780851.03142  22744080.010    22744078.567
  21661027.079   -14365837.08443 -11188020.94542  21661029.257    21661027.012
  22442129.599     3237212.15643   2513654.75942  22442130.788    22442129.719
  20415413.381   -22468551.37444 -17493195.69442  20415414.861    20415411.871
  23488728.666    -6562429.06143  -5102530.42442  23488731.017    23488730.985
  22069106.996   -17353610.24043 -13292534.14642  22069109.026    22069106.632
  21249042.600   -23287973.85644 -18132252.00242  21249044.736    21249040.555
 03  4  2  0 48 30.0000000  0  8G14G31G 3G17G15G 9G23G18
  20978760.525   -23238623.70444 -17830787.48842  20978763.207    20978759.611
  22735249.805    -8767440.63843  -6816999.84042  22735252.076    22735250.602
  21661807.800   -14361734.41643 -11184824.07242  21661810.020    21661807.671
  22455873.379     3309436.41843   2569933.34942  22455874.603    22455873.597
  20420621.750   -22441181.10244 -17471868.21442  20420623.223    20420620.258
  23485841.152    -6577603.65043  -5114354.74542  23485843.424    23485843.572
  22079036.862   -17301428.54543 -13251873.10942  22079038.877    22079036.409
  21258089.640   -23240431.06144 -18095205.68442  21258091.796    21258087.677
 03  4  2  0 49  0.0000000  0  8G14G31G 3G17G15G 9G23G18
  20966511.728   -23302990.74344 -17880943.54842  20966514.529    20966510.832
  22726525.912    -8813284.07843  -6852721.94442  22726528.221    22726526.843
  21662698.815   -14357051.40943 -11181174.97342  21662701.031    21662698.916
  22469678.127     3381980.39943   2626461.03742  22469679.271    22469678.273
  20425910.119   -22413390.42244 -17450213.14242  20425911.618    20425908.607
  23483061.827    -6592209.54943  -5125735.94942  23483064.123    23483064.231
  22088984.051   -17249156.15143 -13211141.38542  22088986.054    22088983.414
  21267171.801   -23192703.79744 -18058015.61742  21267173.975    21267169.868
 03  4  2  0 49 30.0000000  0  8G14G31G 3G17G15G 9G23G18
  20954350.490   -23366898.09943 -17930741.42642  20954353.255    20954349.555
  22717900.519    -8858610.21143  -6888040.97742  22717902.817    22717901.370
  21663694.319   -14351820.23943 -11177098.74442  21663696.523    21663694.438
  22483537.640     3454811.91243   2683212.79042  22483538.714    22483537.792
  20431272.599   -22385210.80744 -17428255.00642  20431274.071    20431271.107
  23480384.997    -6606277.25443  -5136697.77542  23480387.255    23480387.159
  22098942.257   -17196825.58443 -13170364.33842  22098944.263    22098941.634
  21276283.017   -23144824.06643 -18020706.75342  21276285.171    21276281.103
 03  4  2  0 50  0.0000000  0  8G14G31G 3G17G15G 9G23G18
  20942279.631   -23430330.86644 -17980169.49342  20942282.331    20942278.673
  22709376.509    -8903403.97143  -6922945.18142  22709378.791    22709377.253
  21664796.636   -14346027.77743 -11172585.14842  21664798.792    21664796.704
  22497454.293     3527944.24043   2740198.93742  22497455.389    22497454.442
  20436711.741   -22356627.92144 -17405982.62942  20436713.253    20436710.328
  23477813.301    -6619791.31643  -5147228.16542  23477815.623    23477815.366
  22108913.959   -17144423.94843 -13129531.92142  22108915.986    22108913.349
  21285425.629   -23096779.39143 -17983269.36042  21285427.784    21285423.719
 03  4  2  0 50 30.0000000  0  8G14G31G 3G17G15G 9G23G18
  20930298.123   -23493294.04144 -18029231.64342  20930300.832    20930297.132
  22700952.901    -8947670.49543  -6957438.56142  22700955.078    22700953.362
  21666004.428   -14339680.90243 -11167639.53642  21666006.567    21666004.392
  22511426.845     3601370.63043   2797414.22242  22511427.979    22511426.841
  20442226.404   -22327647.98244 -17383400.85742  20442227.923    20442225.006
  23475345.935    -6632757.25343  -5157331.41342  23475348.196    23475347.924
  22118897.806   -17091958.39843 -13088649.69242  22118899.838    22118897.256
  21294598.295   -23048577.17844 -17945709.21342  21294600.452    21294596.401
 03  4  2  0 51  0.0000000  0  8G14G31G 3G17G15G 9G23G18
  20918411.131   -23555760.56244 -18077906.78542  20918413.831    20918410.135
  22692634.547    -8991383.05143  -6991500.24842  22692636.745    22692634.950
  21667322.438   -14332754.85443 -11162242.62842  21667324.634    21667322.289
  22525460.310     3675115.65943   2854877.77842  22525461.428    22525460.101
  20447821.661   -22298245.08944 -17360489.52142  20447823.124    20447820.064
  23472988.018    -6645148.22443  -5166986.66542  23472990.419    23472989.705
  22128898.591   -17039404.22943 -13047698.40942  22128900.600    22128897.916
  21303805.488   -23000193.23343 -17908007.44742  21303807.669    21303803.567
 03  4  2  0 51 30.0000000  0  8G14G31G 3G17G15G 9G23G18
  20906614.499   -23617751.55944 -18126211.40142  20906617.254    20906613.622
  22684417.692    -9034562.63643  -7025146.65442  22684419.902    22684418.224
  21668746.320   -14325272.55443 -11156412.26742  21668748.489    21668746.178
  22539549.774     3749156.71743   2912572.03542  22539550.964    22539549.893
  20453493.091   -22268441.23044 -17337265.73842  20453494.566    20453491.566
  23470735.496    -6656985.27243  -5176210.26442  23470737.945    23470737.064
  22138911.831   -16986784.66343 -13006696.16542  22138913.847    22138911.149
  21313042.776   -22951650.78943 -17870182.17442  21313044.951    21313040.867
 03  4  2  0 52  0.0000000  0  8G14G31G 3G17G15G 9G23G18
  20894907.652   -23679271.53544 -18174148.97542  20894910.365    20894906.670
  22676301.341    -9077213.78443  -7058381.28342  22676303.575    22676302.111
  21670274.760   -14317240.69643 -11150153.66942  21670276.944    21670274.659
  22553694.297     3823487.14043   2970491.76842  22553695.422    22553694.781
  20459239.873   -22238241.92544 -17313733.81042  20459241.335    20459238.281
  23468587.589    -6668272.87543  -5185005.69342  23468590.058    23468588.844
  22148936.212   -16934106.19343 -12965648.03142  22148938.277    22148935.488
  21322308.995   -22902956.63744 -17832238.69542  21322311.154    21322307.122
 03  4  2  0 52 30.0000000  0  8G14G31G 3G17G15G 9G23G18
  20883289.872   -23740322.23643 -18221720.89642  20883292.608    20883289.036
  22668285.158    -9119338.51943  -7091205.70342  22668287.402    22668286.104
  21671906.953   -14308663.16343 -11143469.88242  21671909.192    21671906.916
  22567893.397     3898103.59543   3028634.38042  22567894.465    22567894.132
  20465061.291   -22207650.18244 -17289896.08842  20465062.751    20465059.665
  23466543.714    -6679013.25143  -5193374.72842  23466546.189    23466544.835
  22158971.005   -16881372.84043 -12924557.13942  22158973.029    22158970.346
  21331603.299   -22854115.00343 -17794180.28742  21331605.454    21331601.352
 03  4  2  0 53  0.0000000  0  8G14G31G 3G17G15G 9G23G18
  20871767.132   -23800874.67044 -18268904.54842  20871769.807    20871766.201
  22660374.751    -9160908.12343  -7123597.57042  22660376.933    22660375.571
  21673648.134   -14299512.83343 -11136339.76142  21673650.343    21673648.125
  22582152.087     3973033.03543   3087020.88842  22582153.104    22582152.909
  20470962.633   -22176638.00044 -17265730.74542  20470964.120    20470961.113
  23464608.988    -6689177.65443  -5201295.01242  23464611.509    23464610.587
  22169021.393   -16828557.84343 -12883402.61742  22169023.412    22169020.854
  21340930.621   -22805099.39843 -17755986.33042  21340932.790    21340928.610
 03  4  2  0 53 30.0000000  0  8G14G31G 3G17G15G 9G23G18
  20860340.149   -23860923.91944 -18315696.10842  20860342.827    20860339.115
  22652571.059    -9201917.65543  -7155553.04542  22652573.257    22652571.676
  21675498.897   -14289786.80043 -11128761.04642  21675501.073    21675498.949
  22596471.000     4048278.78543   3145653.84442  22596471.899    22596471.804
  20476944.910   -22145201.40044 -17241234.70142  20476946.399    20476943.281
  23462785.396    -6698761.24943  -5208762.69042  23462787.886    23462786.935
  22179087.950   -16775658.13643 -12842182.09342  22179089.957    22179087.399
  21350291.687   -22755907.08544 -17717654.68942  21350293.875    21350289.522
 03  4  2  0 54  0.0000000  0  8G14G31G 3G17G15G 9G23G18
  20849005.623   -23920486.89944 -18362108.75742  20849008.342    20849004.620
  22644870.616    -9242384.19043  -7187085.40342  22644872.873    22644871.104
  21677455.649   -14279504.18643 -11120748.62942  21677457.804    21677455.690
  22610846.408     4123821.75043   3204518.40342  22610847.413    22610847.256
  20483004.437   -22113358.33644 -17216421.92442  20483005.947    20483002.781
  23461068.863    -6707781.04543  -5215791.06742  23461071.329    23461070.367
  22189166.753   -16722692.84243 -12800910.46342  22189168.808    22189166.419
  21359682.670   -22706557.10943 -17679200.19042  21359684.877    21359680.465
 03  4  2  0 54 30.0000000  0  8G14G31G 3G17G15G 9G23G18
  20837762.928   -23979567.23543 -18408145.32342  20837765.643    20837761.900
  22637272.810    -9282311.40143  -7218197.47342  22637275.072    22637273.378
  21679517.267   -14268670.66543 -11112306.93742  21679519.366    21679517.227
  22625277.404     4199656.48343   3263610.30142  22625278.592    22625278.175
  20489140.327   -22081113.53644 -17191296.10842  20489141.849    20489138.849
  23459458.900    -6716240.57943  -5222382.85242  23459461.278    23459460.337
  22199257.184   -16669667.56043 -12759592.09042  22199259.187    22199256.941
  21369102.550   -22657055.38043 -17640627.43342  21369104.712    21369100.316
 03  4  2  0 55  0.0000000  0  8G14G31G 3G17G15G 9G23G18
  20826618.452   -24038131.74044 -18453779.94242  20826621.149    20826617.335
  22629783.508    -9321666.44643  -7248863.68842  22629785.894    22629784.370
  21681689.629   -14257254.99643 -11103411.62542  21681691.701    21681689.491
  22639769.768     4275814.37443   3322954.03342  22639771.019    22639770.445
  20495358.856   -22048434.82244 -17165832.16942  20495360.323    20495357.356
  23457962.168    -6724107.18143  -5228512.62142  23457964.460    23457963.416
  22209365.013   -16616551.03543 -12718202.61642  22209367.000    22209364.846
  21378557.203   -22607370.91643 -17601912.28042  21378559.363    21378555.000
 03  4  2  0 55 30.0000000  0  8G14G31G 3G17G15G 9G23G18
  20815564.058   -24096223.34344 -18499046.06342  20815566.747    20815562.897
  22622395.041    -9360492.35143  -7279117.59642  22622397.392    22622395.908
  21683964.179   -14245302.39243 -11094097.91342  21683966.264    21683964.087
  22654315.075     4352250.25643   3382514.37642  22654316.373    22654315.660
  20501651.552   -22015366.04344 -17140064.28642  20501653.013    20501650.141
  23456569.642    -6731424.12943  -5234214.08842  23456571.992    23456571.241
  22219481.614   -16563388.20243 -12676777.05142  22219483.627    22219481.397
  21388037.970   -22557548.88143 -17563089.93242  21388040.151    21388035.830
 03  4  2  0 56  0.0000000  0  8G14G31G 3G17G15G 9G23G18
  20804602.932   -24153823.62844 -18543929.35342  20804605.674    20804601.912
  22615110.845    -9398770.77543  -7308944.89842  22615113.106    22615111.613
  21686343.960   -14232796.46443 -11084353.04342  21686346.066    21686343.891
  22668916.634     4428981.15743   3442304.57842  22668917.882    22668917.233
  20508022.017   -21981889.56544 -17113978.72242  20508023.464    20508020.572
  23455285.298    -6738172.87843  -5239472.78442  23455287.574    23455286.855
  22229610.178   -16510162.62643 -12635302.59742  22229612.175    22229609.826
  21397548.015   -22507573.12143 -17524147.79142  21397550.190    21397545.934
 03  4  2  0 56 30.0000000  0  8G14G31G 3G17G15G 9G23G18
  20793732.217   -24210949.78344 -18588443.18042  20793734.901    20793731.071
  22607927.542    -9436519.08243  -7338359.10442  22607929.819    22607928.378
  21688825.460   -14219756.47243 -11074192.03042  21688827.571    21688825.222
  22683570.487     4505987.85743   3502309.73442  22683571.777    22683571.321
  20514466.491   -21948023.44744 -17087589.55142  20514468.001    20514465.097
  23454105.795    -6744370.95043  -5244302.38842  23454108.030    23454107.231
  22239747.098   -16456893.33343 -12593794.08742  22239749.114    22239746.572
  21407083.671   -22457462.89943 -17485100.89142  21407085.844    21407081.658
 03  4  2  0 57  0.0000000  0  8G14G31G 3G17G15G 9G23G18
  20782961.020   -24267552.35344 -18632549.01942  20782963.764    20782959.859
  22600854.558    -9473688.00743  -7367321.85542  22600856.852    22600855.311
  21691417.340   -14206135.19443 -11063578.05242  21691419.503    21691417.247
  22698286.108     4583318.11343   3562566.97742  22698287.439    22698286.989
  20520994.318   -21913719.79844 -17060859.44142  20520995.823    20520992.784
  23453040.341    -6749969.49943  -5248664.83642  23453042.659    23453041.964
  22249901.242   -16403532.79443 -12552214.46442  22249903.256    22249900.822
  21416653.992   -22407170.89744 -17445912.34542  21416656.174    21416651.972
 03  4  2  0 57 30.0000000  0  8G14G31G 3G17G15G 9G23G18
  20772282.855   -24323666.20443 -18676274.03742  20772285.607    20772281.701
  22593885.130    -9510312.53543  -7395860.37542  22593887.498    22593885.946
  21694113.117   -14191969.23843 -11052539.65642  21694115.281    21694113.062
  22713056.273     4660935.23943   3623047.78542  22713057.669    22713057.129
  20527598.579   -21879014.28244 -17033816.19542  20527600.108    20527597.040
  23452082.421    -6755003.37343  -5252587.27842  23452084.829    23452083.956
  22260065.902   -16350117.63543 -12510592.27842  22260067.910    22260065.369
  21426251.897   -22356734.18744 -17406611.03342  21426254.093    21426249.853
 03  4  2  0 58  0.0000000  0  8G14G31G 3G17G15G 9G23G18
  20761699.930   -24379279.70244 -18719609.17442  20761702.671    20761698.783
  22587021.445    -9546381.18943  -7423965.74642  22587023.869    22587022.331
  21696914.184   -14177249.29043 -11041069.57642  21696916.313    21696914.142
  22727882.895     4738849.03143   3683759.72142  22727884.340    22727883.701
  20534281.475   -21843895.91444 -17006451.25342  20534282.998    20534279.808
  23451234.124    -6759461.06043  -5256060.76442  23451236.662    23451235.641
  22270242.755   -16296638.06243 -12468919.90942  22270244.789    22270242.124
  21435879.143   -22306142.88843 -17367189.25942  21435881.335    21435877.098
 03  4  2  0 58 30.0000000  0  8G14G31G 3G17G15G 9G23G18
  20751209.610   -24434406.63344 -18762565.16542  20751212.306    20751208.454
  22580260.866    -9581907.83443  -7451648.77742  22580263.267    22580261.632
  21699817.670   -14161991.45143 -11029180.36842  21699819.761    21699817.612
  22742762.980     4817043.95543   3744690.74842  22742764.385    22742763.690
  20541039.886   -21808379.65544 -16978776.24842  20541041.443    20541038.350
  23450492.899    -6763356.62443  -5259096.22042  23450495.403    23450494.378
  22280428.745   -16243109.80443 -12427209.58842  22280430.835    22280428.199
  21445532.667   -22255413.06443 -17327659.54342  21445534.828    21445530.617
 03  4  2  0 59  0.0000000  0  8G14G31G 3G17G15G 9G23G18
  20740816.476   -24489022.69844 -18805123.07742  20740819.202    20740815.266
  22573607.989    -9616868.46143  -7478890.76842  22573610.329    22573608.654
  21702827.653   -14146173.18843 -11016854.45142  21702829.790    21702827.721
  22757700.676     4895542.56443   3805858.40042  22757702.203    22757701.460
  20547878.603   -21772442.27844 -16950773.11942  20547880.145    20547877.023
  23449863.175    -6766665.83043  -5261674.80242  23449865.780    23449864.740
  22290628.364   -16189510.37443 -12385443.83242  22290630.389    22290627.951
  21455216.890   -22204522.50644 -17288004.58842  21455218.990    21455214.739
 03  4  2  0 59 30.0000000  0  8G14G31G 3G17G15G 9G23G18
  20730516.090   -24543150.97544 -18847300.89942  20730518.844    20730514.923
  22567058.366    -9651286.33543  -7505709.80842  22567060.698    22567059.191
  21705939.652   -14129819.93543 -11004111.66242  21705941.787    21705939.647
  22772691.666     4974320.05943   3867243.36242  22772693.076    22772692.423
  20554792.888   -21736107.74644 -16922460.51242  20554794.458    20554791.313
  23449340.555    -6769412.19443  -5263814.79442  23449343.137    23449341.993
  22300836.788   -16135864.55443 -12343641.90242  22300838.817    22300836.423
  21464926.827   -22153496.47343 -17248244.06442  21464928.972    21464924.602
 03  4  2  1  0  0.0000000  0  8G14G31G 3G17G15G 9G23G18
  20720313.640   -24596765.32744 -18889078.25642  20720316.375    20720312.376
  22560617.094    -9685135.26443  -7532085.53342  22560619.467    22560617.925
  21709158.035   -14112907.35943 -10990933.03742  21709160.172    21709157.939
  22787740.121     5053400.60043   3928864.49042  22787741.354    22787741.149
  20561787.594   -21699350.60344 -16893818.59342  20561789.162    20561786.017
  23448929.814    -6771569.79143  -5265496.02142  23448932.372    23448931.380
  22311058.890   -16082147.66143 -12301784.60742  22311060.878    22311058.508
  21474667.251   -22102310.34543 -17208358.78742  21474669.366    21474665.052
 03  4  2  1  0 30.0000000  0  8G14G31G 3G17G15G 9G23G18
  20710205.974   -24649881.05444 -18930467.07842  20710208.744    20710204.679
  22554281.312    -9718431.09243  -7558030.28442  22554283.680    22554281.848
  21712479.426   -14095453.26943 -10977332.45242  21712481.591    21712479.322
  22802843.221     5132767.04543   3990708.38542  22802844.302    22802844.337
  20568859.474   -21662187.35044 -16864860.22242  20568861.085    20568857.984
  23448628.199    -6773154.56143  -5266730.88042  23448630.754    23448629.762
  22321291.165   -16028376.96043 -12259885.37842  22321293.178    22321290.846
  21484434.820   -22050981.58443 -17168362.36542  21484436.916    21484432.617
 03  4  2  1  1  0.0000000  0  8G14G31G 3G17G15G 9G23G18
  20700190.958   -24702509.81444 -18971476.44742  20700193.724    20700189.660
  22548048.194    -9751185.57643  -7583553.19442  22548050.611    22548048.732
  21715901.285   -14077471.54043 -10963320.71542  21715903.444    21715901.265
  22817998.038     5212406.01343   4052764.62642  22817999.208    22817999.370
  20576006.304   -21624630.72444 -16835595.34242  20576007.859    20576004.735
  23448433.441    -6774178.23543  -5267528.51142  23448435.993    23448434.964
  22331531.096   -15974565.73243 -12217954.56842  22331533.141    22331530.732
  21494226.850   -21999523.83443 -17128265.42342  21494228.948    21494224.737
 03  4  2  1  1 30.0000000  0  8G14G31G 3G17G15G 9G23G18
  20690277.897   -24754603.49844 -19012068.87242  20690280.629    20690276.612
  22541927.350    -9783350.70143  -7608616.86542  22541929.743    22541927.907
  21719432.226   -14058915.89343 -10948861.75842  21719434.402    21719432.394
  22833213.594     5292363.90743   4115069.37942  22833214.640    22833215.013
  20583236.973   -21586633.30244 -16805986.98342  20583238.498    20583235.306
  23448354.454    -6774592.97643  -5267851.61542  23448357.020    23448355.856
  22341787.658   -15920667.49143 -12175955.97542  22341789.671    22341787.193
  21504052.214   -21947890.94343 -17088032.01842  21504054.310    21504050.184
 03  4  2  1  2  0.0000000  0  8G14G31G 3G17G15G 9G23G18
  20680463.045   -24806180.46644 -19052258.67042  20680465.770    20680461.803
  22535915.027    -9814944.87143  -7633235.64342  22535917.435    22535915.802
  21723068.734   -14039806.63243 -10933971.42742  21723070.885    21723068.784
  22848486.164     5372621.18943   4177607.43842  22848487.119    22848487.511
  20590547.872   -21548213.94944 -16776049.84742  20590549.432    20590546.290
  23448387.886    -6774417.09843  -5267714.51542  23448390.509    23448389.193
  22352057.079   -15866701.95943 -12133904.95842  22352059.097    22352056.467
  21513907.109   -21896103.05543 -17047677.82942  21513909.203    21513905.126
 03  4  2  1  2 30.0000000  0  8G14G31G 3G17G15G 9G23G18
  20670745.531   -24857246.46644 -19092050.30342  20670748.206    20670744.158
  22530010.432    -9845974.28343  -7657414.37042  22530012.832    22530010.978
  21726808.789   -14020151.97443 -10918656.10742  21726811.000    21726808.953
  22863814.139     5453169.76243   4240372.47042  22863815.100    22863815.424
  20597937.805   -21509379.61444 -16745789.33242  20597939.319    20597936.353
  23448532.564    -6773656.91043  -5267122.08642  23448535.105    23448533.968
  22362337.671   -15812676.79743 -12091807.45942  22362339.744    22362337.105
  21523790.053   -21844167.76943 -17007208.79742  21523792.137    21523788.209
 03  4  2  1  3  0.0000000  0  8G14G31G 3G17G15G 9G23G18
  20661124.022   -24907807.71444 -19131448.62642  20661126.695    20661122.636
  22524211.922    -9876445.14343  -7681157.85142  22524214.390    22524212.431
  21730651.114   -13999960.13343 -10902922.20642  21730653.323    21730651.325
  22879196.215     5534002.23243   4303358.71842  22879197.142    22879197.435
  20605405.348   -21470137.35844 -16715210.97342  20605406.841    20605403.875
  23448786.879    -6772318.85843  -5266079.42842  23448789.428    23448788.680
  22372628.239   -15758599.49743 -12049669.32342  22372630.313    22372627.732
  21533699.606   -21792092.81043 -16966630.92142  21533701.701    21533697.816
 03  4  2  1  3 30.0000000  0  8G14G31G 3G17G15G 9G23G18
  20651597.188   -24957871.51444 -19170459.32842  20651599.834    20651595.815
  22518518.243    -9906365.10543  -7704472.05942  22518520.662    22518518.840
  21734593.963   -13979240.67343 -10886777.18542  21734596.204    21734594.018
  22894630.072     5615108.81743   4366558.59042  22894631.282    22894631.635
  20612949.052   -21430495.58144 -16684321.30542  20612950.529    20612947.428
  23449149.913    -6770410.99843  -5264592.72942  23449152.427    23449151.675
  22382927.001   -15704479.14843 -12007497.64342  22382929.086    22382926.504
  21543633.898   -21739887.65043 -16925951.59742  21543635.985    21543632.035
 03  4  2  1  4  0.0000000  0  8G14G31G 3G17G15G 9G23G18
  20642169.595   -25007413.61044 -19209063.50842  20642172.235    20642168.232
  22512934.043    -9935709.98743  -7727338.15942  22512936.365    22512934.782
  21738641.418   -13957971.45143 -10870203.77842  21738643.676    21738641.375
  22910121.014     5696512.92843   4429990.25642  22910122.018    22910122.313
  20620573.145   -21390430.72444 -16653101.94942  20620574.618    20620571.523
  23449625.823    -6767908.94943  -5262643.02042  23449628.324    23449627.927
  22393238.299   -15650292.80343 -11965274.53842  22393240.370    22393237.763
  21553597.437   -21687529.33043 -16885152.92142  21553599.528    21553595.410
 03  4  2  1  4 30.0000000  0  8G14G31G 3G17G15G 9G23G18
  20632837.323   -25056454.65444 -19247277.26042  20632839.986    20632835.970
  22507455.214    -9964500.89543  -7749772.59342  22507457.542    22507455.978
  21742789.003   -13936175.43043 -10853219.86842  21742791.274    21742789.046
  22925663.906     5778191.48443   4493635.78842  22925664.993    22925665.160
  20628273.578   -21349964.53944 -16621569.87442  20628275.011    20628272.016
  23450211.053    -6764833.96243  -5260246.89842  23450213.578    23450213.255
  22403557.866   -15596062.88543 -11923017.48342  22403559.930    22403557.393
  21563585.739   -21635040.87043 -16844252.84542  21563587.866    21563583.616
 03  4  2  1  5  0.0000000  0  8G14G31G 3G17G15G 9G23G18
  20623601.662   -25104988.40444 -19285095.71742  20623604.319    20623600.249
  22502083.106    -9992731.50643  -7771770.42742  22502085.431    22502083.718
  21747037.675   -13913848.35543 -10835822.15042  21747039.902    21747037.818
  22941259.781     5860149.43743   4557499.04842  22941260.857    22941261.326
  20636051.473   -21309091.42344 -16589720.70642  20636052.860    20636050.013
  23450906.393    -6761179.73043  -5257399.42642  23450908.954    23450908.580
  22413886.611   -15541784.41343 -11880722.59642  22413888.680    22413886.373
  21573599.687   -21582417.22943 -16803247.42942  21573601.846    21573597.543
 03  4  2  1  5 30.0000000  0  8G14G31G 3G17G15G 9G23G18
  20614464.693   -25153003.24944 -19322509.83142  20614467.361    20614463.250
  22496819.824   -10020390.43043  -7793322.79242  22496822.184    22496820.277
  21751389.377   -13890980.67843 -10818003.19242  21751391.586    21751389.418
  22956911.026     5942396.73243   4621587.76442  22956911.938    22956912.707
  20643908.899   -21267800.58344 -16557546.04142  20643910.265    20643907.388
  23451714.217    -6756935.22943  -5254092.00942  23451716.738    23451715.999
  22424226.662   -15487446.98143 -11838381.75042  22424228.693    22424226.545
  21583641.128   -21529648.82443 -16762129.21542  21583643.297    21583639.026
 03  4  2  1  6  0.0000000  0  8G14G31G 3G17G15G 9G23G18
  20605425.853   -25200502.44144 -19359522.14142  20605428.505    20605424.399
  22491664.757   -10047481.20943  -7814432.45642  22491667.069    22491664.882
  21755842.857   -13867577.75443 -10799767.14842  21755845.079    21755842.880
  22972616.685     6024928.72443   4685898.31142  22972617.541    22972618.225
  20651844.982   -21226096.08144 -16525049.03542  20651846.343    20651843.549
  23452633.567    -6752104.27143  -5250327.57442  23452636.189    23452635.181
  22434577.047   -15433055.35043 -11795998.68142  22434579.102    22434576.938
  21593709.312   -21476740.59843 -16720902.04342  21593711.455    21593707.099
 03  4  2  1  6 30.0000000  0  8G14G31G 3G17G15G 9G23G18
  20596488.896   -25247466.21344 -19396117.24242  20596491.538    20596487.445
  22486621.293   -10073984.38043  -7835084.22642  22486623.670    22486621.412
  21760401.408   -13843622.06543 -10781100.38042  21760403.609    21760401.445
  22988379.824     6107763.58143   4750444.85342  22988380.821    22988381.289
  20659863.414   -21183959.02344 -16492214.98042  20659864.757    20659861.935
  23453668.188    -6746667.32543  -5246090.96942  23453670.807    23453669.660
  22444941.240   -15378591.28843 -11753559.18142  22444943.308    22444941.082
  21603807.555   -21423674.37143 -16679551.75842  21603809.713    21603805.299
 03  4  2  1  7  0.0000000  0  8G14G31G 3G17G15G 9G23G18
  20587650.561   -25293911.80944 -19432308.56542  20587653.209    20587649.044
  22481686.255   -10099917.50943  -7855291.79842  22481688.626    22481686.592
  21765061.315   -13819133.41243 -10762018.30842  21765063.491    21765061.401
  23004196.609     6190881.64843   4815212.08142  23004197.743    23004198.221
  20667960.673   -21141407.72044 -16459058.14442  20667962.038    20667959.086
  23454814.801    -6740642.06943  -5241395.87742  23454817.377    23454816.285
  22455315.630   -15324073.48043 -11711077.80342  22455317.735    22455315.427
  21613932.156   -21370469.05543 -16638093.09342  21613934.326    21613930.094
 03  4  2  1  7 30.0000000  0  8G14G31G 3G17G15G 9G23G18
  20578909.586   -25339845.36944 -19468100.89742  20578912.260    20578908.122
  22476858.703   -10125286.48743  -7875059.77242  22476861.043    22476859.170
  21769821.267   -13794119.58943 -10742527.01542  21769823.442    21769821.358
  23020065.949     6274275.86343   4880194.51042  23020067.085    23020067.723
  20676135.514   -21098448.79944 -16425583.67342  20676136.920    20676133.907
  23456071.905    -6734034.67443  -5236247.27842  23456074.578    23456073.790
  22465699.069   -15269508.82843 -11668559.91542  22465701.182    22465698.754
  21624081.949   -21317131.70243 -16596531.53842  21624084.087    21624079.894
 03  4  2  1  8  0.0000000  0  8G14G31G 3G17G15G 9G23G18
  20570269.904   -25385247.23144 -19503478.92342  20570272.509    20570268.398
  22472142.176   -10150072.09843  -7894373.21042  22472144.573    22472142.577
  21774684.576   -13768563.20043 -10722612.95142  21774686.798    21774684.587
  23035991.360     6357964.03043   4945405.95442  23035992.458    23035992.943
  20684391.582   -21055063.39844 -16391776.88742  20684392.995    20684389.919
  23457444.019    -6726825.94243  -5230630.06442  23457446.540    23457445.582
  22476094.838   -15214879.17143 -11625991.37142  22476096.967    22476094.488
  21634260.167   -21263644.49943 -16554853.21842  21634262.306    21634258.206
 03  4  2  1  8 30.0000000  0  8G14G31G 3G17G15G 9G23G18
  20561724.842   -25430151.55244 -19538469.25842  20561727.497    20561723.386
  22467530.033   -10174308.98943  -7913259.06642  22467532.428    22467530.429
  21779644.065   -13742500.72043 -10702304.51742  21779646.298    21779644.182
  23051965.905     6441910.18443   5010818.44442  23051967.081    23051967.117
  20692721.898   -21011286.76844 -16357665.23942  20692723.347    20692720.454
  23458923.580    -6719050.72343  -5224571.40342  23458926.176    23458924.999
  22486496.122   -15160220.16843 -11583399.96542  22486498.246    22486495.729
  21644460.166   -21210043.60943 -16513086.30242  21644462.316    21644458.213
 03  4  2  1  9  0.0000000  0  8G14G31G 3G17G15G 9G23G18
  20553277.115   -25474544.46344 -19573061.09042  20553279.789    20553275.682
  22463024.826   -10197983.40043  -7931706.60442  22463027.173    22463025.365
  21784702.107   -13715920.72843 -10681592.83842  21784704.330    21784702.205
  23067991.976     6526126.54343   5076441.47842  23067993.046    23067993.090
  20701129.149   -20967105.75943 -16323238.48242  20701130.575    20701127.827
  23460513.513    -6710695.42943  -5218060.77542  23460516.245    23460514.902
  22496905.481   -15105519.09443 -11540775.78142  22496907.610    22496904.919
  21654684.018   -21156316.38243 -16471220.93042  21654686.180    21654682.221
 03  4  2  1  9 30.0000000  0  8G14G31G 3G17G15G 9G23G18
  20544931.563   -25518400.51944 -19607234.59642  20544934.237    20544930.061
  22458631.531   -10221070.04543  -7949696.14542  22458633.847    22458631.977
  21789863.202   -13688799.48243 -10660459.40442  21789865.356    21789863.171
  23084073.862     6610637.32143   5142293.94542  23084075.002    23084075.135
  20709618.217   -20922495.64244 -16288477.36242  20709619.611    20709616.842
  23462218.583    -6701734.92943  -5211078.52442  23462221.325    23462219.918
  22507327.340   -15050751.52443 -11498099.78142  22507329.477    22507326.839
  21664936.619   -21102438.56543 -16429238.24342  21664938.773    21664934.764
 03  4  2  1 10  0.0000000  0  8G14G31G 3G17G15G 9G23G18
  20536685.288   -25561734.91044 -19641001.60842  20536687.940    20536683.694
  22454347.306   -10243584.29343  -7967239.67542  22454349.594    22454347.572
  21795123.830   -13661154.24243 -10638917.65542  21795125.973    21795123.770
  23100208.541     6695426.01343   5208362.95342  23100209.864    23100209.841
  20718185.953   -20877472.17544 -16253394.15642  20718187.424    20718184.576
  23464035.909    -6692184.90643  -5203636.87842  23464038.612    23464037.198
  22517758.816   -14995933.80643 -11455384.70642  22517760.938    22517758.319
  21675214.767   -21048426.97943 -16387151.32542  21675216.952    21675212.728
 03  4  2  1 10 30.0000000  0  8G14G31G 3G17G15G 9G23G18
  20528537.833   -25604550.16544 -19674364.10042  20528540.470    20528536.186
  22450171.322   -10265528.80343  -7984339.24742  22450173.688    22450171.615
  21800483.270   -13632989.73543 -10616971.28742  21800485.420    21800483.263
  23116395.406     6780488.43943   5274645.27042  23116396.691    23116396.859
  20726831.639   -20832038.66844 -16217991.43242  20726833.151    20726830.259
  23465964.599    -6682048.12243  -5195738.02642  23465967.350    23465965.802
  22528199.134   -14941069.48543 -11412633.31142  22528201.275    22528198.671
  21685517.570   -20994285.54643 -16344963.21242  21685519.779    21685515.407
 03  4  2  1 11  0.0000000  0  8G14G31G 3G17G15G 9G23G18
  20520488.566   -25646848.73943 -19707323.98542  20520491.250    20520486.969
  22446103.216   -10286906.65243  -8000997.27142  22446105.493    22446103.462
  21805940.815   -13604310.85543 -10594624.11842  21805942.952    21805940.768
  23132633.648     6865820.16843   5341137.40642  23132634.876    23132635.098
  20735554.728   -20786198.59544 -16182271.90042  20735556.224    20735553.306
  23468004.582    -6671327.55643  -5187384.29442  23468007.100    23468005.700
  22538647.541   -14886162.34043 -11369848.54542  22538649.626    22538647.166
  21695844.244   -20940018.31943 -16302677.07842  21695846.451    21695842.140
 03  4  2  1 11 30.0000000  0  8G14G31G 3G17G15G 9G23G18
  20512542.046   -25688607.69744 -19739863.38942  20512544.722    20512540.461
  22442147.192   -10307695.01943  -8017195.96442  22442149.485    22442147.555
  21811500.003   -13575096.81043 -10571859.92042  21811502.158    21811500.058
  23148926.989     6951442.68843   5407856.14842  23148928.370    23148928.567
  20744359.339   -20739929.85744 -16146218.35042  20744360.841    20744357.968
  23470159.905    -6660000.69143  -5178558.14242  23470162.484    23470161.093
  22549108.397   -14831190.38943 -11327013.28842  22549110.493    22549108.033
  21706198.999   -20885603.54543 -16260275.97442  21706201.202    21706196.952
 03  4  2  1 12  0.0000000  0  8G14G31G 3G17G15G 9G23G18
  20504693.360   -25729852.78944 -19772002.36942  20504696.032    20504691.724
  22438298.535   -10327919.83043  -8032955.52942  22438300.802    22438298.894
  21817155.817   -13545375.48943 -10548700.44742  21817157.972    21817155.773
  23165270.689     7037328.91043   5474780.37842  23165271.909    23165272.248
  20753240.590   -20693258.77044 -16109851.28242  20753242.092    20753239.223
  23472425.716    -6648093.56043  -5169279.85242  23472428.244    23472426.917
  22559576.453   -14776180.43143 -11284148.41642  22559578.566    22559576.255
  21716576.683   -20831068.41043 -16217781.08542  21716578.850    21716574.727
 03  4  2  1 12 30.0000000  0  8G14G31G 3G17G15G 9G23G18
  20496943.011   -25770580.61444 -19803738.29642  20496945.745    20496941.401
  22434557.659   -10347577.92743  -8048273.47842  22434559.888    22434558.076
  21822908.284   -13515145.61743 -10525144.70342  21822910.481    21822908.322
  23181665.276     7123481.10843   5541911.84442  23181666.407    23181666.559
  20762198.852   -20646182.65944 -16073168.60542  20762200.384    20762197.576
  23474802.492    -6635603.31343  -5159547.14342  23474804.918    23474803.665
  22570052.347   -14721130.06943 -11241252.06242  22570054.380    22570052.146
  21726977.705   -20776410.78443 -16175190.74042  21726979.850    21726975.753
 03  4  2  1 13  0.0000000  0  8G14G31G 3G17G15G 9G23G18
  20489294.734   -25810772.30043 -19835056.44942  20489297.422    20489293.161
  22430928.197   -10366650.81143  -8063135.45442  22430930.424    22430928.445
  21828760.868   -13484390.38643 -10501179.59542  21828762.996    21828760.818
  23198113.170     7209916.12443   5609263.71842  23198114.264    23198114.649
  20771237.807   -20598683.31144 -16036156.14142  20771239.282    20771236.441
  23477293.787    -6622511.68143  -5149345.85542  23477296.184    23477295.039
  22580539.158   -14666021.37543 -11198310.24342  22580541.239    22580539.079
  21737405.437   -20721612.84143 -16132491.06842  21737407.617    21737403.521
 03  4  2  1 13 30.0000000  0  8G14G31G 3G17G15G 9G23G18
  20481748.125   -25850430.14544 -19865958.62742  20481750.799    20481746.510
  22427409.626   -10385140.95543  -8077543.34042  22427411.978    22427409.842
  21834712.573   -13453114.21843 -10476808.56642  21834714.735    21834712.414
  23214614.216     7296630.43143   5676833.19542  23214615.268    23214615.909
  20780356.520   -20550763.92444 -15998816.37042  20780358.078    20780355.286
  23479899.037    -6608821.34743  -5138678.01942  23479901.345    23479900.150
  22591036.539   -14610857.65943 -11155325.56542  22591038.582    22591036.474
  21747859.231   -20666678.23643 -16089684.90742  21747861.384    21747857.250
 03  4  2  1 14  0.0000000  0  8G14G31G 3G17G15G 9G23G18
  20474302.155   -25889559.18544 -19896448.73342  20474304.823    20474300.418
  22424000.817   -10403053.68643  -8091501.26642  22424003.163    22424001.153
  21840761.983   -13421324.47843 -10452037.35442  21840764.186    21840761.899
  23231167.584     7383617.73343   5744615.39842  23231168.584    23231168.920
  20789554.269   -20502430.13044 -15961153.69742  20789555.787    20789552.939
  23482617.079    -6594537.78443  -5127547.96642  23482619.356    23482618.312
  22601543.273   -14555644.82243 -11112302.61042  22601545.361    22601543.102
  21758337.701   -20611613.37743 -16046777.23942  21758339.865    21758335.740
 03  4  2  1 14 30.0000000  0  8G14G31G 3G17G15G 9G23G18
  20466957.867   -25928153.24844 -19926521.98642  20466960.551    20466956.189
  22420703.186   -10420383.13643  -8105004.70742  22420705.498    22420703.453
  21846909.842   -13389017.03143 -10426862.72442  21846912.023    21846909.895
  23247773.507     7470882.43943   5812613.76642  23247774.585    23247774.860
  20798831.617   -20453676.69844 -15923164.02542  20798833.174    20798830.293
  23485448.988    -6579655.39143  -5115951.28342  23485451.333    23485450.359
  22612060.150   -14500377.81743 -11069237.44042  22612062.293    22612059.985
  21768841.987   -20556413.12143 -16003764.07942  21768844.117    21768840.024
 03  4  2  1 15  0.0000000  0  8G14G31G 3G17G15G 9G23G18
  20459708.651   -25966247.47243 -19956205.75942  20459711.364    20459707.071
  22417509.762   -10437164.71043  -8118081.23542  22417511.946    22417509.890
  21853149.168   -13356229.32743 -10401313.88342  21853151.303    21853149.101
  23264424.956     7558387.49043   5880799.45142  23264426.114    23264426.714
  20808182.241   -20404539.14744 -15884875.04442  20808183.696    20808180.848
  23488388.347    -6564209.57843  -5103915.52942  23488390.672    23488389.738
  22622580.453   -14445092.58543 -11026158.06242  22622582.531    22622580.271
  21779365.197   -20501113.60243 -15960673.56742  21779367.355    21779363.220
 03  4  2  1 15 30.0000000  0  8G14G31G 3G17G15G 9G23G18
  20452561.947   -26003803.78044 -19985470.37042  20452564.597    20452560.272
  22414427.676   -10453360.74443  -8130701.50042  22414429.835    22414427.770
  21859486.637   -13322925.36243 -10375362.75242  21859488.809    21859486.588
  23281129.820     7646170.33843   5949201.56742  23281130.685    23281131.471
  20817613.027   -20354980.20044 -15846257.69942  20817614.496    20817611.644
  23491441.650    -6548162.95643  -5091411.65342  23491444.035    23491443.283
  22633111.441   -14389751.80843 -10983035.40142  22633113.497    22633111.373
  21789914.176   -20445678.17943 -15917477.15442  21789916.333    21789912.150
 03  4  2  1 16  0.0000000  0  8G14G31G 3G17G15G 9G23G18
  20445515.426   -26040833.74044 -20014324.83442  20445518.071    20445513.688
  22411454.965   -10468983.03743  -8142874.70642  22411457.101    22411455.004
  21865919.838   -13289118.94143 -10349020.10542  21865921.981    21865919.765
  23297884.584     7734217.40443   6017809.56542  23297885.423    23297886.363
  20827121.674   -20305012.07444 -15807321.52342  20827123.100    20827120.320
  23494607.335    -6531527.43043  -5078448.86342  23494609.745    23494608.877
  22643650.742   -14334367.85043 -10939879.09342  22643652.765    22643650.805
  21800486.611   -20390119.68043 -15874184.82642  21800488.736    21800484.650
 03  4  2  1 16 30.0000000  0  8G14G31G 3G17G15G 9G23G18
  20438574.760   -26077306.89443 -20042745.43342  20438577.433    20438573.071
  22408597.027   -10484001.23443  -8154577.16942  22408599.220    22408597.197
  21872453.953   -13254781.64043 -10322263.77442  21872456.135    21872454.009
  23314695.159     7822557.67143   6086646.02742  23314695.936    23314696.989
  20836713.771   -20254605.12544 -15768043.40642  20836715.220    20836712.439
  23497890.697    -6514272.91643  -5065003.77642  23497893.200    23497892.402
  22654203.889   -14278911.15043 -10896666.10642  22654205.941    22654203.943
  21811088.022   -20334408.51443 -15830773.54842  21811090.143    21811086.218
 03  4  2  1 17  0.0000000  0  8G14G31G 3G17G15G 9G23G18
  20431735.513   -26113246.65743 -20070750.40642  20431738.196    20431733.922
  22405849.718   -10498439.09043  -8165827.44142  22405851.975    22405849.795
  21879084.209   -13219939.20443 -10295113.84442  21879086.339    21879084.328
  23331557.166     7911166.79643   6155691.99542  23331557.937    23331558.944
  20846384.849   -20203783.26844 -15728441.98842  20846386.281    20846383.622
  23501287.443    -6496423.56843  -5051095.12042  23501289.904    23501288.981
  22664766.265   -14223405.87243 -10853415.25742  22664768.373    22664766.094
  21821713.957   -20278569.05443 -15787262.30142  21821716.092    21821712.159
 03  4  2  1 17 30.0000000  0  8G14G31G 3G17G15G 9G23G18
  20424988.541   -26148702.13943 -20098378.01442  20424991.207    20424986.915
  22403203.191   -10512346.06043  -8176664.02342  22403205.479    22403203.342
  21885800.994   -13184642.96143 -10267610.29642  21885803.070    21885801.025
  23348460.521     7999993.76243   6224907.72442  23348461.269    23348462.379
  20856125.445   -20152596.26244 -15688556.02942  20856126.869    20856124.175
  23504787.792    -6478028.89843  -5036761.51342  23504790.357    23504789.445
  22675328.285   -14167901.70043 -10810165.28842  22675330.420    22675328.080
  21832354.693   -20222651.45143 -15743690.15542  21832356.813    21832352.941
 03  4  2  1 18  0.0000000  0  8G14G31G 3G17G15G 9G23G18
  20418347.196   -26183602.71543 -20125573.22642  20418349.833    20418345.446
  22400671.095   -10525651.81943  -8187032.11842  22400673.330    22400671.310
  21892616.985   -13148824.39743 -10239699.73542  21892619.110    21892617.220
  23365418.594     8089107.94043   6294347.24642  23365419.338    23365420.555
  20865948.800   -20100974.01244 -15648330.92342  20865950.277    20865947.464
  23508405.349    -6459018.66743  -5021948.30842  23508407.904    23508406.856
  22685903.401   -14112328.85143 -10766861.76642  22685905.580    22685903.308
  21843023.637   -20166586.15543 -15700002.91942  21843025.744    21843021.841
 03  4  2  1 18 30.0000000  0  8G14G31G 3G17G15G 9G23G18
  20411807.702   -26217967.98444 -20152351.32042  20411810.345    20411805.892
  22398249.754   -10538376.29543  -8196947.27942  22398251.923    22398249.854
  21899528.267   -13112505.18243 -10211399.06442  21899530.358    21899528.539
  23382427.144     8178488.53043   6363994.38342  23382428.055    23382429.269
  20875851.174   -20048936.96144 -15607782.60642  20875852.626    20875849.837
  23512136.158    -6439413.25643  -5006671.31242  23512138.795    23512137.556
  22696487.752   -14056707.51143 -10723520.49542  22696489.862    22696487.680
  21853716.715   -20110393.66843 -15656216.58542  21853718.841    21853714.946
 03  4  2  1 19  0.0000000  0  8G14G31G 3G17G15G 9G23G18
  20405370.853   -26251793.67043 -20178708.96642  20405373.476    20405369.065
  22395939.759   -10550515.53543  -8206406.42342  22395941.934    22395939.756
  21906535.353   -13075683.18743 -10182706.62742  21906537.416    21906535.406
  23399487.183     8268138.72543   6433851.56542  23399488.128    23399489.066
  20885833.057   -19996481.61144 -15566908.31942  20885834.478    20885831.742
  23515980.866    -6419208.80743  -4990927.54242  23515983.507    23515982.461
  22707082.203   -14001034.01243 -10680138.57042  22707084.280    22707081.812
  21864434.785   -20054070.55943 -15612328.46542  21864436.899    21864432.844
 03  4  2  1 19 30.0000000  0  8G14G31G 3G17G15G 9G23G18
  20399035.817   -26285084.45944 -20204649.81142  20399038.400    20399034.003
  22393740.271   -10562074.45043  -8215413.36142  22393742.493    22393740.240
  21913636.720   -13038365.33143 -10153627.79942  21913638.778    21913636.752
  23416597.512     8358052.36043   6503913.98842  23416598.599    23416598.846
  20895893.721   -19943612.99544 -15525712.02942  20895895.104    20895892.311
  23519938.829    -6398410.44343  -4974720.94042  23519941.433    23519940.153
  22717685.440   -13945313.73243 -10636720.19142  22717687.538    22717685.100
  21875176.460   -19997622.55543 -15568343.01642  21875178.627    21875174.501
 03  4  2  1 20  0.0000000  0  8G14G31G 3G17G15G 9G23G18
  20392799.512   -26317856.29144 -20230186.26342  20392802.157    20392797.641
  22391647.863   -10573069.53043  -8223980.93842  22391650.151    22391647.936
  21920828.988   -13000569.79443 -10124176.76342  21920831.033    21920829.035
  23433754.306     8448211.93843   6574168.08842  23433755.486    23433755.756
  20906029.714   -19890347.81544 -15484206.70542  20906031.126    20906028.368
  23524006.426    -6377034.75443  -4958064.56142  23524008.991    23524007.838
  22728294.465   -13889563.32943 -10593278.33742  22728296.537    22728294.320
  21885938.665   -19941066.72543 -15524273.54042  21885940.847    21885936.615
 03  4  2  1 20 30.0000000  0  8G14G31G 3G17G15G 9G23G18
  20386665.122   -26350092.73443 -20255305.53142  20386667.767    20386663.256
  22389665.966   -10583484.48443  -8232096.48542  22389668.235    22389665.903
  21928114.960   -12962282.09143 -10094342.21942  21928116.926    21928115.017
  23450960.757     8538632.38443   6644625.48242  23450961.889    23450962.578
  20916244.256   -19836670.06044 -15442379.90342  20916245.655    20916242.890
  23528186.861    -6355065.86943  -4940945.90242  23528189.557    23528188.496
  22738912.290   -13833766.68643 -10549800.42542  22738914.377    22738912.279
  21896724.403   -19884387.17943 -15480107.66942  21896726.614    21896722.345
 03  4  2  1 21  0.0000000  0  8G14G31G 3G17G15G 9G23G18
  20380632.154   -26381796.23144 -20280009.51942  20380634.795    20380630.283
  22387793.908   -10593322.05043  -8239762.11642  22387796.160    22387793.836
  21935493.745   -12923506.67143 -10064127.64142  21935495.738    21935493.759
  23468216.161     8629310.48243   6715283.65442  23468217.339    23468218.402
  20926536.765   -19782583.00444 -15400234.16142  20926538.201    20926535.292
  23532479.689    -6332506.72743  -4923367.31842  23532482.365    23532481.264
  22749538.109   -13777926.76143 -10506288.79842  22749540.270    22749538.250
  21907533.117   -19827587.38243 -15435848.10042  21907535.331    21907531.006
 03  4  2  1 21 30.0000000  0  8G14G31G 3G17G15G 9G23G18
  20374699.155   -26412974.10244 -20304303.92142  20374701.839    20374697.302
  22386030.287   -10602589.87443  -8246983.77442  22386032.529    22386030.368
  21942963.607   -12884252.95243 -10033540.37642  21942965.594    21942963.502
  23485519.022     8720237.28943   6786135.61342  23485520.111    23485521.379
  20936905.667   -19728094.40144 -15357775.52842  20936907.115    20936904.210
  23536883.681    -6309365.02443  -4905334.78442  23536886.295    23536884.793
  22760170.957   -13722051.36743 -10462749.55842  22760173.038    22760170.951
  21918363.061   -19770675.37843 -15391501.09942  21918365.308    21918361.055
 03  4  2  1 22  0.0000000  0  8G14G31G 3G17G15G 9G23G18
  20368867.227   -26443620.42344 -20328184.13942  20368869.929    20368865.456
  22384376.283   -10611282.33043  -8253757.11942  22384378.588    22384376.279
  21950524.986   -12844517.41143 -10002577.65842  21950527.046    21950525.050
  23502870.146     8811417.43143   6857184.95342  23502871.276    23502872.318
  20947351.894   -19673198.73243 -15314999.70042  20947353.348    20947350.572
  23541399.184    -6285635.56643  -4886844.29042  23541401.887    23541400.545
  22770811.504   -13666135.05043 -10419178.41342  22770813.604    22770811.488
  21929215.403   -19713645.80443 -15347062.50142  21929217.619    21929213.489
 03  4  2  1 22 30.0000000  0  8G14G31G 3G17G15G 9G23G18
  20363138.292   -26473726.37944 -20351643.28342  20363140.999    20363136.412
  22382833.171   -10619391.03443  -8260075.58142  22382835.529    22382833.122
  21958179.254   -12804293.50543  -9971234.38442  21958181.333    21958179.501
  23520270.533     8902858.19743   6928437.35742  23520271.696    23520272.737
  20957877.256   -19617888.05944 -15271900.49142  20957878.667    20957875.854
  23546028.013    -6261309.94143  -4867889.23742  23546030.702    23546029.505
  22781461.288   -13610169.50843 -10375568.93142  22781463.393    22781461.269
  21940091.643   -19656490.84043 -15302526.17842  21940093.847    21940089.813
 03  4  2  1 23  0.0000000  0  8G14G31G 3G17G15G 9G23G18
  20357513.010   -26503287.07143 -20374677.54842  20357515.714    20357511.172
  22381401.919   -10626911.56143  -8265935.69742  22381404.260    22381402.002
  21965927.210   -12763578.49343  -9939508.45042  21965929.218    21965927.238
  23537721.583     8994563.50343   6999895.91142  23537722.620    23537723.876
  20968482.314   -19562158.33244 -15228474.73942  20968483.717    20968480.966
  23550771.316    -6236383.92243  -4848466.33542  23550773.997    23550772.579
  22792121.497   -13554150.38343 -10331917.70042  22792123.525    22792121.194
  21950992.455   -19599206.47243 -15257889.01542  21950994.665    21950990.730
 03  4  2  1 23 30.0000000  0  8G14G31G 3G17G15G 9G23G18
  20351990.869   -26532306.37944 -20397289.95142  20351993.551    20351988.968
  22380082.061   -10633847.94843  -8271340.66842  22380084.327    22380081.860
  21973767.501   -12722378.05243  -9907404.25342  21973769.506    21973767.310
  23555222.107     9086528.23543   7071556.64042  23555223.228    23555224.494
  20979166.307   -19506013.66844 -15184725.67142  20979167.721    20979164.915
  23555627.866    -6210862.06843  -4828579.21742  23555630.514    23555629.150
  22802791.031   -13498081.83643 -10288227.93742  22802793.082    22802790.682
  21961917.152   -19541797.03643 -15213154.41742  21961919.361    21961915.427
 03  4  2  1 24  0.0000000  0  8G14G31G 3G17G15G 9G23G18
  20346566.922   -26560809.10243 -20419499.82442  20346569.643    20346565.045
  22378868.412   -10640225.40543  -8276310.09642  22378870.647    22378868.167
  21981694.808   -12680718.95743  -9874942.65342  21981696.884    21981694.801
  23572766.753     9178726.17743   7143399.08642  23572768.028    23572769.390
  20989924.446   -19449479.19444 -15140672.85342  20989925.896    20989923.001
  23560593.173    -6184769.66443  -4808247.44642  23560595.792    23560594.411
  22813465.262   -13441988.92543 -10244519.21142  22813467.329    22813464.905
  21972860.844   -19484288.01343 -15168342.22042  21972863.063    21972859.072
 03  4  2  1 24 30.0000000  0  8G14G31G 3G17G15G 9G23G18
  20341245.443   -26588773.49344 -20441290.21742  20341248.153    20341243.556
  22377765.262   -10646022.66143  -8280827.43742  22377767.529    22377765.045
  21989713.156   -12638582.10843  -9842108.78442  21989715.236    21989713.308
  23590359.611     9271177.89143   7215439.27642  23590360.800    23590362.334
  21000760.784   -19392534.14444 -15096300.10242  21000762.238    21000759.294
  23565670.648    -6158085.57243  -4787454.67642  23565673.273    23565672.168
  22824148.175   -13385850.49443 -10200775.01442  22824150.260    22824147.729
  21983827.529   -19426658.31943 -15123436.00442  21983829.699    21983825.659
 03  4  2  1 25  0.0000000  0  8G14G31G 3G17G15G 9G23G18
  20336025.275   -26616205.35944 -20462665.65342  20336028.008    20336023.392
  22376771.392   -10651245.65443  -8284897.29542  22376773.693    22376771.219
  21997821.269   -12595975.15343  -9808908.61342  21997823.244    21997821.202
  23607999.729     9363876.82943   7287672.09042  23608000.761    23608002.397
  21011674.044   -19335184.59043 -15051612.15842  21011675.493    21011672.514
  23570859.929    -6130815.95343  -4766205.62042  23570862.429    23570861.348
  22834838.562   -13329672.33943 -10156999.86942  22834840.715    22834838.038
  21994815.813   -19368914.28443 -15078440.68142  21994817.978    21994813.936
 03  4  2  1 25 30.0000000  0  8G14G31G 3G17G15G 9G23G18
  20330905.381   -26643110.61544 -20483630.74342  20330908.089    20330903.422
  22375885.513   -10655900.75443  -8288524.64442  22375887.763    22375885.319
  22006016.873   -12552906.22643  -9775348.44142  22006018.934    22006016.829
  23625685.660     9456815.37443   7360091.60542  23625686.603    23625688.026
  21022662.932   -19277437.14143 -15006614.15942  21022664.378    21022661.523
  23576158.944    -6102967.63643  -4744505.63742  23576161.441    23576160.494
  22845535.242   -13273460.89943 -10113198.77342  22845537.386    22845534.788
  22005824.675   -19311062.25443 -15033361.20542  22005826.757    22005822.840
 03  4  2  1 26  0.0000000  0  8G14G31G 3G17G15G 9G23G18
  20325890.360   -26669464.49944 -20504166.20442  20325893.063    20325888.415
  22375112.399   -10659963.64343  -8291690.53542  22375114.586    22375112.223
  22014304.917   -12509352.72243  -9741410.69542  22014306.912    22014304.736
  23643421.575     9550017.23543   7432716.31242  23643422.518    23643423.747
  21033732.376   -19219267.49444 -14961287.18642  21033733.811    21033730.937
  23581573.208    -6074516.42943  -4722335.82242  23581575.523    23581574.483
  22856242.947   -13217191.55943 -10069352.57042  22856245.045    22856242.499
  22016858.613   -19253078.44343 -14988179.04742  22016860.691    22016856.811
 03  4  2  1 26 30.0000000  0  8G14G31G 3G17G15G 9G23G18
  20320976.010   -26695289.61944 -20524289.64242  20320978.689    20320974.004
  22374447.651   -10663457.02343  -8294412.65342  22374449.852    22374447.556
  22022680.390   -12465339.05543  -9707114.35442  22022682.402    22022680.442
  23661203.201     9643458.67043   7505527.69542  23661204.231    23661205.325
  21044877.670   -19160698.48044 -14915649.01342  21044879.168    21044876.255
  23587097.721    -6045485.60043  -4699714.33142  23587100.068    23587098.798
  22866957.202   -13160886.98243 -10025478.88942  22866959.289    22866956.987
  22027913.384   -19194985.56243 -14942911.90442  22027915.459    22027911.523
 03  4  2  1 27  0.0000000  0  8G14G31G 3G17G15G 9G23G18
  20316164.598   -26720573.61544 -20543991.42242  20316167.302    20316162.546
  22373893.530   -10666368.98343  -8296681.71742  22373895.762    22373893.508
  22031145.431   -12420855.00943  -9672451.49142  22031147.440    22031145.666
  23679032.398     9737150.88643   7578534.50042  23679033.570    23679034.561
  21056101.185   -19101718.55843 -14869690.65542  21056102.643    21056099.738
  23592734.445    -6015863.16543  -4676631.94242  23592736.871    23592735.815
  22877680.595   -13104535.10643  -9981568.35342  22877682.619    22877680.460
  22038990.983   -19136771.79243 -14897550.55542  22038993.109    22038989.230
 03  4  2  1 27 30.0000000  0  8G14G31G 3G17G15G 9G23G18
  20311452.972   -26745333.03443 -20563284.44842  20311455.676    20311451.006
  22373446.633   -10668716.66043  -8298511.07042  22373448.927    22373446.774
  22039696.417   -12375919.72543  -9637437.02542  22039698.429    22039696.569
  23696905.796     9831075.99743   7651722.78742  23696906.950    23696907.957
  21067399.683   -19042344.85144 -14823425.45942  21067401.129    21067398.155
  23598480.634    -5985666.27843  -4653101.89442  23598483.003    23598482.202
  22888409.748   -13048152.62443  -9937633.95642  22888411.752    22888409.925
  22050088.515   -19078454.49443 -14852108.55842  22050090.589    22050086.688
 03  4  2  1 28  0.0000000  0  8G14G31G 3G17G15G 9G23G18
  20306842.238   -26769562.80644 -20582164.75642  20306844.891    20306840.267
  22373108.200   -10670495.32143  -8299897.02942  22373110.448    22373108.244
  22048333.951   -12330529.88543  -9602068.36442  22048335.982    22048334.029
  23714824.298     9925237.91343   7725095.58042  23714825.413    23714826.390
  21078773.934   -18982572.62543 -14776849.71742  21078775.448    21078772.423
  23604336.660    -5954890.83443  -4629121.01842  23604339.038    23604338.578
  22899145.666   -12991734.80843  -9893672.03642  22899147.675    22899146.133
  22061206.548   -19020028.99543 -14806582.23442  22061208.602    22061204.637
 03  4  2  1 28 30.0000000  0  8G14G31G 3G17G15G 9G23G18
  20302335.794   -26793244.11543 -20600617.69642  20302338.431    20302333.839
  22372881.513   -10671686.54143  -8300825.25342  22372883.729    22372881.516
  22057061.138   -12284668.55043  -9566332.29842  22057063.204    22057061.190
  23732791.148    10019654.24043   7798666.62842  23732792.325    23732793.245
  21090227.500   -18922383.53043 -14729949.14342  21090228.940    21090226.061
  23610306.846    -5923518.63743  -4604675.10842  23610309.027    23610308.302
  22909891.910   -12935262.85343  -9849667.93342  22909893.952    22909892.430
  22072348.633   -18961476.94243 -14760957.28842  22072350.681    22072346.788
 03  4  2  1 29  0.0000000  0  8G14G31G 3G17G15G 9G23G18
  20297934.946   -26816370.89844 -20618638.53242  20297937.551    20297932.932
  22372767.721   -10672284.55143  -8301291.22542  22372769.910    22372767.679
  22065878.644   -12238331.64843  -9530225.65942  22065880.766    22065878.864
  23750807.375    10114330.31643   7872440.06942  23750808.584    23750809.748
  21101761.515   -18861772.03643 -14682719.42342  21101762.917    21101760.061
  23616391.101    -5891543.80143  -4579759.60442  23616393.346    23616392.922
  22920649.675   -12878730.67443  -9805616.91542  22920651.714    22920650.114
  22083515.906   -18902792.30843 -14715229.02042  22083517.968    22083514.218
 03  4  2  1 29 30.0000000  0  8G14G31G 3G17G15G 9G23G18
  20293630.890   -26838988.64543 -20636262.71342  20293633.487    20293628.871
  22372758.204   -10672335.27743  -8301330.73742  22372760.381    22372758.025
  22074777.609   -12191567.23243  -9493785.90442  22074779.782    22074777.826
  23768864.527    10209219.36843   7946379.47742  23768865.540    23768867.028
  21113367.050   -18800784.18243 -14635196.44442  21113368.450    21113365.628
  23622581.488    -5859012.52143  -4554410.54742  23622583.533    23622583.648
  22931410.197   -12822184.01943  -9761554.60542  22931412.273    22931410.664
  22094699.769   -18844020.99443 -14669433.21642  22094701.828    22094698.037
 03  4  2  1 30  0.0000000  0  8G14G31G 3G17G15G 9G23G18
  20289427.558   -26861077.15544 -20653474.50842  20289430.122    20289425.555
  22372856.411   -10671818.95443  -8300928.38642  22372858.631    22372856.371
  22083761.367   -12144357.05443  -9456998.79042  22083763.551    22083761.669
  23786965.774    10304340.37343   8020499.61642  23786966.789    23786968.178
  21125048.007   -18739400.17443 -14587364.77442  21125049.374    21125046.638
  23628881.546    -5825905.50843  -4528612.83942  23628883.463    23628883.805
  22942177.367   -12765602.62343  -9717465.23042  22942179.474    22942177.669
  22105903.757   -18785143.48543 -14623554.64842  22105905.812    22105901.913
 03  4  2  1 30 30.0000000  0  8G14G31G 3G17G15G 9G23G18
  20285331.160   -26882603.82644 -20670248.50542  20285333.719    20285329.163
  22373068.540   -10670703.32443  -8300059.02942  22373070.757    22373068.690
  22092835.992   -12096670.49043  -9419840.47942  22092838.138    22092836.153
  23805116.929    10399724.82543   8094825.00742  23805118.026    23805119.031
  21136810.609   -18677587.54943 -14539199.11942  21136811.962    21136809.187
  23635297.032    -5792190.54743  -4502341.39842  23635299.072    23635299.372
  22952957.387   -12708953.58643  -9673323.16542  22952959.529    22952957.504
  22117134.133   -18726127.15343 -14577567.93242  22117136.222    22117132.334
 03  4  2  1 31  0.0000000  0  8G14G31G 3G17G15G 9G23G18
  20281329.772   -26903631.18144 -20686633.41942  20281332.324    20281327.718
  22373383.033   -10669051.12043  -8298771.60542  22373385.245    22373382.998
  22101988.801   -12048572.12043  -9382361.26842  22101990.960    22101989.007
  23823305.942    10495309.08643   8169306.14242  23823307.067    23823308.110
  21148642.718   -18615409.52543 -14490748.73942  21148644.060    21148641.332
  23641816.083    -5757930.90743  -4475645.53142  23641818.087    23641818.827
  22963738.402   -12652299.41643  -9629177.09742  22963740.511    22963738.479
  22128379.174   -18667034.87443 -14531522.00942  22128381.280    22128377.252
 03  4  2  1 31 30.0000000  0  8G14G31G 3G17G15G 9G23G18
  20277432.612   -26924110.67244 -20702591.42642  20277435.196    20277430.519
  22373808.715   -10666814.39643  -8297028.70242  22373810.977    22373808.614
  22111228.966   -12000015.36743  -9344524.88442  22111231.058    22111229.102
  23841542.381    10591141.20443   8243980.41142  23841543.532    23841544.432
  21160553.408   -18552818.09343 -14441976.21042  21160554.717    21160552.212
  23648448.491    -5723078.93643  -4448488.12942  23648450.251    23648451.013
  22974529.607   -12595591.50343  -9584989.14042  22974531.709    22974529.726
  22139647.831   -18607818.18143 -14485379.15542  22139649.962    22139645.850
 03  4  2  1 32  0.0000000  0  8G14G31G 3G17G15G 9G23G18
  20273638.323   -26944049.60744 -20718128.21942  20273640.915    20273636.224
  22374343.900   -10664001.00843  -8294836.42742  22374346.207    22374344.057
  22120554.349   -11951009.80043  -9306338.77342  22120556.457    22120554.491
  23859824.383    10687212.28543   8318840.86042  23859825.450    23859826.296
  21172541.389   -18489821.05943 -14392887.64242  21172542.658    21172540.250
  23655191.679    -5687642.58143  -4420875.35642  23655193.555    23655194.269
  22985329.471   -12538837.19743  -9540765.01442  22985331.548    22985329.737
  22150938.674   -18548484.85943 -14439145.41142  22150940.800    22150936.623
 03  4  2  1 32 30.0000000  0  8G14G31G 3G17G15G 9G23G18
  20269944.449   -26963460.86844 -20733253.83942  20269947.041    20269942.312
  22374986.648   -10660624.09943  -8292205.06342  22374988.887    22374986.699
  22129962.377   -11901570.11343  -9267814.38142  22129964.478    22129962.601
  23878148.609    10783508.58543   8393876.85542  23878149.794    23878150.916
  21184603.995   -18426431.29843 -14343493.04042  21184605.250    21184602.943
  23662043.957    -5651635.17343  -4392817.63142  23662045.851    23662046.408
  22996135.829   -12482049.26743  -9496514.69742  22996137.791    22996136.175
  22162249.086   -18489048.07043 -14392831.03142  22162251.221    22162247.191
 03  4  2  1 33  0.0000000  0  8G14G31G 3G17G15G 9G23G18
  20266356.115   -26982317.12943 -20747946.98842  20266358.756    20266354.026
  22375741.692   -10656656.80843  -8289113.65942  22375743.891    22375741.563
  22139457.975   -11851671.11043  -9228932.09742  22139460.068    22139458.151
  23896521.002    10880056.25143   8469108.68842  23896521.853    23896523.322
  21196746.594   -18362622.11644 -14293771.62942  21196747.795    21196745.489
  23669009.652    -5615030.00843  -4364294.14742  23669011.648    23669011.676
  23006953.857   -12425200.19243  -9452216.73342  23006955.822    23006954.156
  22173584.395   -18429480.66243 -14346414.88042  22173586.548    22173582.650
 03  4  2  1 33 30.0000000  0  8G14G31G 3G17G15G 9G23G18
  20262865.624   -27000659.85644 -20762239.98942  20262868.260    20262863.528
  22376600.879   -10652141.04343  -8285594.85542  22376603.153    22376600.788
  22149032.702   -11801356.39943  -9189725.87342  22149034.807    22149032.845
  23914933.444    10976813.12743   8544503.50842  23914934.012    23914935.681
  21208961.030   -18298435.36043 -14243756.01242  21208962.301    21208959.860
  23676081.266    -5577869.28943  -4335337.67442  23676083.290    23676083.285
  23017775.562   -12368331.47043  -9407903.46242  23017777.464    23017775.810
  22184936.706   -18369824.09743 -14299929.25942  22184938.868    22184934.925
 03  4  2  1 34  0.0000000  0  8G14G31G 3G17G15G 9G23G18
  20259474.513   -27018480.71644 -20776126.33642  20259477.144    20259472.348
  22377566.123   -10647068.83943  -8281642.48842  22377568.426    22377565.984
  22158687.547   -11750619.58743  -9150190.73642  22158689.688    22158687.887
  23933386.728    11073786.27343   8620066.90542  23933387.270    23933389.180
  21221248.695   -18233863.14343 -14193440.02742  21221250.033    21221247.586
  23683260.063    -5540145.22943  -4305942.28442  23683262.039    23683262.004
  23028602.767   -12311434.43543  -9363568.14442  23028604.751    23028602.839
  22196307.607   -18310070.22843 -14253367.81542  22196309.764    22196305.734
 03  4  2  1 34 30.0000000  0  8G14G31G 3G17G15G 9G23G18
  20256182.955   -27035777.12143 -20789604.02842  20256185.623    20256180.866
  22378637.434   -10641438.27843  -8277255.00742  22378639.779    22378637.565
  22168422.830   -11699460.24443  -9110326.35942  22168424.946    22168423.240
  23951881.933    11170977.12643   8695799.90142  23951882.438    23951884.374
  21233610.168   -18168903.38243 -14142822.05342  21233611.472    21233609.141
  23690546.557    -5501856.28443  -4276106.70342  23690548.696    23690548.196
  23039435.896   -12254506.34943  -9319208.61642  23039437.899    23039435.899
  22207697.281   -18250216.67243 -14206728.68342  22207699.490    22207695.463
 03  4  2  1 35  0.0000000  0  8G14G31G 3G17G15G 9G23G18
  20252999.963   -27052503.87244 -20802637.82542  20253002.613    20252997.789
  22379823.591   -10635204.21543  -8272397.26142  22379825.913    22379824.065
  22178246.748   -11647835.20643  -9070099.10242  22178248.859    22178247.117
  23970426.816    11268430.11443   8771737.18742  23970427.527    23970429.105
  21246053.748   -18103510.89643 -14091866.87542  21246055.063    21246052.923
  23697948.555    -5462957.58253  -4245796.12852  23697950.334    23697950.273
  23050283.573   -12197501.53243  -9274789.28042  23050285.622    23050283.659
  22219114.529   -18190218.03143 -14159976.49042  22219116.713    22219112.824
 03  4  2  1 35 30.0000000  0  8G14G31G 3G17G15G 9G23G18
  20249914.812   -27068716.75844 -20815271.21142  20249917.458    20249912.557
  22381114.274   -10628423.04443  -8267113.24342  22381116.479    22381114.307
  22188148.404   -11595802.11043  -9029553.88242  22188150.431    22188148.593
  23989010.756    11366088.73243   8847834.69142  23989011.681    23989012.744
  21258569.286   -18037741.89743 -14040618.34242  21258570.513    21258568.336
  23705455.720    -5423505.87143  -4215054.57142  23705457.841    23705457.856
  23061135.288   -12140475.63743  -9230353.53042  23061137.376    23061135.415
  22230548.882   -18130130.36843 -14113154.93942  22230551.002    22230547.099
 03  4  2  1 36  0.0000000  0  8G14G31G 3G17G15G 9G23G18
  20246928.438   -27084409.80143 -20827499.52842  20246931.118    20246926.224
  22382509.805   -10621089.34843  -8261398.65942  22382511.970    22382509.801
  22198128.449   -11543356.90843  -8988687.54642  22198130.492    22198128.640
  24007634.593    11463957.90843   8924096.28642  24007635.617    24007636.767
  21271157.402   -17971591.12643 -13989072.32842  21271158.640    21271156.408
  23713069.792    -5383495.71243  -4183877.83442  23713071.930    23713071.504
  23071992.335   -12083422.44643  -9185896.50242  23071994.392    23071992.281
  22242001.357   -18069947.54743 -14066259.22442  22242003.471    22241999.471
 03  4  2  1 36 30.0000000  0  8G14G31G 3G17G15G 9G23G18
  20244050.857   -27099531.53144 -20839282.66942  20244053.542    20244048.685
  22384020.257   -10613152.02143  -8255213.71742  22384022.390    22384020.025
  22208196.031   -11490450.45343  -8947461.76642  22208198.119    22208196.419
  24026308.126    11562087.71843   9000560.94542  24026309.298    24026310.316
  21283827.814   -17905007.50343 -13937189.00542  21283829.106    21283826.859
  23720799.462    -5342876.55443  -4152226.50442  23720801.754    23720800.797
  23082864.150   -12026290.24343  -9141377.92342  23082866.211    23082864.033
  22253481.639   -18009618.47143 -14019249.56342  22253483.787    22253479.752
 03  4  2  1 37  0.0000000  0  8G14G31G 3G17G15G 9G23G18
  20241271.637   -27114136.25444 -20850662.95042  20241274.325    20241269.489
  22385635.059   -10604665.77043  -8248601.04842  22385637.261    22385634.893
  22218341.002   -11437138.55643  -8905920.07042  22218343.071    22218341.442
  24045020.910    11660423.66243   9077186.26042  24045022.279    24045023.018
  21296570.460   -17838045.35743 -13885010.74942  21296571.726    21296569.382
  23728634.354    -5301703.08243  -4120143.28042  23728636.634    23728635.502
  23093740.850   -11969132.57343  -9096839.48642  23093742.869    23093740.664
  22264979.555   -17949196.74143 -13972167.68742  22264981.767    22264977.583
 03  4  2  1 37 30.0000000  0  8G14G31G 3G17G15G 9G23G18
  20238591.206   -27128222.00444 -20861638.83242  20238593.879    20238588.982
  22387354.659   -10595629.06043  -8241559.46042  22387356.863    22387354.632
  22228563.105   -11383421.53543  -8864062.68642  22228565.136    22228563.498
  24063772.747    11758966.17643   9153972.52842  24063774.224    24063775.081
  21309385.157   -17770703.32543 -13832536.45742  21309386.526    21309384.237
  23736575.422    -5259974.30643  -4087627.34042  23736577.710    23736576.193
  23104622.634   -11911947.33743  -9052279.56242  23104624.634    23104622.647
  22276495.195   -17888680.63943 -13925012.29242  22276497.451    22276493.227
 03  4  2  1 38  0.0000000  0  8G14G31G 3G17G15G 9G23G18
  20236017.146   -27141748.82044 -20872179.18342  20236019.804    20236014.857
  22389186.499   -10586002.69843  -8234058.38942  22389188.673    22389186.643
  22238869.494   -11329261.59943  -8821860.18842  22238871.551    22238869.721
  24082571.633    11857754.34043   9230950.19542  24082573.016    24082573.928
  21322279.774   -17702941.91543 -13779735.38642  21322281.158    21322278.873
  23744629.160    -5217650.99343  -4054648.09942  23744631.531    23744630.097
  23115517.589   -11854694.27943  -9007666.80242  23115519.454    23115517.578
  22288036.536   -17828030.39743 -13877752.37942  22288038.740    22288034.712
 03  4  2  1 38 30.0000000  0  8G14G31G 3G17G15G 9G23G18
  20233539.500   -27154768.69344 -20882324.51442  20233542.189    20233537.287
  22391120.466   -10575838.58443  -8226138.28242  22391122.640    22391120.815
  22249249.878   -11274712.16943  -8779354.18042  22249251.977    22249250.011
  24101407.595    11956735.94543   9308078.58542  24101408.995    24101409.618
  21335244.311   -17634813.10943 -13726648.03842  21335245.751    21335243.338
  23752786.595    -5174785.36143  -4021246.33742  23752788.864    23752787.113
  23126415.761   -11797424.49443  -8963040.99542  23126417.656    23126415.829
  22299593.581   -17767297.70543 -13830428.21042  22299595.825    22299591.770
 03  4  2  1 39  0.0000000  0  8G14G31G 3G17G15G 9G23G18
  20231161.525   -27167265.02244 -20892061.89042  20231164.188    20231159.302
  22393160.044   -10565121.15443  -8217787.05842  22393162.172    22393160.220
  22259707.128   -11219759.10343  -8736533.65342  22259709.161    22259707.385
  24120282.902    12055926.30743   9385369.66442  24120284.331    24120285.265
  21348281.826   -17566300.81443 -13673261.86742  21348283.273    21348280.760
  23761049.707    -5131362.18943  -3987410.04242  23761052.077    23761050.062
  23137320.189   -11740121.47643  -8918389.31542  23137322.140    23137320.287
  22311169.588   -17706465.97143 -13783026.87842  22311171.870    22311167.521
 03  4  2  1 39 30.0000000  0  8G14G31G 3G17G15G 9G23G18
  20228885.962   -27179223.10143 -20901379.85142  20228888.589    20228883.726
  22395307.625   -10553835.93743  -8208993.37242  22395309.788    22395307.669
  22270243.557   -11164389.44343  -8693388.50442  22270245.669    22270244.140
  24139200.468    12155338.83043   9462833.90742  24139201.811    24139203.282
  21361395.041   -17497390.36543 -13619565.44042  21361396.486    21361393.938
  23769421.514    -5087367.24143  -3953128.29042  23769423.943    23769421.949
  23148234.057   -11682769.71443  -8873699.65942  23148236.080    23148233.784
  22322767.357   -17645519.80943 -13735536.38042  22322769.621    22322765.108
 03  4  2  1 40  0.0000000  0  8G14G31G 3G17G15G 9G23G18
  20226710.755   -27190653.81444 -20910286.87242  20226713.381    20226708.513
  22397560.906   -10541994.35643  -8199766.17642  22397563.196    22397560.962
  22280857.065   -11108616.04243  -8649928.76542  22280859.120    22280857.576
  24158158.512    12254962.24543   9540462.41242  24158159.785    24158161.152
  21374581.939   -17428093.26043 -13565567.72942  21374583.333    21374580.711
  23777900.137    -5042812.06743  -3918409.94342  23777902.506    23777900.801
  23159154.962   -11625379.72143  -8828980.21742  23159157.020    23159154.580
  22334384.722   -17584470.29043 -13687965.34442  22334386.989    22334382.631
 03  4  2  1 40 30.0000000  0  9G14G31G 3G25G17G15G 9G23G18
  20224632.243   -27201576.28544 -20918797.86942  20224634.860    20224629.986
  22399916.361   -10529616.02543  -8190120.71942  22399918.654    22399916.487
  22291543.039   -11052460.22043  -8606171.02142  22291545.126    22291543.634
  24532528.647    -5177997.95953  -3989313.88752  24532532.410    24532537.593
  24177152.692    12354776.64743   9618239.74342  24177154.027    24177155.439
  21387838.660   -17358428.92943 -13511283.86342  21387840.018    21387837.437
  23786481.459    -4997716.55443  -3883270.59242  23786483.718    23786482.140
  23170079.634   -11567970.20943  -8784245.56242  23170081.658    23170079.267
  22346018.000   -17523336.62143 -13640328.74242  22346020.312    22346016.069
 03  4  2  1 41  0.0000000  0  9G14G31G 3G25G17G15G 9G23G18
  20222655.903   -27211961.99444 -20926890.60542  20222658.518    20222653.579
  22402379.195   -10516672.87043  -8180035.11542  22402381.419    22402379.617
  22302306.965   -10995895.34743  -8562094.54342  22302309.110    22302307.556
  24513875.518    -5276020.17843  -4065694.47342  24513879.076    24513883.928
  24196187.995    12454809.30443   9696187.18542  24196189.202    24196191.310
  21401170.752   -17288368.74143 -13456691.54142  21401172.112    21401169.498
  23795170.770    -4952052.91943  -3847688.49242  23795173.340    23795171.410
  23181013.712   -11510511.91643  -8739472.87542  23181015.758    23181013.261
  22357673.027   -17462089.31343 -13592603.58842  22357675.308    22357671.074
 03  4  2  1 41 30.0000000  0  9G14G31G 3G25G17G15G 9G23G18
  20220780.714   -27221816.09344 -20934569.09942  20220783.341    20220778.342
  22404948.806   -10503170.48843  -8169513.77442  22404950.882    22404948.995
  22313147.586   -10938928.24143  -8517704.63742  22313149.635    22313148.027
  24495212.774    -5374093.36243  -4142114.76742  24495216.091    24495220.661
  24215264.288    12555054.70243   9774300.34142  24215265.288    24215267.533
  21414577.031   -17217918.33843 -13401795.15042  21414578.460    21414575.796
  23803967.535    -4905827.17443  -3811668.35842  23803970.174    23803967.647
  23191956.189   -11453009.23643  -8694665.61442  23191958.308    23191955.651
  22369348.661   -17400733.71643 -13544794.06442  22369350.883    22369346.831
 03  4  2  1 42  0.0000000  0  9G14G31G 3G25G17G15G 9G23G18
  20219006.046   -27231142.01144 -20941836.01842  20219008.681    20219003.644
  22407624.027   -10489112.93343  -8158559.83942  22407626.152    22407623.908
  22324063.544   -10881564.37543  -8473005.56042  22324065.680    22324064.070
  24476539.854    -5472217.32543  -4218574.62142  24476543.302    24476547.797
  24234380.126    12655508.11143   9852575.59142  24234381.323    24234383.150
  21428056.686   -17147081.76943 -13346597.86142  21428058.119    21428055.662
  23812870.151    -4859043.25343  -3775213.32142  23812872.952    23812869.527
  23202906.441   -11395465.17443  -8649826.11542  23202908.641    23202905.965
  22381044.195   -17339273.05543 -13496902.65042  22381046.419    22381042.447
 03  4  2  1 42 30.0000000  0  9G14G31G 3G25G17G15G 9G23G18
  20217330.095   -27239948.69643 -20948698.35142  20217332.731    20217327.793
  22410403.005   -10474509.48643  -8147180.53542  22410405.231    22410402.812
  22335053.009   -10823814.45943  -8428005.66542  22335055.094    22335053.593
  24457856.381    -5570397.79143  -4295078.52842  24457859.830    24457864.255
  24253533.463    12756160.33643   9931005.80142  24253534.769    24253536.798
  21441608.281   -17075867.92043 -13291106.58642  21441609.671    21441607.337
  23821877.140    -4811710.88543  -3738330.95642  23821879.755    23821876.976
  23213862.982   -11337887.93743  -8604960.74942  23213865.173    23213862.583
  22392758.202   -17277715.71843 -13448935.91342  22392760.359    22392756.350
 03  4  2  1 43  0.0000000  0  9G14G31G 3G25G17G15G 9G23G18
  20215754.732   -27248227.37744 -20955149.25042  20215757.337    20215752.416
  22413287.154   -10459351.91843  -8135369.42542  22413289.381    22413287.076
  22346117.316   -10765671.76643  -8382699.71242  22346119.335    22346117.822
  24439164.433    -5668623.32543  -4371617.54242  24439167.852    24439172.247
  24272726.489    12857019.10843  10009596.92642  24272727.572    24272729.614
  21455233.439   -17004268.42743 -13235314.81942  21455234.736    21455232.310
  23830990.349    -4763822.11443  -3701015.05242  23830992.932    23830989.974
  23224827.384   -11280268.14243  -8560062.21242  23224829.547    23224827.123
  22404492.178   -17216052.89743 -13400886.99242  22404494.319    22404490.396
 03  4  2  1 43 30.0000000  0  8G14G31G 3G25G15G 9G23G18
  20214281.244   -27255970.67944 -20961182.96742  20214283.856    20214278.886
  22416278.403   -10443633.47343  -8123121.29242  22416280.500    22416278.295
  22357257.441   -10707130.98243  -8337083.56942  22357259.498    22357257.778
  24420466.061    -5766883.04143  -4448183.15542  24420469.332    24420473.623
  21468932.808   -16932276.21743 -13179217.02642  21468934.174    21468931.976
  23840210.094    -4715370.36143  -3663260.39042  23840212.528    23840210.296
  23235801.728   -11222597.81143  -8515124.29342  23235803.847    23235801.437
  22416247.730   -17154276.53043 -13352749.56742  22416249.843    22416245.946
 03  4  2  1 44  0.0000000  0  8G14G31G 3G25G15G 9G23G18
  20212905.986   -27263197.85744 -20966814.50842  20212908.592    20212903.554
  22419372.563   -10427373.73043  -8110451.37042  22419374.764    22419372.541
  22368469.129   -10648213.02443  -8291173.51342  22368471.279    22368469.483
  24401758.077    -5865192.73543  -4524787.69042  24401761.375    24401765.475
  21482703.660   -16859910.69643 -13122828.35642  21482704.829    21482702.668
  23849533.487    -4666375.45443  -3625082.58142  23849535.851    23849534.021
  23246782.247   -11164895.15843  -8470161.21142  23246784.327    23246782.048
  22428021.300   -17092405.40843 -13304538.31942  22428023.382    22428019.631
 03  4  2  1 44 30.0000000  0  8G14G31G 3G25G15G 9G23G18
  20211631.577   -27269894.63044 -20972032.75642  20211634.187    20211629.195
  22422572.397   -10410559.04043  -8097349.03842  22422574.563    22422572.269
  22379754.955   -10588905.30343  -8244959.74342  22379757.124    22379755.263
  24383043.769    -5963535.34143  -4601417.86642  24383047.245    24383051.057
  21496548.284   -16787157.76543 -13066137.80842  21496549.436    21496547.072
  23858962.801    -4616823.96543  -3586471.00442  23858965.126    23858963.359
  23257771.701   -11107145.26743  -8425161.31042  23257773.860    23257771.468
  22439815.754   -17030424.98243 -13256241.89142  22439817.841    22439814.114
 03  4  2  1 45  0.0000000  0  8G14G31G 3G25G15G 9G23G18
  20210453.966   -27276082.94544 -20976854.80142  20210456.574    20210451.538
  22425873.418   -10393211.97743  -8083831.86442  22425875.618    22425873.233
  22391110.428   -10529231.91943  -8198461.04642  22391112.549    22391110.820
  24364319.412    -6061929.36743  -4678088.11242  24364323.166    24364326.615
  21510462.063   -16714039.69143 -13009162.71542  21510463.298    21510461.067
  23868493.586    -4566738.59743  -3547443.39942  23868496.082    23868494.334
  23268766.116   -11049369.52243  -8380141.24342  23268768.213    23268765.774
  22451627.180   -16968356.81143 -13207877.09542  22451629.268    22451625.458
 03  4  2  1 45 30.0000000  0  8G14G31G 3G25G15G 9G23G18
  20209375.537   -27281750.19244 -20981270.81542  20209378.131    20209373.039
  22429277.950   -10375320.39643  -8069890.37942  22429280.165    22429278.011
  22402537.649   -10469181.99943  -8151668.94142  22402539.662    22402538.070
  24345588.066    -6160359.04043  -4754786.11842  24345592.036    24345595.541
  21524447.870   -16640544.08743 -12951893.44442  21524449.091    21524446.945
  23878128.373    -4516107.61343  -3507990.69542  23878130.834    23878129.551
  23279767.863   -10991554.37443  -8335090.50242  23279770.080    23279767.737
  22463457.541   -16906187.95143 -13159433.84842  22463459.677    22463455.795
 03  4  2  1 46  0.0000000  0  8G14G31G 3G25G15G 9G23G18
  20208398.277   -27286885.59544 -20985272.40442  20208400.855    20208395.786
  22432788.181   -10356874.01043  -8055516.59942  22432790.338    22432788.280
  22414038.117   -10408746.70243  -8104576.54542  22414040.149    22414038.628
  24326853.127    -6258809.99643  -4831500.67842  24326857.031    24326860.577
  21538507.490   -16566660.63743 -12894321.96442  21538508.702    21538506.497
  23887868.981    -4464921.15043  -3468105.05242  23887871.361    23887869.958
  23290779.451   -10933688.31143  -8290000.07842  23290781.577    23290779.313
  22475309.329   -16843906.96743 -13110903.23642  22475311.462    22475307.297
 03  4  2  1 46 30.0000000  0  8G14G31G 3G25G15G 9G23G18
  20207518.419   -27291509.37944 -20988875.33542  20207520.981    20207515.937
  22436400.163   -10337893.72743  -8040726.78342  22436402.288    22436400.127
  22425607.713   -10347948.28443  -8057201.21342  22425609.697    22425608.209
  24308111.323    -6357299.35643  -4908245.16942  24308114.950    24308118.481
  21552636.871   -16492409.61243 -12836464.05142  21552638.115    21552635.989
  23897710.986    -4413200.20943  -3427803.01542  23897713.585    23897712.127
  23301796.954   -10875790.75543  -8244885.12342  23301799.068    23301796.742
  22487178.501   -16781533.86243 -13062300.80842  22487180.698    22487176.493
 03  4  2  1 47  0.0000000  0  8G14G31G 3G25G15G 9G23G18
  20206739.447   -27295602.82444 -20992065.01042  20206742.041    20206736.973
  22440117.049   -10318361.09143  -8025506.56342  22440119.261    22440117.132
  22437249.718   -10286769.61443  -8009529.57442  22437251.745    22437250.147
  24289365.994    -6455804.47543  -4985001.93942  24289369.596    24289373.476
  21566839.973   -16417772.27043 -12778305.12442  21566841.221    21566839.020
  23907658.234    -4360926.55843  -3387070.24742  23907660.788    23907659.664
  23312824.108   -10817841.95243  -8199730.20842  23312826.215    23312824.164
  22499069.152   -16719049.14943 -13013611.43142  22499071.315    22499066.992
 03  4  2  1 47 30.0000000  0  7G14G31G 3G25G15G23G18
  20206061.848   -27299163.39644 -20994839.45342  20206064.462    20206059.376
  22443939.400   -10298274.21143  -8009854.46642  22443941.583    22443939.463
  22448964.077   -10225210.10343  -7961561.17742  22448966.137    22448964.619
  24270618.878    -6554319.65843  -5061766.55142  24270622.430    24270626.215
  21581116.990   -16342746.51743 -12719843.54542  21581118.257    21581116.009
  23323861.866   -10759838.42743  -8154532.67842  23323863.908    23323862.021
  22510981.364   -16656449.41643 -12964832.42742  22510983.640    22510979.364
 03  4  2  1 48  0.0000000  0  7G14G31G 3G25G15G23G18
  20205484.039   -27302199.66143 -20997205.34142  20205486.615    20205481.548
  22447865.693   -10277642.26743  -7993777.63842  22447867.804    22447865.559
  22460748.990   -10163279.92943  -7913303.94742  22460751.039    22460749.593
  24251868.753    -6652850.18743  -5138543.12742  24251872.442    24251875.716
  21595466.050   -16267341.26943 -12661086.23042  21595467.326    21595465.145
  23334908.322   -10701787.92343  -8109298.53142  23334910.429    23334908.603
  22522914.078   -16593742.81643 -12915970.13642  22522916.305    22522912.093
 03  4  2  1 48 30.0000000  0  7G14G31G 3G25G15G23G18
  20205002.526   -27304729.66744 -20999176.75442  20205005.070    20205000.104
  22451891.861   -10256483.95243  -7977290.65542  22451894.014    22451891.802
  22472600.538   -10100999.27143  -7864773.61342  22472602.577    22472601.219
  24233113.208    -6751411.07543  -5215343.34542  24233117.063    24233119.333
  21609883.991   -16191574.67743 -12602047.35842  21609885.306    21609883.045
  23345960.833   -10643707.75543  -8064041.25842  23345962.951    23345960.789
  22534863.640   -16530946.90843 -12867038.25842  22534865.830    22534861.800
 03  4  2  1 49  0.0000000  0  7G14G31G 3G25G15G23G18
  20204613.560   -27306773.74244 -21000769.50742  20204616.119    20204611.090
  22456014.578   -10234819.87143  -7960409.60042  22456016.694    22456014.215
  22484514.831   -10038390.09743  -7815987.30442  22484516.782    22484515.344
  24214348.453    -6850018.93743  -5292180.15842  24214352.308    24214354.315
  21624366.997   -16115466.81243 -12542742.56242  21624368.325    21624365.992
  23357015.138   -10585617.19443  -8018775.89242  23357017.350    23357015.182
  22546826.263   -16468081.89743 -12818052.53142  22546828.451    22546824.673
 03  4  2  1 49 30.0000000  0  7G14G31G 3G25G15G23G18
  20204322.466   -27308303.59244 -21001961.56542  20204325.039    20204319.950
  22460238.661   -10212622.32343  -7943112.83642  22460240.805    22460238.309
  22496496.767    -9975425.61843  -7766924.14042  22496498.811    22496497.038
  24195580.681    -6948641.63843  -5369028.58242  24195584.540    24195586.698
  21638920.078   -16038989.87743 -12483150.17542  21638921.507    21638919.102
  23368077.139   -10527486.82843  -7973479.54642  23368079.354    23368077.155
  22558807.797   -16405118.29443 -12768989.99642  22558809.868    22558806.436
 03  4  2  1 50  0.0000000  0  7G14G31G 3G25G15G23G18
  20204128.747   -27309321.48544 -21002754.70142  20204131.345    20204126.262
  22464563.577   -10189894.25943  -7925402.68742  22464565.712    22464563.417
  22508545.212    -9912110.28843  -7717587.57542  22508547.368    22508545.554
  24176810.532    -7047278.30743  -5445887.87542  24176814.108    24176816.530
  21653542.892   -15962146.51843 -12423272.25942  21653544.286    21653541.943
  23379146.332   -10469318.15543  -7928153.31742  23379148.573    23379146.332
  22570807.876   -16342057.68243 -12719851.86042  22570809.933    22570806.619
 03  4  2  1 50 30.0000000  0  7G14G31G 3G25G15G23G18
  20204034.355   -27309817.49844 -21003141.17142  20204036.964    20204031.832
  22468991.126   -10166626.37843  -7907271.87842  22468993.309    22468991.152
  22520662.022    -9848435.85943  -7667971.18342  22520664.110    22520662.453
  24158040.224    -7145915.34343  -5522747.45842  24158043.803    24158046.326
  21668237.303   -15884926.86443 -12363101.12542  21668238.692    21668236.417
  23390224.877   -10411100.01643  -7882788.54342  23390227.083    23390225.013
  22582828.590   -16278889.44843 -12670629.87542  22582830.648    22582827.121
 03  4  2  1 51  0.0000000  0  7G14G31G 3G25G15G23G18
  20204044.622   -27309763.22244 -21003098.84142  20204047.251    20204042.127
  22473527.186   -10142790.31243  -7888698.35042  22473529.313    22473527.067
  22532852.319    -9784375.37943  -7618053.98742  22532854.440    22532852.906
  24139276.001    -7244520.15143  -5599581.94642  24139279.734    24139282.129
  21683008.809   -15807302.24843 -12302614.43342  21683010.153    21683007.972
  23401318.669   -10352802.52243  -7837361.92942  23401320.831    23401318.672
  22594875.101   -16215584.47143 -12621301.33742  22594877.238    22594873.622
 03  4  2  1 51 30.0000000  0  7G14G31G 3G25G15G23G18
  20204147.631   -27309221.35544 -21002676.57942  20204150.262    20204145.205
  22478158.976   -10118450.22743  -7869732.06442  22478161.094    22478158.780
  22545103.803    -9719994.23243  -7567886.91442  22545105.800    22545104.468
  24120506.537    -7343152.76943  -5676438.10742  24120510.305    24120512.448
  21697845.246   -15729336.24643 -12241861.73242  21697846.587    21697844.399
  23412415.325   -10294488.07843  -7791922.10142  23412417.456    23412415.552
  22606935.792   -16152204.74243 -12571914.53842  22606937.920    22606934.404
 03  4  2  1 52  0.0000000  0  8G14G31G 3G25G15G 9G23G18
  20204349.360   -27308161.64244 -21001850.80042  20204351.923    20204346.833
  22482892.370   -10093576.13843  -7850349.66442  22482894.467    22482892.203
  22557421.787    -9655263.25243  -7517447.25842  22557423.801    22557422.473
  24101738.222    -7441779.12343  -5753289.39842  24101741.935    24101743.945
  21712752.454   -15650998.47043 -12180819.34842  21712753.800    21712751.621
  24012734.136     -988233.94853   -778808.78552  24012736.573    24012735.025
  23423521.568   -10236125.13243  -7746444.50742  23423523.546    23423521.613
  22619016.584   -16088719.20343 -12522445.30642  22619018.754    22619015.248
 03  4  2  1 52 30.0000000  0  8G14G31G 3G25G15G 9G23G18
  20204646.753   -27306598.67344 -21000632.88242  20204649.356    20204644.247
  22487724.543   -10068182.98743  -7830562.80542  22487726.665    22487724.464
  22569802.982    -9590198.91643  -7466747.82842  22569805.159    22569803.822
  24082969.156    -7540410.02343  -5830144.23042  24082972.765    24082974.459
  21727727.688   -15572303.44443 -12119498.57542  21727729.010    21727726.844
  24023794.109     -930110.63643   -733517.95342  24023795.679    24023794.114
  23434634.152   -10177726.93043  -7700939.41442  23434636.169    23434634.439
  22631114.946   -16025141.52343 -12472904.28242  22631117.140    22631113.654
 03  4  2  1 53  0.0000000  0  8G14G31G 3G25G15G 9G23G18
  20205038.913   -27304538.03444 -20999027.15942  20205041.515    20205036.300
  22492654.346   -10042276.95343  -7810376.31642  22492656.470    22492654.272
  22582246.558    -9524808.31543  -7415794.18342  22582248.634    22582247.204
  24064198.769    -7639047.27743  -5907004.05642  24064202.345    24064203.837
  21742769.531   -15493257.13943 -12057904.06642  21742770.949    21742768.945
  24034951.068     -871476.53343   -687829.03042  24034953.389    24034951.507
  23445752.940   -10119297.86043  -7655410.29142  23445754.907    23445753.377
  22643229.997   -15961476.61243 -12423295.27042  22643232.145    22643228.756
 03  4  2  1 53 30.0000000  0  8G14G31G 3G25G15G 9G23G18
  20205527.725   -27301968.95344 -20997025.25242  20205530.341    20205525.106
  22497683.571   -10015847.99143  -7789782.32842  22497685.692    22497683.483
  22594753.907    -9459082.51143  -7364579.34242  22594755.988    22594754.453
  24045429.701    -7737676.71443  -5983857.77842  24045433.146    24045434.911
  21757880.567   -15413848.99343 -11996027.63342  21757881.924    21757879.863
  24046207.585     -812322.12943   -641734.67542  24046210.010    24046208.643
  23456879.891   -10060826.28843  -7609848.06342  23456881.909    23456880.279
  22655363.893   -15897712.98743 -12373609.35942  22655366.006    22655362.649
 03  4  2  1 54  0.0000000  0  9G11G14G31G 3G25G15G 9G23G18
  24451530.427
  20206112.774   -27298894.16244 -20994629.28542  20206115.399    20206110.167
  22502811.650    -9988899.41343  -7768783.45342  22502813.808    22502811.597
  22607323.794    -9393026.00843  -7313106.79042  22607325.968    22607324.760
  24026662.621    -7836296.95043  -6060704.37242  24026665.837    24026667.629
  21773059.814   -15334081.89843 -11933871.48142  21773061.165    21773059.052
  24057562.370     -752650.81343   -595237.62242  24057564.700    24057563.740
  23468014.429   -10002313.64243  -7564253.81642  23468016.457    23468014.628
  22667515.946   -15833852.67743 -12323848.09442  22667518.049    22667514.840
 03  4  2  1 54 30.0000000  0  9G11G14G31G 3G25G15G 9G23G18
  24432584.963    -1234191.34753   -952117.03752  24432586.510    24432584.112
  20206792.713   -27295320.75344 -20991844.79442  20206795.326    20206790.143
  22508037.200    -9961438.73943  -7747385.54742  22508039.384    22508037.176
  22619955.359    -9326647.58343  -7261383.41142  22619957.348    22619956.269
  24007896.456    -7934911.45443  -6137546.48242  24007899.715    24007901.500
  21788305.951   -15253962.84843 -11871441.07542  21788307.304    21788305.135
  24069014.439     -692470.37143   -548343.74842  24069016.850    24069016.023
  23479155.670    -9943765.66743  -7518632.04042  23479157.624    23479155.833
  22679685.361   -15769901.57743 -12274016.08542  22679687.421    22679684.156
 03  4  2  1 55  0.0000000  0  9G11G14G31G 3G25G15G 9G23G18
  24413658.810    -1333646.88743  -1029614.75742  24413660.259    24413659.636
  20207572.257   -27291224.49844 -20988652.88842  20207574.847    20207569.723
  22513364.699    -9933442.56643  -7725570.34742  22513366.848    22513364.833
  22632652.427    -9259924.85843  -7209391.74042  22632654.412    22632653.274
  23989136.829    -8033492.05043  -6214362.20642  23989140.219    23989141.880
  21803623.683   -15173467.63943 -11808717.56542  21803625.113    21803622.801
  24080567.487     -631757.71343   -501035.08442  24080570.213    24080569.174
  23490308.375    -9885157.03943  -7472962.97442  23490310.342    23490308.744
  22691877.087   -15705834.65343 -12224093.85142  22691879.214    22691875.668
 03  4  2  1 55 30.0000000  0  9G11G14G31G 3G25G15G 9G23G18
  24394745.424    -1433032.32743  -1107057.83342  24394747.807    24394747.421
  20208445.253   -27286636.82544 -20985078.05942  20208447.876    20208442.734
  22518788.101    -9904942.85643  -7703362.80942  22518790.259    22518788.074
  22645408.633    -9192890.98843  -7157157.61742  22645410.667    22645409.635
  23970378.237    -8132067.24043  -6291173.72142  23970381.687    23970383.155
  21819006.890   -15092628.12843 -11745725.76142  21819008.314    21819006.082
  24092215.885     -570544.84443   -453336.81542  24092218.801    24092217.536
  23501467.190    -9826518.06143  -7427270.27242  23501469.015    23501467.349
  22704084.988   -15641682.38743 -12174105.09642  22704087.131    22704083.526
 03  4  2  1 56  0.0000000  0  9G11G14G31G 3G25G15G 9G23G18
  24375847.640    -1532338.39143  -1184439.07542  24375850.110    24375850.215
  20209412.847   -27281551.55644 -20981115.49942  20209415.494    20209410.365
  22524308.393    -9875934.00543  -7680758.54742  22524310.593    22524308.256
  22658224.838    -9125541.06543  -7104677.21242  22658226.954    22658225.905
  23951622.919    -8230626.40943  -6367972.73642  23951626.334    23951627.525
  21834456.916   -15011438.22243 -11682460.93142  21834458.251    21834456.039
  24103960.463     -508826.37243   -405244.52342  24103963.590    24103961.837
  23512632.974    -9767841.19943  -7381548.05042  23512634.798    23512633.160
  22716310.402   -15577437.79543 -12124044.38942  22716312.592    22716308.803
 03  4  2  1 56 30.0000000  0  9G11G14G31G 3G25G15G 9G23G18
  24356964.811    -1631567.43943  -1261760.30242  24356966.996    24356967.126
  20210474.270   -27275974.24844 -20976769.52942  20210476.829    20210471.658
  22529924.274    -9846422.23643  -7657762.38742  22529926.494    22529924.283
  22671099.942    -9057882.58543  -7051956.39142  22671101.927    22671100.779
  23932870.126    -8329171.46543  -6444760.78542  23932873.514    23932874.801
  21849972.494   -14929903.46743 -11618927.38942  21849973.816    21849971.534
  24115799.906     -446608.65253   -356763.23952  24115802.579    24115801.926
  23523805.251    -9709130.48043  -7335799.46042  23523807.072    23523805.535
  22728552.519   -15513105.34143 -12073915.21842  22728554.634    22728550.767
 03  4  2  1 57  0.0000000  0  9G11G14G31G 3G25G15G 9G23G18
  24338098.145    -1730710.97043  -1339014.90442  24338100.441    24338100.504
  20211630.246   -27269899.51844 -20972035.95742  20211632.795    20211627.678
  22535636.901    -9816402.77043  -7634370.61442  22535639.062    22535636.904
  22684034.345    -8989911.80643  -6998992.20242  22684036.351    22684035.352
  23914121.593    -8427693.22143  -6521530.68442  23914125.212    23914126.725
  21865554.671   -14848018.57543 -11555121.00942  21865556.031    21865553.587
  24127735.563     -383887.54343   -307889.63842  24127738.125    24127737.349
  23534985.318    -9650379.37243  -7290019.35942  23534987.178    23534985.540
  22740812.332   -15448678.68843 -12023712.63942  22740814.538    22740810.632
 03  4  2  1 57 30.0000000  0  9G11G14G31G 3G25G15G 9G23G18
  24319254.525    -1829733.27143  -1416175.00242  24319257.019    24319256.960
  20212886.993   -27263294.98944 -20966889.56242  20212889.545    20212884.451
  22541452.029    -9785843.89543  -7610558.52142  22541454.275    22541451.884
  22697034.167    -8921598.09343  -6945760.80242  22697036.123    22697035.109
  23895384.723    -8526155.67543  -6598254.37942  23895388.156    23895389.800
  21881209.713   -14765751.43943 -11491016.78942  21881211.047    21881208.542
  24139772.890     -320631.28043   -258599.05342  24139775.794    24139773.928
  23546179.468    -9591554.11743  -7244181.52542  23546181.324    23546179.512
  22753096.645   -15384124.66543 -11973410.80442  22753098.716    22753095.044
 03  4  2  1 58  0.0000000  0  9G11G14G31G 3G25G15G 9G23G18
  24300431.839    -1928649.44943  -1493252.39542  24300434.125    24300433.390
  20214241.172   -27256178.72844 -20961344.41042  20214243.706    20214238.591
  22547366.447    -9754764.22543  -7586340.63042  22547368.698    22547366.010
  22710095.322    -8852961.14543  -6892277.53642  22710097.400    22710096.202
  23876656.539    -8624572.62843  -6674942.62242  23876659.858    23876661.435
  21896933.814   -14683120.07643 -11426628.74342  21896935.173    21896932.908
  24151911.186
  23557384.359    -9532671.42443  -7198298.91642  23557386.237    23557384.538
  22765402.015   -15319460.01343 -11923022.77742  22765404.159    22765400.374
 03  4  2  1 58 30.0000000  0  8G11G14G31G 3G25G15G23G18
  24281628.076    -2027465.78943  -1570251.91742  24281630.407    24281629.022
  20215690.862   -27248560.54444 -20955408.14942  20215693.417    20215688.249
  22553377.779    -9723174.06743  -7561724.92642  22553379.991    22553377.519
  22723215.996    -8784011.91843  -6838550.92142  22723218.043    22723216.809
  23857935.646    -8722949.87543  -6751599.93642  23857939.023    23857940.465
  21912725.587   -14600134.14943 -11361964.41742  21912726.904    21912724.680
  23568598.684    -9473739.72443  -7152378.09042  23568600.548    23568598.822
  22777726.560   -15254693.77143 -11872555.55842  22777728.821    22777724.896
 03  4  2  1 59  0.0000000  0  8G11G14G31G 3G25G15G23G18
  24262843.135    -2126183.74043  -1647174.77342  24262845.428    24262843.293
  20217235.125   -27240445.07444 -20949084.39642  20217237.680    20217232.514
  22559485.215    -9691078.91943  -7536715.73642  22559487.386    22559485.145
  22736394.842    -8714757.23743  -6784586.29742  22736396.900    22736395.572
  23839222.137    -8821288.55343  -6828227.18542  23839225.401    23839226.681
  21928583.868   -14516798.61843 -11297027.68742  21928585.250    21928582.894
  23579821.728    -9414762.33343  -7106421.66642  23579823.658    23579821.877
  22790070.066   -15189829.32043 -11822011.83842  22790072.350    22790068.276
 03  4  2  1 59 30.0000000  0  8G11G14G31G 3G25G15G23G18
  24244067.690    -2224849.88743  -1724057.26142  24244070.336    24244067.569
  20218864.630   -27231881.80744 -20942411.70542  20218867.174    20218861.941
  22565679.085    -9658528.87743  -7511352.06842  22565681.249    22565679.363
  22749621.867    -8645248.25343  -6730423.50842  22749623.944    22749622.712
  23820507.582    -8919633.95543  -6904859.66642  23820510.729    23820511.843
  21944499.202   -14433163.14443 -11231857.23142  21944500.584    21944498.251
  23591044.277    -9355787.27143  -7060467.09442  23591046.306    23591044.506
  22802422.799   -15124914.95743 -11771429.21142  22802425.119    22802420.943
 03  4  2  2  0  0.0000000  0  8G11G14G31G 3G25G15G23G18
  24225313.810    -2323401.81943  -1800850.73642  24225316.734    24225313.610
  20220590.678   -27222811.57344 -20935343.97042  20220593.189    20220588.001
  22571971.069    -9625465.45743  -7485588.40642  22571973.095    22571971.071
  22762908.479    -8575427.29643  -6676017.62742  22762910.507    22762909.184
  23801803.667    -9017923.37043  -6981448.54842  23801806.698    23801807.793
  21960482.874   -14349168.69143 -11166407.04442  21960484.148    21960481.965
  23602278.167    -9296754.09243  -7014467.24942  23602280.190    23602278.128
  22814796.487   -15059890.88043 -11720761.10642  22814798.754    22814794.554
 03  4  2  2  0 30.0000000  0  8G11G14G31G 3G25G15G23G18
  24206580.373    -2421845.19443  -1877559.62542  24206583.721    24206580.539
  20222411.281   -27213243.90544 -20927888.63042  20222413.824    20222408.708
  22578358.664    -9591898.56643  -7459432.41642  22578360.690    22578358.507
  22776252.346    -8505305.16843  -6621377.07042  22776254.384    22776252.862
  23783109.395    -9116161.86443  -7057997.74042  23783112.422    23783113.482
  21976533.084   -14264824.28643 -11100684.15842  21976534.330    21976532.233
  23613521.419    -9237670.54443  -6968428.13042  23613523.516    23613521.385
  22827189.427   -14994765.28043 -11670013.87442  22827191.713    22827187.768
 03  4  2  2  1  0.0000000  0  8G11G14G31G 3G25G15G23G18
  24187865.396    -2520191.65843  -1954192.97642  24187869.000    24187865.831
  20224323.787   -27203193.46044 -20920057.09742  20224326.348    20224321.184
  22584839.031    -9557843.75443  -7432896.23442  22584841.067    22584838.969
  22789650.402    -8434898.33043  -6566514.66242  22789652.445    22789650.962
  23764422.714    -9214360.26943  -7134515.70442  23764425.700    23764426.786
  21992647.010   -14180145.12143 -11034700.43642  21992648.281    21992646.165
  23624771.575    -9178550.02843  -6922360.19142  23624773.658    23624771.697
  22839599.189   -14929551.62843 -11619198.04342  22839601.406    22839597.456
 03  4  2  2  1 30.0000000  0  8G11G14G31G 3G25G15G23G18
  24169167.609    -2618447.80043  -2030755.99542  24169171.203    24169168.341
  20226326.249   -27192670.28144 -20911857.20142  20226328.843    20226323.655
  22591410.398    -9523311.62043  -7405988.09542  22591412.440    22591410.409
  22803100.436    -8364218.33743  -6511439.41442  22803102.528    22803101.125
  23745742.162    -9312524.88643  -7211007.34642  23745745.275    23745746.328
  22008822.681   -14095141.31243 -10968463.74942  22008824.023    22008821.840
  23636027.192    -9119401.00243  -6876270.04342  23636029.290    23636027.491
  22852023.927   -14864258.60843 -11568320.37242  22852026.174    22852022.296
 03  4  2  2  2  0.0000000  0  8G11G14G31G 3G25G15G23G18
  24150494.938    -2716570.94443  -2107215.36942  24150498.645    24150496.102
  20228426.180   -27181634.84944 -20903258.14642  20228428.809    20228423.657
  22598079.858    -9488263.41543  -7378677.82642  22598081.850    22598079.884
  22816609.329    -8293227.48843  -6456121.92642  22816611.518    22816610.245
  23727076.603    -9410612.21643  -7287438.76742  23727079.642    23727080.483
  22025067.782   -14009773.39143 -10901943.33642  22025069.106    22025066.820
  23647295.958    -9060182.58943  -6830125.82742  23647298.052    23647296.444
  22864471.522   -14798845.70543 -11517349.26842  22864473.712    22864469.881
 03  4  2  2  2 30.0000000  0  8G11G14G31G 3G25G15G23G18
  24131843.684    -2814582.94643  -2183588.15442  24131847.133    24131844.905
  20230618.848   -27170112.56944 -20894279.72442  20230621.427    20230616.267
  22604842.574    -9452725.24543  -7350985.76042  22604844.585    22604842.518
  22830172.566    -8221952.51943  -6400583.05442  22830174.585    22830173.503
  23708421.927    -9508643.40743  -7363826.42642  23708424.895    23708425.181
  22041377.138   -13924066.87043 -10835159.06442  22041378.456    22041376.269
  23658573.560    -9000918.61543  -6783946.14342  23658575.614    23658573.968
  22876937.441   -14733337.24743 -11466303.72442  22876939.614    22876935.682
 03  4  2  2  3  0.0000000  0  8G11G14G31G 3G25G15G23G18
  24113213.983    -2912480.75643  -2259871.98542  24113217.556    24113215.321
  20232903.989   -27158104.04344 -20884922.39942  20232906.584    20232901.338
  22611698.465    -9416698.10543  -7322912.69242  22611700.522    22611698.229
  22843789.727    -8150395.53443  -6344824.44942  22843791.639    22843790.490
  23689778.569    -9606614.49043  -7440167.24442  23689781.614    23689781.531
  22057751.013   -13838022.17643 -10768111.29642  22057752.255    22057750.080
  23669859.983    -8941607.89243  -6737730.02542  23669862.053    23669860.377
  22889421.652   -14667732.48143 -11415183.11742  22889423.838    22889419.825
 03  4  2  2  3 30.0000000  0  8G11G14G31G 3G25G15G23G18
  24094607.400    -3010257.52343  -2336061.49442  24094610.910    24094608.873
  20235282.292   -27145605.72044 -20875183.42442  20235284.920    20235279.700
  22618647.824    -9380179.38043  -7294456.56042  22618649.846    22618647.477
  22857460.595    -8078554.72743  -6288844.65642  22857462.561    22857461.406
  23671147.905    -9704518.75243  -7516456.00042  23671151.054    23671150.765
  22074189.844   -13751635.92343 -10700797.37242  22074191.146    22074188.957
  23681156.297    -8882245.66843  -6691473.77342  23681158.264    23681156.503
  22901925.001   -14602026.79443 -11363983.89242  22901927.058    22901923.216
 03  4  2  2  4  0.0000000  0  8G11G14G31G 3G25G15G23G18
  24076023.819    -3107914.67043  -2412157.79442  24076027.076    24076025.156
  20237752.896   -27132622.33844 -20865066.48642  20237755.519    20237750.320
  22625689.503    -9343174.30243  -7265621.44342  22625691.561    22625689.367
  22871184.222    -8006436.23943  -6232648.49242  22871186.202    22871185.112
  23652529.585    -9802356.15443  -7592692.67042  23652532.909    23652532.877
  22090692.911   -13664912.83243 -10633220.98942  22090694.185    22090691.767
  23692461.731    -8822834.77843  -6645179.59242  23692463.665    23692461.910
  22914447.028   -14536223.56643 -11312708.66342  22914449.002    22914445.160
 03  4  2  2  4 30.0000000  0  8G11G14G31G 3G25G15G23G18
  24057461.004    -3205462.96543  -2488169.31342  24057464.135    24057462.219
  20240313.150   -27119167.85944 -20854582.45042  20240315.758    20240310.558
  22632821.061    -9305697.70843  -7236418.92442  22632823.093    22632820.816
  22884957.986    -7934055.68943  -6176248.15242  22884959.938    22884958.670
  23633921.843    -9900136.86743  -7668885.16442  23633925.264    23633925.727
  22107257.076   -13577867.23043 -10565393.29142  22107258.449    22107255.969
  23703774.084    -8763387.86243  -6598857.33142  23703775.826    23703774.255
  22926985.075   -14470335.56343 -11261367.35842  22926987.054    22926983.304
 03  4  2  2  5  0.0000000  0  8G11G14G31G 3G25G15G23G18
  24038920.360    -3302893.44043  -2564089.01142  24038923.471    24038921.844
  20242964.025   -27105237.35144 -20843727.48142  20242966.582    20242961.375
  22640043.090    -9267745.11443  -7206845.49842  22640045.248    22640042.767
  22898782.082    -7861409.63043  -6119640.90342  22898784.064    22898782.760
  23615327.130    -9997852.07143  -7745026.61942  23615330.291    23615330.961
  22123883.578   -13490493.79143 -10497310.13442  22123884.960    22123882.610
  23715094.390    -8703898.16543  -6552501.71742  23715096.129    23715094.763
  22939540.416   -14404356.28343 -11209954.93342  22939542.480    22939538.755
 03  4  2  2  5 30.0000000  0  8G11G14G31G 3G25G15G23G18
  24020404.513    -3400194.86043  -2639908.18842  24020407.523    24020405.975
  20245706.955   -27090822.94144 -20832495.45442  20245709.520    20245704.342
  22647357.308    -9229309.47743  -7176895.67442  22647359.393    22647356.946
  22912657.707    -7788491.64343  -6062821.74642  22912659.652    22912658.655
  23596747.389   -10095489.40543  -7821107.39542  23596750.505    23596750.768
  22140574.167   -13402785.02843 -10428965.69942  22140575.560    22140573.013
  23726425.003    -8644356.31043  -6506105.47942  23726426.622    23726425.285
  22952114.868   -14338276.77043 -11158464.42442  22952117.031    22952113.275
 03  4  2  2  6  0.0000000  0  8G11G14G31G 3G25G15G23G18
  24001913.252    -3497366.11643  -2715625.93442  24001916.261    24001914.873
  20248541.578   -27075927.14444 -20820888.31342  20248544.143    20248538.903
  22654762.702    -9190393.87743  -7146571.84042  22654764.804    22654762.571
  22926584.795    -7715305.60543  -6005793.74042  22926586.680    22926585.626
  23578182.800   -10193047.13243  -7897126.13342  23578185.896    23578185.707
  22157328.039   -13314743.09243 -10360361.65042  22157329.504    22157326.749
  23737765.172    -8584762.95543  -6459669.10242  23737766.948    23737765.480
  22964708.272   -14272098.09243 -11106896.63542  22964710.473    22964706.752
 03  4  2  2  6 30.0000000  0  8G11G14G31G 3G25G15G23G18
  23983443.759    -3594424.18843  -2791255.51342  23983446.616    23983445.316
  20251463.853   -27060570.51244 -20808922.08742  20251466.464    20251461.155
  22662255.358    -9151019.65243  -7115890.64242  22662257.387    22662255.490
  22940558.353    -7641873.71543  -5948574.14142  22940560.292    22940559.554
  23559629.865   -10290541.66943  -7973095.64242  23559632.982    23559632.763
  22174141.255   -13226388.79343 -10291514.18642  22174142.708    22174139.994
  23749111.819    -8525137.21543  -6413207.50042  23749113.589    23749112.027
  22977317.013   -14205839.51543 -11055266.59142  22977319.216    22977315.238
 03  4  2  2  7  0.0000000  0  8G11G14G31G 3G25G15G23G18
  23964995.754    -3691367.38243  -2866795.54642  23964998.656    23964997.704
  20254473.435   -27044755.10444 -20796598.37442  20254476.038    20254470.764
  22669834.771    -9111189.43743  -7084854.13742  22669836.835    22669834.788
  22954578.217    -7568199.38543  -5891165.65542  22954580.131    22954579.496
  23541089.217   -10387970.72343  -8049014.15142  23541092.338    23541092.552
  22191013.605   -13137724.01443 -10222424.78942  22191014.922    22191012.424
  23760464.514    -8465479.24943  -6366720.80042  23760466.426    23760464.589
  22989940.710   -14139501.75043 -11003574.85942  22989943.000    22989938.887
 03  4  2  2  7 30.0000000  0  8G11G14G31G 3G25G15G23G18
  23946575.672    -3788164.26443  -2942221.56042  23946578.346    23946577.754
  20257575.644   -27028452.61844 -20783895.12242  20257578.245    20257572.997
  22677506.189    -9070875.74543  -7053440.90242  22677508.276    22677505.982
  22968649.444    -7494255.83543  -5833547.39142  22968651.330    22968650.313
  23522567.828   -10485301.85743  -8124856.35542  23522570.714    23522571.050
  22207950.503   -13048720.60643 -10153071.53242  22207951.757    22207949.393
  23771828.791    -8405759.02343  -6320185.54242  23771830.772    23771828.937
  23002585.043   -14073055.13343 -10951798.27842  23002587.341    23002583.518
 03  4  2  2  8  0.0000000  0  8G11G14G31G 3G25G15G23G18
  23928183.041    -3884817.42043  -3017535.57542  23928185.441    23928185.146
  20260769.338   -27011669.62044 -20770817.44242  20260771.946    20260766.647
  22685268.152    -9030085.88943  -7021656.61142  22685270.261    22685267.993
  22982770.039    -7420051.12143  -5775725.61042  22982771.965    22982770.927
  23504064.564   -10582538.01743  -8200624.54842  23504067.344    23504067.487
  22224950.515   -12959385.03643 -10083459.45142  22224951.728    22224949.603
  23783204.202    -8345981.34943  -6273605.55342  23783206.296    23783204.245
  23015249.270   -14006504.93143 -10899940.98542  23015251.609    23015247.684
 03  4  2  2  8 30.0000000  0  8G11G14G31G 3G25G15G23G18
  23909815.197    -3981339.90043  -3092747.77342  23909817.514    23909817.304
  20264051.306   -26994422.63244 -20757378.21442  20264053.915    20264048.605
  22693117.693    -8988836.97643  -6989514.62742  22693119.795    22693117.719
  22996937.021    -7345603.06743  -5717714.21042  22996938.920    22996938.073
  23485576.788   -10679691.08743  -8276327.99342  23485579.682    23485579.523
  22242010.484   -12869733.91043 -10013601.48042  22242011.713    22242009.748
  23794587.702    -8286161.04043  -6226992.31942  23794589.834    23794587.623
  23027930.224   -13939865.94943 -10848014.55042  23027932.632    23027928.817
 03  4  2  2  9  0.0000000  0  8G11G14G31G 3G25G15G23G18
  23891475.197    -4077716.77743  -3167846.49542  23891477.601    23891477.182
  20267423.636   -26976700.67444 -20743568.88142  20267426.216    20267420.940
  22701056.474    -8947118.73243  -6957006.91742  22701058.580    22701056.658
  23011152.111    -7270902.17343  -5659505.78442  23011153.974    23011153.498
  23467107.522   -10776745.63143  -8351954.66542  23467110.486    23467110.157
  22259132.795   -12779756.29343  -9943489.10042  22259133.899    22259131.986
  23805981.770    -8226285.38643  -6180335.98042  23805983.948    23805981.396
  23040630.502   -13873126.21943 -10796009.57242  23040632.859    23040628.848
 03  4  2  2  9 30.0000000  0  8G11G14G31G 3G25G15G23G18
  23873162.845    -4173949.38043  -3242832.79342  23873165.115    23873164.653
  20270885.461   -26958508.48944 -20729393.13442  20270888.020    20270882.856
  22709083.437    -8904936.78643  -6924137.89242  22709085.597    22709083.425
  23025414.145    -7195954.85243  -5601105.35442  23025416.022    23025415.551
  23448657.002   -10873702.41343  -8427505.18342  23448659.971    23448659.450
  22276316.228   -12689457.15343  -9873126.17042  22276317.421    22276315.421
  23817385.709    -8166357.57943  -6133638.98842  23817387.839    23817385.259
  23053349.153   -13806288.92543 -10743928.57942  23053351.565    23053347.428
 03  4  2  2 10  0.0000000  0  8G11G14G31G 3G25G15G23G18
  23854877.416    -4270040.43543  -3317708.79742  23854879.513    23854878.845
  20274435.473   -26939852.55544 -20714856.03442  20274438.043    20274433.032
  22717197.266    -8862298.21243  -6890913.05942  22717199.470    22717197.248
  23039721.638    -7120768.93143  -5542518.99542  23039723.517    23039722.852
  23430225.170   -10970563.58143  -8502981.18542  23430227.824    23430227.260
  22293559.753   -12598842.50543  -9802517.40742  22293561.045    22293558.817
  23828798.540    -8106382.30143  -6086905.00942  23828800.668    23828798.179
  23066085.428   -13739358.91643 -10691775.34342  23066087.717    23066083.803
 03  4  2  2 10 30.0000000  0  8G11G14G31G 3G25G15G23G18
  23836619.864    -4365983.98643  -3392469.86542  23836621.992    23836621.138
  20278074.299   -26920730.57244 -20699955.78142  20278076.845    20278071.845
  22725398.126    -8819201.48543  -6857331.20642  22725400.335    22725398.373
  23054074.997    -7045343.38543  -5483745.92542  23054076.876    23054075.782
  23411812.405   -11067322.52043  -8578377.54042  23411815.181    23411814.614
  22310863.581   -12507910.11843  -9731661.04742  22310864.987    22310862.770
  23840221.289    -8046355.36543  -6040130.78742  23840223.416    23840220.936
  23078840.090   -13672332.53043 -10639547.01242  23078842.351    23078838.463
 03  4  2  2 11  0.0000000  0  8G11G14G31G 3G25G15G23G18
  23818392.412    -4461768.94243  -3467107.35542  23818394.823    23818393.540
  20281803.145   -26901135.52444 -20684686.90142  20281805.698    20281800.601
  22733687.878    -8775640.19543  -6823387.39842  22733689.952    22733687.754
  23068474.723    -6969672.52643  -5424781.70042  23068476.832    23068475.453
  23393421.272   -11163967.74543  -8653685.28542  23393424.125    23393423.502
  22328229.292   -12416653.05743  -9660551.69742  22328230.649    22328228.512
  23851655.522    -7986267.75943  -5993309.30742  23851657.652    23851655.295
  23091614.729   -13605201.26243 -10587236.95542  23091616.955    23091612.989
 03  4  2  2 11 30.0000000  0  8G11G14G31G 3G25G15G23G18
  23800192.073    -4557411.46243  -3541633.83642  23800194.661    23800193.230
  20285618.243   -26881087.19844 -20669064.81642  20285620.790    20285615.631
  22742061.731    -8731634.98243  -6789097.64142  22742063.881    22742061.752
  23082917.077    -6893777.61643  -5365642.88942  23082919.136    23082917.892
  23375048.718   -11260514.77143  -8728916.51142  23375051.688    23375050.907
  22345652.993   -12325091.13543  -9589204.78342  22345654.374    22345652.229
  23863097.777    -7926137.64343  -5946454.65442  23863099.810    23863097.804
  23104405.884   -13537983.44643 -10534859.45242  23104408.148    23104404.107
 03  4  2  2 12  0.0000000  0  8G11G14G31G 3G25G15G23G18
  23782019.869    -4652906.26143  -3616045.20042  23782022.699    23782021.051
  20289519.916   -26860583.88444 -20653088.20242  20289522.485    20289517.291
  22750520.452    -8687184.74543  -6754461.12842  22750522.653    22750520.478
  23097402.013    -6817658.46143  -5306329.34242  23097404.046    23097403.188
  23356695.940   -11356957.61443  -8804066.56842  23356699.025    23356698.025
  22363135.007   -12233222.68843  -9517619.02042  22363136.408    22363134.317
  23874549.004    -7865961.39343  -5899564.08642  23874550.936    23874549.038
  23117214.265   -13470675.66343 -10482411.84842  23117216.495    23117212.418
 03  4  2  2 12 30.0000000  0  8G11G14G31G 3G25G15G23G18
  23763874.881    -4748258.71043  -3690345.66042  23763877.758    23763875.858
  20293506.389   -26839634.84744 -20636764.26442  20293508.977    20293503.756
  22759061.822    -8642299.59843  -6719485.70842  22759063.943    22759061.832
  23111927.691    -6741325.54143  -5246849.20942  23111929.851    23111929.300
  23338362.224   -11453300.87343  -8879139.00242  23338365.255    23338364.238
  22380673.560   -12141056.78143  -9445801.46442  22380674.959    22380673.005
  23886007.529    -7805746.48443  -5852643.39642  23886009.461    23886007.632
  23130038.275   -13403285.65843 -10429900.17842  23130040.519    23130036.458
 03  4  2  2 13  0.0000000  0  8G11G14G31G 3G25G15G23G18
  23745760.953    -4843447.11843  -3764518.29242  23745763.956    23745761.787
  20297581.069   -26818222.22544 -20620079.10542  20297583.664    20297578.478
  22767689.233    -8596962.36643  -6684158.02242  22767691.333    22767689.159
  23126497.139    -6664762.33743  -5187189.65742  23126499.333    23126498.848
  23320051.644   -11549522.52443  -8954116.70442  23320054.556    23320053.787
  22398272.119   -12048575.91643  -9373738.50842  22398273.478    22398271.548
  23897477.032    -7745472.98643  -5805677.03142  23897479.022    23897477.448
  23142881.491   -13335794.13243 -10377309.38142  23142883.704    23142879.838
 03  4  2  2 13 30.0000000  0  8G11G14G31G 3G25G15G23G18
  23727676.225    -4938483.36943  -3838572.37942  23727679.117    23727676.670
  20301741.071   -26796361.55644 -20603044.80742  20301743.636    20301738.378
  22776399.589    -8551189.25243  -6648490.68442  22776401.727    22776399.590
  23141107.429    -6587985.69643  -5127363.79042  23141109.574    23141108.794
  23301761.953   -11645633.86043  -9029008.47342  23301764.859    23301764.345
  22415927.736   -11955795.28943  -9301441.96142  22415929.105    22415927.075
  23908955.523    -7685154.45543  -5758675.61042  23908957.337    23908955.869
  23155741.170   -13268215.01543 -10324650.32842  23155743.412    23155739.800
 03  4  2  2 14  0.0000000  0  8G11G14G31G 3G25G15G23G18
  23709621.707    -5033359.33143  -3912501.54642  23709624.631    23709622.105
  20305987.037   -26774048.66644 -20585658.12842  20305989.634    20305984.337
  22785193.544    -8504976.94243  -6612481.10542  22785195.701    22785193.619
  23155758.538    -6510993.10143  -5067369.64042  23155760.717    23155759.887
  23283495.363   -11741626.34043  -9103807.59542  23283498.005    23283497.432
  22433641.125   -11862710.74443  -9228908.60042  22433642.524    22433640.516
  23920443.362    -7624785.06043  -5711634.53542  23920445.273    23920443.730
  23168618.781   -13200542.71843 -10271918.65942  23168621.006    23168617.488
 03  4  2  2 14 30.0000000  0  8G11G14G31G 3G25G15G23G18
  23691604.106    -5128041.76343  -3986279.92842  23691607.029    23691604.417
  20310324.594   -26751254.33444 -20567896.30342  20310327.190    20310321.909
  22794076.400    -8458296.95443  -6576107.11042  22794078.556    22794076.558
  23170456.292    -6433756.33543  -5007185.23342  23170458.332    23170457.508
  23265257.648   -11837466.39043  -9178487.93142  23265260.413    23265259.371
  22451417.738   -11769293.21743  -9156115.76842  22451419.114    22451417.201
  23931947.079    -7564333.52143  -5664529.45842  23931948.842    23931947.199
  23181519.973   -13132746.51543 -10219090.45342  23181522.136    23181518.594
 03  4  2  2 15  0.0000000  0  8G11G14G31G 3G25G15G23G18
  23673611.925    -5222590.46543  -4059954.09542  23673614.832    23673612.196
  20314741.688   -26728042.08244 -20549808.82842  20314744.296    20314739.005
  22803036.109    -8411213.46943  -6539418.70542  22803038.221    22803036.232
  23185188.416    -6356340.14343  -4946861.02842  23185190.390    23185189.519
  23247037.460   -11933212.73343  -9253095.27342  23247040.497    23247039.006
  22469245.943   -11675606.06143  -9083112.83542  22469247.312    22469245.213
  23943454.081    -7503861.47543  -5617408.35842  23943456.005    23943454.786
  23194433.008   -13064888.23143 -10166213.86942  23194435.192    23194431.506
 03  4  2  2 15 30.0000000  0  8G11G14G31G 3G25G15G23G18
  23655650.675    -5316976.68243  -4133501.67042  23655653.656    23655650.972
  20319243.053   -26704387.16544 -20531376.42042  20319245.663    20319240.330
  22812077.222    -8363702.45843  -6502397.15942  22812079.307    22812077.310
  23199958.859    -6278721.28343  -4886378.88542  23199960.911    23199960.114
  23228840.649   -12028836.58443  -9327607.15742  23228843.688    23228842.200
  22487130.184   -11581624.53643  -9009880.54042  22487131.619    22487129.372
  23954970.765    -7443341.86643  -5570250.24842  23954972.693    23954971.163
  23207362.943   -12996941.28743 -10113268.21342  23207365.168    23207361.390
 03  4  2  2 16  0.0000000  0  8G11G14G31G 3G25G15G23G18
  23637720.700    -5411199.24943  -4206921.72842  23637723.602    23637720.864
  20323828.241   -26680292.32444 -20512601.21142  20323830.798    20323825.417
  22821198.953    -8315767.59543  -6465045.35542  22821201.074    22821198.909
  23214766.892    -6200903.63043  -4825741.84642  23214769.029    23214768.327
  23210667.472   -12124336.07243  -9402022.14942  23210670.501    23210669.255
  22505069.658   -11487351.35543  -8936420.96942  22505071.063    22505068.976
  23966496.328    -7382775.84343  -5523055.96842  23966498.328    23966496.365
  23220309.501   -12928907.09943 -10060254.55642  23220311.702    23220307.829
 03  4  2  2 16 30.0000000  0  8G11G14G31G 3G25G15G23G18
  23619826.264    -5505234.20243  -4280195.57142  23619829.113    23619826.580
  20328500.911   -26655737.25244 -20493467.37942  20328503.506    20328498.117
  22830405.134    -8267389.39043  -6427348.09942  22830407.224    22830404.986
  23229616.686    -6122868.32343  -4764935.21442  23229618.723    23229617.992
  23192522.429   -12219686.64943  -9476321.10342  23192525.588    23192524.595
  22523068.763   -11392766.24543  -8862718.34242  22523070.077    22523067.866
  23978034.642    -7322141.16243  -5475808.17442  23978036.710    23978034.904
  23233276.596   -12860763.46643 -10007155.61042  23233278.816    23233274.931
 03  4  2  2 17  0.0000000  0  8G11G14G31G 3G25G15G23G18
  23601967.853    -5599079.42643  -4353321.58442  23601970.727    23601968.436
  20333260.747   -26630724.04444 -20473976.56142  20333263.333    20333258.015
  22839695.090    -8218570.47343  -6389307.42442  22839697.169    22839695.048
  23244507.345    -6044618.61743  -4703961.50742  23244509.297    23244508.496
  23174406.558   -12314885.52743  -9550501.86842  23174409.672    23174408.534
  22541126.911   -11297870.81943  -8788773.90942  22541128.284    22541125.900
  23989586.060    -7261437.73943  -5428506.82242  23989588.060    23989586.487
  23246264.671   -12792510.73043  -9953971.68542  23246266.868    23246262.969
 03  4  2  2 17 30.0000000  0  8G11G14G31G 3G25G15G23G18
  23584141.910    -5692754.09843  -4426314.69142  23584144.815    23584142.710
  20338103.325   -26605275.62944 -20454146.61842  20338105.924    20338100.659
  22849064.245    -8169334.68343  -6350941.90742  22849066.311    22849064.330
  23259433.935    -5966179.01943  -4642839.83142  23259435.817    23259435.178
  23156316.179   -12409951.48343  -9624579.05442  23156319.032    23156317.745
  22559239.472   -11202688.34943  -8714605.78942  22559240.898    22559238.606
  24001146.623    -7200686.87843  -5381168.53342  24001148.599    24001146.879
  23259269.372   -12724170.52543  -9900719.55942  23259271.572    23259267.653
 03  4  2  2 18  0.0000000  0  8G11G14G31G 3G25G15G23G18
  23566351.561    -5786242.56843  -4499162.71742  23566354.393    23566352.416
  20343030.971   -26579380.55644 -20433968.62242  20343033.569    20343028.235
  22858514.966    -8119671.47443  -6312243.35142  22858517.019    22858514.924
  23274398.724    -5887539.15443  -4581562.10542  23274400.590    23274400.071
  23138253.815   -12504868.46943  -9698540.15742  23138256.684    23138255.402
  22577408.932   -11107207.34243  -8640205.05442  22577410.273    22577408.054
  24012718.623    -7139875.10443  -5333782.74642  24012720.666    24012719.022
  23272293.296   -12655729.53143  -9847388.93442  23272295.389    23272291.340
 03  4  2  2 18 30.0000000  0  8G11G14G31G 3G25G15G23G18
  23548594.997    -5879553.99943  -4571872.81342  23548597.840    23548595.701
  20348041.217   -26553051.71844 -20413452.63742  20348043.821    20348038.400
  22868044.424    -8069594.35143  -6273222.27042  22868046.537    22868044.325
  23289398.799    -5808713.23843  -4520139.39842  23289400.778    23289400.263
  23120218.188   -12599645.04643  -9772391.86542  23120221.010    23120219.970
  22595632.654   -11011440.89143  -8565581.89542  22595633.943    22595631.806
  24024300.296    -7079013.18443  -5286357.87042  24024302.377    24024300.829
  23285334.006   -12587199.20643  -9793988.66642  23285336.162    23285332.236
 03  4  2  2 19  0.0000000  0  8G11G14G31G 3G25G15G23G18
  23530870.986    -5972693.81243  -4644449.17242  23530873.857    23530871.615
  20353132.180   -26526298.69544 -20392606.11442  20353134.803    20353129.398
  22877650.301    -8019113.66743  -6233886.69742  22877652.429    22877650.658
  23304432.200    -5729712.03043  -4458580.13742  23304434.240    23304433.546
  23102208.556   -12694286.24243  -9846138.08642  23102211.342    23102210.235
  22613908.927   -10915398.27843  -8490743.53442  22613910.218    22613908.120
  24035890.055    -7018108.39143  -5238899.57642  24035892.216    24035890.689
  23298390.651   -12518587.17443  -9740524.75642  23298392.728    23298388.874
 03  4  2  2 19 30.0000000  0  8G11G14G31G 3G25G15G23G18
  23513179.363    -6065663.56343  -4716893.02742  23513182.186    23513179.885
  20358302.702   -26499127.11644 -20371433.45542  20358305.307    20358300.033
  22887332.309    -7968235.81543  -6194241.67342  22887334.326    22887332.318
  23319497.778    -5650542.25743  -4396889.49942  23319499.837    23319499.101
  23084224.451   -12788792.93343  -9919779.49342  23084227.303    23084226.005
  22632236.744   -10819084.94843  -8415694.24342  22632238.017    22632235.951
  24047487.252    -6957164.27843  -5191410.67442  24047489.437    24047488.094
  23311461.905   -12449897.27043  -9687000.17242  23311463.987    23311460.341
 03  4  2  2 20  0.0000000  0  8G11G14G31G 3G25G15G23G18
  23495526.213    -6158430.32043  -4789178.69942  23495529.028    23495526.773
  20363558.412   -26471507.99444 -20349912.05042  20363561.019    20363555.760
  22897094.942    -7916932.51443  -6154265.11542  22897097.047    22897095.127
  23334600.790    -5571176.35843  -4335046.05542  23334602.762    23334602.104
  23066272.454   -12883131.48243  -9993289.89042  23066275.214    23066273.752
  22650621.679   -10722472.09943  -8340411.55242  22650622.840    22650620.769
  24059097.373    -6896149.98943  -5143867.04142  24059099.777    24059098.451
  23324553.832   -12381098.78043  -9633390.95942  23324555.998    23324552.220
 03  4  2  2 20 30.0000000  0  8G11G14G31G 3G25G15G23G18
  23477914.438    -6250979.90043  -4861295.14842  23477917.287    23477915.067
  20368901.312   -26443431.19144 -20328034.00342  20368903.884    20368898.561
  22906940.360    -7865194.55243  -6113949.86042  22906942.418    22906940.660
  23349742.852    -5491605.37143  -4273042.80442  23349744.723    23349744.080
  23048355.212   -12977287.44343 -10066658.01942  23048357.936    23048356.327
  22669065.408   -10625549.50543  -8264887.49642  22669066.646    22669064.657
  24070724.036    -6835053.07343  -5096259.11042  24070726.168    24070724.640
  23337668.580   -12312179.89143  -9579687.95942  23337670.775    23337666.961
 03  4  2  2 21  0.0000000  0  8G11G14G31G 3G25G15G23G18
  23460336.070    -6343354.88843  -4933275.53642  23460338.859    23460336.510
  20374322.447   -26414943.15344 -20305835.51642  20374325.055    20374319.652
  22916859.560    -7813069.26143  -6073332.78542  22916861.596    22916859.724
  23364914.606    -5411877.11143  -4210916.97842  23364916.567    23364916.072
  23030464.501   -13071303.02943 -10139916.76242  23030467.359    23030465.663
  22687559.203   -10528363.68743  -8189158.32742  22687560.431    22687558.633
  24082357.566    -6773918.26843  -5048621.61242  24082359.838    24082358.249
  23350798.132   -12243185.45043  -9525926.06942  23350800.232    23350796.242
 03  4  2  2 21 30.0000000  0  8G11G14G31G 3G25G15G23G18
  23442795.097    -6435533.93143  -5005103.28342  23442797.827    23442795.251
  20379824.984   -26386027.07344 -20283303.49642  20379827.623    20379822.249
  22926855.675    -7760540.45543  -6032401.30542  22926857.747    22926855.599
  23380119.312    -5331975.80943  -4148656.34642  23380121.225    23380120.980
  23012604.519   -13165156.23143 -10213048.97942  23012607.557    23012605.830
  22706106.479   -10430897.55343  -8113210.73442  22706107.694    22706105.810
  24094002.191    -6712726.34643  -5000939.60942  24094004.319    24094002.284
  23363945.060   -12174096.61943  -9472090.61442  23363947.365    23363943.605
 03  4  2  2 22  0.0000000  0  8G11G14G31G 3G25G15G23G18
  23425288.917    -6527529.37743  -5076787.94442  23425291.709    23425288.912
  20385405.854   -26356699.00244 -20260450.44942  20385408.480    20385403.216
  22936925.131    -7707624.96943  -5991168.49142  22936927.271    22936924.919
  23395353.663    -5251918.58743  -4086274.20642  23395355.520    23395355.401
  22994773.387   -13258858.88943 -10286063.87542  22994776.341    22994774.572
  22724704.169   -10333167.10343  -8037057.18142  22724705.414    22724703.162
  24105654.956    -6651491.33843  -4953224.00442  24105657.133    24105654.591
  23377107.449   -12104927.83743  -9418192.88442  23377109.686    23377106.064
 03  4  2  2 22 30.0000000  0  8G11G14G31G 3G25G15G23G18
  23407823.029    -6619312.16143  -5148306.89542  23407825.757    23407823.136
  20391069.953   -26326933.85644 -20237256.82142  20391072.546    20391067.309
  22947072.741    -7654298.73543  -5949615.60842  22947074.818    22947072.578
  23410622.457    -5171681.80643  -4023752.15042  23410624.121    23410623.917
  22976976.413   -13352381.41743 -10358938.42642  22976979.306    22976977.552
  22743356.572   -10235147.26143  -7960678.12942  22743357.971    22743355.570
  24117320.936    -6590186.20743  -4905453.80842  24117323.067    24117320.358
  23390290.395   -12035652.29843  -9364211.96942  23390292.453    23390288.696
 03  4  2  2 23  0.0000000  0  8G11G14G31G 3G25G15G23G18
  23390394.927    -6710897.59643  -5219672.07442  23390397.535    23390394.826
  20396813.506   -26296751.31644 -20213737.93942  20396816.110    20396810.849
  22957294.535    -7600582.14243  -5907758.54542  22957296.598    22957294.592
  23425921.417    -5091286.11743  -3961106.29042  23425923.154    23425922.904
  22959210.874   -13445739.14643 -10431684.54742  22959213.740    22959211.941
  22762060.493   -10136857.83443  -7884089.01042  22762061.827    22762059.458
  24128996.855    -6528828.47843  -4857642.58642  24128998.978    24128996.372
  23403489.711   -11966287.92443  -9310161.80042  23403491.880    23403488.261
 03  4  2  2 23 30.0000000  0  8G11G14G31G 3G25G15G23G18
  23373007.895    -6802267.28843  -5290869.16742  23373010.509    23373007.634
  20402639.225   -26266137.05644 -20189882.66342  20402641.818    20402636.571
  22967593.485    -7546461.60243  -5865586.74142  22967595.503    22967593.553
  23441253.135    -5010718.31643  -3898326.30942  23441254.906    23441254.731
  22941480.389   -13538912.84643 -10504287.26442  22941483.233    22941481.482
  22780818.394   -10038284.23543  -7807278.45542  22780819.770    22780817.479
  24140686.073    -6467401.49543  -4809777.44242  24140688.242    24140685.818
  23416709.245   -11896818.39443  -9256029.72442  23416711.380    23416707.909
 03  4  2  2 24  0.0000000  0  8G11G14G31G 3G25G15G23G18
  23355661.192    -6893424.36143  -5361900.56342  23355663.918    23355660.942
  20408545.646   -26235098.34244 -20165696.64442  20408548.245    20408543.056
  22977967.744    -7491945.13143  -5823106.40542  22977969.871    22977967.923
  23456615.924    -4929986.64343  -3835418.63042  23456617.793    23456617.482
  22923784.336   -13631905.23343 -10576748.70842  22923787.206    22923785.511
  22799629.000    -9939433.56043  -7730252.00242  22799630.305    22799628.245
  24152387.619    -6405910.34843  -4761862.26942  24152389.782    24152387.398
  23429948.009   -11827249.00643  -9201819.83742  23429950.164    23429946.438
 03  4  2  2 24 30.0000000  0  8G11G14G31G 3G25G15G23G18
  23338353.666    -6984375.89343  -5432771.77642  23338356.381    23338353.375
  20414530.728   -26203646.23844 -20141188.50342  20414533.316    20414528.209
  22988414.717    -7437044.78043  -5780326.93242  22988416.883    22988415.076
  23472007.481    -4849103.81343  -3772393.16442  23472009.424    23472009.051
  22906121.599   -13724722.76943 -10649073.91242  22906124.429    22906122.693
  22818490.451    -9840317.04243  -7653018.41142  22818491.673    22818489.500
  24164099.464    -6344364.19343  -4713904.22542  24164101.674    24164099.359
  23443203.953   -11757589.27043  -9147539.54442  23443206.068    23443202.202
 03  4  2  2 25  0.0000000  0  8G11G14G31G 3G25G15G23G18
  23321082.269    -7075137.60743  -5503495.10642  23321085.061    23321081.866
  20420590.815   -26171800.44644 -20116373.59042  20420593.371    20420588.245
  22998931.004    -7381780.83443  -5737264.16242  22998933.172    22998931.365
  23487423.875    -4768090.26143  -3709265.84642  23487425.762    23487425.525
  22888489.481   -13817380.00943 -10721274.18742  22888492.254    22888490.359
  22837398.668    -9740954.12043  -7575592.80042  22837399.977    22837397.629
  24175818.478    -6282780.18843  -4665916.65442  24175820.728    24175818.640
  23456473.505   -11687856.81243  -9093202.56342  23456475.681    23456471.706
 03  4  2  2 25 30.0000000  0  8G11G14G31G 3G25G15G23G18
  23303851.877    -7165683.95043  -5574050.57242  23303854.720    23303851.439
  20426729.743   -26139540.26744 -20091235.78042  20426732.302    20426727.135
  23009520.389    -7326133.76543  -5693902.86642  23009522.486    23009520.605
  23502868.835    -4686926.70743  -3646021.64542  23502870.751    23502870.467
  22870892.533   -13909852.45043 -10793330.46342  22870895.211    22870893.229
  22856357.621    -9641324.38343  -7497959.27242  22856358.746    22856356.607
  24187549.167    -6221135.79743  -4617882.06542  24187551.388    24187549.224
  23469761.210   -11618029.49043  -9038791.70342  23469763.279    23469759.242
 03  4  2  2 26  0.0000000  0  8G11G14G31G 3G25G15G23G18
  23286660.767    -7256024.24743  -5644445.50942  23286663.751    23286660.293
  20432945.011   -26106878.76744 -20065785.25242  20432947.587    20432942.397
  23020179.954    -7270117.30343  -5650253.71542  23020182.056    23020180.224
  23518339.503    -4605627.43443  -3582671.67942  23518341.436    23518341.207
  22853328.937   -14002148.52143 -10865249.32342  22853331.644    22853329.707
  22875364.804    -9541440.90743  -7420128.01742  22875365.976    22875363.973
  24199289.132    -6159441.79843  -4569808.79442  24199291.351    24199289.388
  23483064.822   -11548118.27843  -8984315.45142  23483067.049    23483062.760
 03  4  2  2 26 30.0000000  0  8G11G14G31G 3G25G15G23G18
  23269508.399    -7346161.09343  -5714681.91142  23269511.404    23269507.760
  20439235.325   -26073822.65244 -20040027.22842  20439237.949    20439232.717
  23030908.420    -7213739.03543  -5606322.64042  23030910.511    23030908.829
  23533834.289    -4524199.99943  -3519221.83242  23533836.324    23533836.471
  22835798.619   -14094270.04443 -10937032.18142  22835801.315    22835799.371
  22894419.176    -9441310.02643  -7342104.01342  22894420.382    22894418.299
  24211037.742    -6097702.80543  -4521700.47742  24211039.982    24211038.094
  23496383.544   -11478128.19843  -8929777.72742  23496385.803    23496381.225
 03  4  2  2 27  0.0000000  0  8G11G14G31G 3G25G15G23G18
  23252402.243    -7436054.80443  -5784728.87842  23252405.213    23252401.433
  20445607.536   -26040336.30944 -20013933.95942  20445610.143    20445604.933
  23041712.743    -7156964.07343  -5562082.46942  23041714.749    23041712.800
  23549360.783    -4442609.90343  -3455645.25842  23549362.557    23549362.763
  22818309.260   -14186176.81743 -11008647.70242  22818311.868    22818309.901
  22913527.308    -9340896.13943  -7263859.47842  22913528.548    22913526.278
  24222802.033    -6035881.00943  -4473527.61842  24222804.279    24222802.460
  23509724.524   -11408021.62543  -8875149.24642  23509726.755    23509722.014
 03  4  2  2 27 30.0000000  0  8G11G14G31G 3G25G15G23G18
  23235337.496    -7525729.49743  -5854605.16242  23235340.497    23235336.830
  20452056.162   -26006448.43244 -19987527.80942  20452058.742    20452053.612
  23052586.516    -7099821.98643  -5517556.19642  23052588.605    23052586.537
  23564912.586    -4360886.87943  -3391965.09742  23564914.392    23564914.340
  22800856.265   -14277892.88043 -11080114.60842  22800858.822    22800856.731
  22932683.762    -9240228.01043  -7185416.82042  22932685.082    22932682.712
  24234577.047    -5974002.79243  -4425310.79842  24234579.265    24234577.428
  23523082.114   -11337825.26243  -8820450.76442  23523084.417    23523080.251
 03  4  2  2 28  0.0000000  0  8G11G14G31G 3G25G15G23G18
  23218317.812    -7615167.07443  -5924296.67742  23218320.900    23218317.290
  20458583.933   -25972145.03444 -19960797.87242  20458586.501    20458581.312
  23063532.385    -7042299.61843  -5472733.59142  23063534.519    23063532.819
  23580491.783    -4279017.96943  -3328171.25142  23580493.740    23580493.683
  22783443.048   -14369399.42343 -11151418.24942  22783445.639    22783443.435
  22951891.373    -9139291.43243  -7106764.98442  22951892.676    22951890.519
  24246365.882    -5912051.96043  -4377037.43742  24246368.129    24246366.255
  23536460.455   -11267523.22243  -8765669.97542  23536462.697    23536458.540
 03  4  2  2 28 30.0000000  0  8G11G14G31G 3G25G15G23G18
  23201346.462    -7704351.70543  -5993791.10242  23201349.503    23201345.842
  20465192.956   -25937414.33644 -19933734.97342  20465195.553    20465190.277
  23074553.089    -6984386.18543  -5427606.30142  23074555.165    23074553.504
  23596100.670    -4196992.78143  -3264255.64142  23596102.637    23596102.663
  22766072.815   -14460680.34843 -11222546.10142  22766075.446    22766073.160
  22971152.216    -9038074.77243  -7027894.90142  22971153.553    22971151.676
  24258171.222    -5850014.62043  -4328696.65042  24258173.461    24258171.613
  23549860.997   -11197102.12143  -8710796.36642  23549863.411    23549859.354
 03  4  2  2 29  0.0000000  0  8G11G14G31G 3G25G15G23G18
  23184416.782    -7793317.81343  -6063115.23042  23184419.748    23184415.978
  20471875.798   -25902295.34644 -19906369.51842  20471878.424    20471873.195
  23085640.483    -6926121.15643  -5382205.02442  23085642.549    23085640.811
  23611731.637    -4114851.10143  -3200249.23342  23611733.538    23611733.892
  22748739.018   -14551769.62743 -11293524.61942  22748741.752    22748739.419
  22990459.263    -8936616.49043  -6948836.54742  22990460.504    22990458.700
  24269986.051    -5787927.30843  -4280316.91642  24269988.269    24269986.475
  23563277.401   -11126598.70243  -8655858.64042  23563279.699    23563275.748
 03  4  2  2 29 30.0000000  0  8G11G14G31G 3G25G15G23G18
  23167527.437    -7882070.63043  -6132273.18142  23167530.493    23167526.710
  20478630.850   -25866797.25744 -19878708.65842  20478633.423    20478628.216
  23096793.078    -6867514.79543  -5336537.79842  23096795.035    23096792.934
  23627382.754    -4032603.29743  -3136160.14342  23627384.715    23627385.099
  22731440.790   -14642672.06043 -11364357.53942  22731443.558    22731441.187
  23009810.351    -8834926.18143  -6869597.39342  23009811.590    23009809.687
  24281808.850    -5725797.07243  -4231903.73042  24281811.073    24281809.451
  23576708.195   -11056020.42943  -8600862.59142  23576710.546    23576706.268
 03  4  2  2 30  0.0000000  0  8G11G14G31G 3G25G15G23G18
  23150682.529    -7970590.51343  -6201249.60942  23150685.537    23150681.807
  20485460.972   -25830905.00044 -19850740.64342  20485463.498    20485458.189
  23108013.266    -6808553.04143  -5290593.63942  23108015.272    23108012.886
  23643057.139    -3950235.50143  -3071977.56242  23643058.892    23643059.059
  22714181.869   -14733367.62443 -11435029.26842  22714184.653    22714182.313
  23029208.295    -8732988.71943  -6790165.65042  23029209.463    23029207.635
  24293643.363    -5663606.70543  -4183443.68742  24293645.378    24293643.948
  23590156.406   -10985350.42743  -8545795.10442  23590158.722    23590154.299
 03  4  2  2 30 30.0000000  0  8G11G14G31G 3G25G15G23G18
  23133883.078    -8058871.43243  -6270039.83642  23133886.142    23133882.403
  20492366.489   -25794616.13544 -19822463.58142  20492369.046    20492363.699
  23119301.143    -6749234.31743  -5244371.28542  23119303.215    23119301.155
  23658754.447    -3867746.21543  -3007700.31442  23658756.295    23658756.388
  22696963.538   -14823849.68243 -11505534.63842  22696966.371    22696963.983
  23048653.796    -8630801.67043  -6710539.42442  23048655.036    23048653.168
  24305489.925    -5601351.60343  -4134933.18942  24305492.097    24305490.670
  23603622.706   -10914584.35243  -8490652.71242  23603624.992    23603620.629
 03  4  2  2 31  0.0000000  0  8G11G14G31G 3G25G15G23G18
  23117134.398    -8146886.30243  -6338622.75042  23117137.376    23117133.706
  20499351.776   -25757908.23644 -19793860.00842  20499354.326    20499349.050
  23130661.258    -6689536.84143  -5197853.83542  23130663.309    23130661.537
  23674479.044    -3785114.03843  -2943311.72142  23674480.971    23674480.951
  22679790.996   -14914090.86543 -11575852.29442  22679793.841    22679791.557
  23068151.354    -8528342.32243  -6630701.03142  23068152.480    23068150.755
  24317353.911    -5539006.89943  -4086352.89242  24317356.136    24317354.393
  23617111.921   -10843697.64243  -8435416.26842  23617114.082    23617110.048
 03  4  2  2 31 30.0000000  0  8G11G14G31G 3G25G15G23G18
  23100431.810    -8234658.62843  -6407016.67642  23100434.672    23100431.091
  20506411.495   -25720809.19244 -19764951.64642  20506414.054    20506408.831
  23142087.710    -6629489.36243  -5151063.63542  23142089.690    23142088.216
  23690225.212    -3702367.62043  -2878834.11942  23690227.243    23690227.192
  22662659.877   -15004114.43643 -11646000.39242  22662662.688    22662660.614
  23087695.201    -8425638.56843  -6550672.17242  23087696.349    23087694.922
  24329229.621    -5476598.04943  -4037722.59742  24329231.969    24329230.381
  23630619.024   -10772716.06143  -8380105.91842  23630621.244    23630617.524
 03  4  2  2 32  0.0000000  0  8G11G14G31G 3G25G15G23G18
  23083772.527    -8322202.13443  -6475232.29742  23083775.397    23083771.972
  20513542.165   -25683336.84644 -19735752.40742  20513544.770    20513539.633
  23153577.550    -6569110.84743  -5104015.49742  23153579.416    23153577.941
  23705989.689    -3619526.38343  -2814282.63542  23705991.612    23705991.390
  22645567.745   -15093933.54943 -11715989.19542  22645570.494    22645568.560
  23107282.310    -8322708.45743  -6470466.93242  23107283.490    23107282.074
  24341114.585    -5414140.90443  -3989054.67942  24341116.825    24341115.542
  23644141.311   -10701655.95543  -8324734.40042  23644143.472    23644139.956
 03  4  2  2 32 30.0000000  0  8G11G14G31G 3G25G15G23G18
  23067162.514    -8409486.92443  -6543246.31942  23067165.376    23067162.184
  20520748.817   -25645465.48744 -19706242.24642  20520751.357    20520746.262
  23165135.088    -6508376.23843  -5056689.89042  23165137.026    23165135.704
  23721776.694    -3536565.36843  -2749637.78742  23721778.638    23721778.454
  22628520.382   -15183517.96943 -11785795.11542  22628522.978    22628521.025
  23126917.175    -8219526.03943  -6390065.09742  23126918.479    23126917.168
  24353014.253    -5351607.55243  -3940327.39142  24353016.446    24353015.211
  23657684.027   -10630489.46543  -8269279.99942  23657686.100    23657682.539
 03  4  2  2 33  0.0000000  0  8G11G14G31G 3G25G15G23G18
  23050594.533    -8496551.54543  -6611088.78142  23050597.294    23050594.340
  20528023.161   -25607238.34744 -19676454.85642  20528025.680    20528020.562
  23176751.987    -6447329.56343  -5009121.12542  23176754.051    23176752.613
  23737578.132    -3453528.49043  -2684933.84242  23737580.003    23737580.014
  22611510.114   -15272906.06643 -11855448.06542  22611512.804    22611510.784
  23146592.032    -8116134.20843  -6309500.09342  23146593.259    23146591.970
  24364920.337    -5289038.60943  -3891572.37442  24364922.667    24364921.665
  23671238.768   -10559257.93043  -8213774.92142  23671240.936    23671237.527
 03  4  2  2 33 30.0000000  0  8G11G14G31G 3G25G15G23G18
  23034071.306    -8583381.10243  -6678748.06342  23034073.947    23034071.239
  20535367.378   -25568644.42044 -19646381.65742  20535369.904    20535364.666
  23188430.278    -6385960.92343  -4961301.49642  23188432.396    23188430.577
  23753395.716    -3370406.39043  -2620163.50442  23753397.590    23753397.830
  22594540.519   -15362082.49643 -11924936.07642  22594543.086    22594540.907
  23166308.841    -8012522.37043  -6228763.63642  23166309.958    23166308.636
  24376836.226    -5226421.06543  -3842779.55142  24376838.531    24376837.368
  23684808.529   -10487948.32643  -8158208.99842  23684810.621    23684807.240
 03  4  2  2 34  0.0000000  0  8G11G14G31G 3G25G15G23G18
  23017601.332    -8669931.17543  -6746189.57542  23017603.898    23017601.263
  20542788.931   -25529643.91644 -19615991.64542  20542791.453    20542786.146
  23200176.986    -6324231.15843  -4913200.42742  23200179.149    23200177.335
  23769236.992    -3287159.83043  -2555296.17042  23769238.944    23769239.310
  22577619.531   -15451002.27043 -11994224.10542  22577622.154    22577619.913
  23186074.886    -7908650.30843  -6147824.40842  23186076.030    23186074.870
  24388769.145    -5163712.64843  -3793915.90142  24388771.408    24388770.104
  23698401.190   -10416518.57243  -8102549.46242  23698403.274    23698399.854
 03  4  2  2 34 30.0000000  0  8G11G14G31G 3G25G15G23G18
  23001183.272    -8756208.83043  -6813418.81842  23001185.828    23001183.148
  20550285.704   -25490247.83044 -19585293.39542  20550288.238    20550282.971
  23211989.843    -6262152.40743  -4864827.43942  23211992.074    23211990.590
  23785099.794    -3203800.87543  -2490341.25542  23785101.765    23785102.117
  22560746.358   -15539672.01243 -12063317.29242  22560748.840    22560746.500
  23205888.464    -7804529.25443  -6066691.15642  23205889.667    23205888.487
  24400717.668    -5100922.24143  -3744988.35542  24400719.939    24400718.651
  23712014.643   -10344978.05643  -8046803.59942  23712016.752    23712013.622
 03  4  2  2 35  0.0000000  0  8G11G14G31G 3G25G15G23G18
  22984809.708    -8842252.69943  -6880465.87642  22984812.288    22984809.540
  20557849.500   -25450499.81344 -19554320.91142  20557852.042    20557846.824
  23223861.535    -6199769.05043  -4816217.10742  23223863.562    23223861.961
  23800975.536    -3120374.14943  -2425333.55442  23800977.270    23800977.866
  22543913.182   -15628130.51143 -12132245.87742  22543915.711    22543913.237
  23225741.221    -7700202.76443  -5985397.83342  23225742.391    23225741.263
  24412674.207    -5038091.05543  -3696029.02742  24412676.353    24412674.928
  23725641.534   -10273368.34043  -7991003.82942  23725643.559    23725640.725
 03  4  2  2 35 30.0000000  0  8G11G14G31G 3G25G15G23G18
  22968487.336    -8928026.24843  -6947302.26142  22968489.941    22968487.332
  20565486.520   -25410366.66544 -19523048.32542  20565489.060    20565483.924
  23235796.556    -6137048.83543  -4767344.26242  23235798.638    23235797.343
  23816870.353    -3036847.52143  -2360247.97742  23816872.036    23816872.549
  22527127.232   -15716340.05743 -12200980.47942  22527129.890    22527127.405
  23245639.318    -7595637.63743  -5903918.56942  23245640.557    23245639.528
  24424645.291    -4975183.35343  -3647010.04342  24424647.259    24424645.896
  23739288.317   -10201654.26543  -7935122.71142  23739290.273    23739287.529
 03  4  2  2 36  0.0000000  0  8G11G14G31G 3G25G15G23G18
  22952211.903    -9013553.69843  -7013946.89942  22952214.552    22952211.843
  20573191.384   -25369877.47644 -19491498.30442  20573193.911    20573188.737
  23247790.184    -6074021.62943  -4718232.20242  23247792.242    23247790.944
  23832778.406    -2953250.66943  -2295107.70842  23832780.172    23832780.404
  22510384.174   -15804324.88243 -12269539.96942  22510386.810    22510384.415
  23265577.559    -7490862.80043  -5822275.88842  23265578.699    23265577.597
  24436625.647    -4912226.20743  -3597952.52342  24436627.589    24436626.360
  23752949.477   -10129863.02243  -7879181.48642  23752951.510    23752949.052
 03  4  2  2 36 30.0000000  0  8G11G14G31G 3G25G15G23G18
  22935984.924    -9098827.17343  -7080393.63742  22935987.662    22935984.632
  20580964.722   -25329028.59144 -19459667.99842  20580967.268    20580961.983
  23259842.914    -6010684.84443  -4668878.91842  23259844.775    23259843.423
  23848700.315    -2869581.23343  -2229910.88142  23848702.195    23848702.143
  22493685.619   -15892076.51743 -12337917.74942  22493688.142    22493685.718
  23285556.021    -7385874.54743  -5740466.90342  23285557.401    23285556.194
  24448616.467    -4849213.64743  -3548851.79942  24448618.468    24448617.526
  23766626.600   -10057988.91143  -7823175.69742  23766628.631    23766626.282
 03  4  2  2 37  0.0000000  0  8G11G14G31G 3G25G15G23G18
  22919814.730    -9183801.84443  -7146607.53542  22919817.516    22919814.300
  20588814.079   -25287780.01944 -19427526.24142  20588816.652    20588811.293
  23271962.317    -5946999.12143  -4619253.75242  23271964.166    23271962.376
  23864643.324    -2785800.19943  -2164627.06942  23864645.406    23864645.125
  22477039.708   -15979550.21243 -12406078.94942  22477042.332    22477039.816
  23305582.796    -7280632.84243  -5658460.41342  23305584.255    23305582.911
  24460626.207    -4786103.10643  -3499674.74742  24460628.091    24460627.259
  23780327.674    -9985989.68743  -7767072.44042  23780329.708    23780327.230
 03  4  2  2 37 30.0000000  0  8G11G14G31G 3G25G15G23G18
  22903697.320    -9268499.20643  -7212605.34142  22903700.139    22903696.819
  20596734.615   -25246157.16344 -19395092.84242  20596737.185    20596731.849
  23284142.408    -5882990.99643  -4569377.32142  23284144.401    23284142.855
  23880602.286    -2701933.74443  -2099276.72042  23880604.343    23880604.609
  22460442.833   -16066767.47243 -12474040.32942  22460445.444    22460442.786
  23325653.175    -7175163.28343  -5576276.40342  23325654.516    23325652.984
  24472650.182    -4722917.88643  -3450439.53142  24472652.136    24472650.946
  23794047.747    -9913889.10443  -7710890.17342  23794049.819    23794047.496
 03  4  2  2 38  0.0000000  0  8G11G14G31G 3G25G15G23G18
  22887633.834    -9352912.68143  -7278381.93742  22887636.715    22887633.344
  20604726.845   -25204157.65544 -19362365.94842  20604729.388    20604724.073
  23296384.526    -5818658.99843  -4519248.54242  23296386.395    23296384.959
  23896577.812    -2617980.17843  -2033858.47242  23896579.726    23896580.629
  22443896.153   -16153720.77643 -12541796.01842  22443898.745    22443896.074
  23345767.429    -7069463.40943  -5493912.91842  23345768.797    23345767.088
  24484689.211    -4659653.22443  -3401142.42742  24484691.230    24484689.574
  23807788.200    -9841682.74743  -7654625.48542  23807790.047    23807787.714
 03  4  2  2 38 30.0000000  0  8G11G14G31G 3G25G15G23G18
  22871620.571    -9437062.48043  -7343953.07942  22871623.516    22871619.951
  20612786.072   -25161806.25044 -19329364.84642  20612788.606    20612783.268
  23308683.049    -5754028.67643  -4468887.29442  23308685.032    23308683.677
  23912565.556    -2533965.17743  -1968392.36942  23912567.249    23912568.178
  22427395.698   -16240429.93643 -12609361.47642  22427398.425    22427395.754
  23365920.486    -6963557.84643  -5411389.12642  23365921.964    23365920.502
  24496739.006    -4596331.39143  -3351800.73542  24496741.152    24496739.437
  23821545.010    -9769392.92343  -7598295.77142  23821546.735    23821543.807
 03  4  2  2 39  0.0000000  0  8G11G14G31G 3G25G15G23G18
  22855654.728    -9520963.47343  -7409330.36542  22855657.611    22855653.895
  20620908.548   -25119122.23444 -19296104.57542  20620911.099    20620905.817
  23321034.945    -5689120.21343  -4418309.31442  23321036.842    23321035.426
  23928560.994    -2449909.56343  -1902894.60642  23928562.768    23928563.690
  22410938.943   -16326909.91943 -12676748.34942  22410941.701    22410938.864
  23386108.927    -6857465.90843  -5328720.14142  23386110.306    23386109.244
  24508796.377    -4532969.61243  -3302427.94142  24508798.510    24508796.994
  23835313.732    -9697037.45843  -7541914.86242  23835315.458    23835312.414
 03  4  2  2 39 30.0000000  0  8G11G14G31G 3G25G15G23G18
  22839744.720    -9604570.64243  -7474478.69142  22839747.593    22839743.749
  20629102.023   -25076065.14744 -19262553.58842  20629104.565    20629099.272
  23333447.207    -5623894.13843  -4367483.85442  23333449.161    23333447.479
  23944572.041    -2365773.47943  -1837334.15442  23944573.759    23944574.501
  22394534.443   -16413115.59443 -12743921.47142  22394537.147    22394534.291
  23406340.705    -6751147.21043  -5245874.44942  23406342.006    23406340.994
  24520869.523    -4469525.02343  -3252990.59242  24520871.673    24520869.924
  23849103.120    -9624573.68543  -7485449.57842  23849104.919    23849101.777
 03  4  2  2 40  0.0000000  0  8G11G14G31G 3G25G15G23G18
  22823890.219    -9687886.19843  -7539399.78242  22823893.180    22823889.264
  20637365.389   -25032641.14244 -19228716.68842  20637367.906    20637362.568
  23345918.254    -5558357.50443  -4316416.38342  23345920.326    23345918.878
  23960596.804    -2281563.89043  -1771716.42642  23960598.694    23960599.159
  22378181.852   -16499048.11943 -12810881.76542  22378184.589    22378181.816
  23426614.557    -6644607.55143  -5162856.59242  23426615.850    23426614.693
  24532957.726    -4406001.42743  -3203491.70342  24532959.813    24532957.939
  23862912.700    -9552005.62343  -7428903.07842  23862914.759    23862910.903
 03  4  2  2 40 30.0000000  0  8G11G14G31G 3G25G15G23G18
  22808089.525    -9770919.68243  -7604101.07342  22808092.429    22808088.523
  20645695.820   -24988864.22344 -19194604.79742  20645698.365    20645693.070
  23358445.946    -5492525.12743  -4265118.49742  23358447.907    23358446.431
  23976632.383    -2197295.61043  -1706052.97042  23976634.565    23976635.036
  22361879.683   -16584716.73743 -12877636.40642  22361882.326    22361879.646
  23446927.801    -6537860.92743  -5079677.46742  23446929.000    23446927.811
  24545058.888    -4342410.27843  -3153940.21942  24545060.810    24545058.646
  23876739.559    -9479345.22943  -7372284.63842  23876741.719    23876737.635
 03  4  2  2 41  0.0000000  0  8G11G14G31G 3G25G15G23G18
  22792343.323    -9853665.75143  -7668578.39442  22792346.233    22792342.400
  20654093.584   -24944733.60244 -19160217.29542  20654096.126    20654090.830
  23371029.771    -5426397.26943  -4213590.35342  23371031.622    23371030.139
  23992679.226    -2112969.10643  -1640344.14142  23992681.403    23992681.945
  22345628.594   -16670116.47743 -12944181.53942  22345631.257    22345628.523
  23467280.430    -6430906.78143  -4996336.61942  23467281.546    23467280.459
  24557173.303    -4278748.48243  -3104333.64542  24557175.209    24557172.980
  23890584.152    -9406589.70743  -7315591.99142  23890586.286    23890582.616
 03  4  2  2 41 30.0000000  0  8G11G14G31G 3G25G15G23G18
  22776648.353    -9936142.90243  -7732846.19542  22776651.245    22776647.414
  20662554.367   -24900271.78844 -19125571.71842  20662556.920    20662551.627
  23383665.012    -5359997.50543  -4161850.30842  23383666.882    23383665.800
  24008732.728    -2028607.66343  -1574608.07942  24008734.808    24008735.668
  22329425.444   -16755264.94443 -13010530.87242  22329428.120    22329425.167
  23487668.643    -6323767.65243  -4912851.63942  23487669.650    23487668.569
  24569297.414    -4215036.31743  -3054687.81742  24569299.324    24569297.019
  23904443.153    -9333759.81643  -7258841.41142  23904445.137    23904441.891
 03  4  2  2 42  0.0000000  0  8G11G14G31G 3G25G15G23G18
  22761012.993   -10018306.37943  -7796869.57442  22761015.854    22761011.999
  20671085.873   -24855438.52744 -19090636.69242  20671088.410    20671083.074
  23396359.776    -5293286.16243  -4109867.49342  23396361.757    23396360.522
  24024800.698    -1944171.74343  -1508813.99342  24024802.616    24024803.401
  22313278.576   -16840117.06143 -13076649.27842  22313281.292    22313278.144
  23508099.358    -6216403.04043  -4829190.95542  23508100.596    23508099.489
  24581439.012    -4151230.94243  -3004969.34542  24581440.972    24581438.874
  23918324.440    -9260812.90343  -7201999.66042  23918326.534    23918323.320
 03  4  2  2 42 30.0000000  0  8G11G14G31G 3G25G15G23G18
  22745433.445   -10100176.46243  -7860664.34842  22745436.272    22745432.403
  20679683.181   -24810259.04244 -19055431.89142  20679685.717    20679680.463
  23409109.234    -5226289.41143  -4057662.30142  23409111.218    23409109.537
  24040877.805    -1859687.33943  -1442982.14342  24040879.623    24040880.455
  22297184.087   -16924693.34743 -13142552.76342  22297186.823    22297183.638
  23528568.224    -6108838.16643  -4745374.21942  23528569.502    23528568.294
  24593594.168    -4087355.17843  -2955196.03642  24593596.129    24593594.246
  23932223.590    -9187772.18843  -7145084.82842  23932225.723    23932222.371
 03  4  2  2 43  0.0000000  0  8G11G14G31G 3G25G15G23G18
  22729911.301   -10181745.15643  -7924224.27442  22729914.013    22729910.204
  20688347.258   -24764729.10244 -19019954.00342  20688349.755    20688344.488
  23421913.147    -5159004.27243  -4005232.36242  23421915.323    23421913.452
  24056964.505    -1775151.25643  -1377110.01042  24056966.280    24056967.412
  22281143.862   -17008985.26443 -13208234.65842  22281146.619    22281143.282
  23549076.237    -6001069.00043  -4661398.32742  23549077.343    23549076.031
  24605763.760    -4023402.88943  -2905363.07842  24605765.742    24605764.048
  23946141.942    -9114631.38543  -7088092.02342  23946144.033    23946140.440
 03  4  2  2 43 30.0000000  0  8G11G14G31G 3G25G15G23G18
  22714444.574   -10263022.07943  -7987556.81642  22714447.280    22714443.651
  20697075.199   -24718862.95444 -18984214.13942  20697077.711    20697072.531
  23434769.039    -5091445.81943  -3952589.48542  23434771.273    23434769.248
  24073058.296    -1690578.43743  -1311209.25742  24073059.981    24073061.342
  22265155.799   -17093002.23943 -13273702.31342  22265158.578    22265155.320
  23569620.055    -5893109.79343  -4577274.30242  23569621.372    23569620.029
  24617945.565    -3959385.79743  -2855479.63342  24617947.567    24617945.886
  23960076.895    -9041402.77643  -7031030.78342  23960078.979    23960075.348
 03  4  2  2 44  0.0000000  0  8G11G14G31G 3G25G15G23G18
  22699034.626   -10344002.45343  -8050658.31842  22699037.252    22699033.384
  20705867.208   -24672660.29744 -18948212.06042  20705869.728    20705864.642
  23447676.866    -5023614.32243  -3899733.82042  23447679.047    23447677.344
  24089158.959    -1605969.48343  -1245280.34042  24089160.549    24089161.925
  22249220.856   -17176739.25943 -13338951.84042  22249223.645    22249220.571
  23590200.557    -5784959.87143  -4493001.69242  23590201.788    23590200.493
  24630140.593    -3895300.85243  -2805543.39442  24630142.428    24630140.395
  23974028.860    -8968083.68643  -6973899.00042  23974030.913    23974027.549
 03  4  2  2 44 30.0000000  0  8G11G14G31G 3G25G15G23G18
  22683680.769   -10424687.12843  -8113529.40342  22683683.492    22683679.481
  20714722.367   -24626125.86844 -18911951.46142  20714724.866    20714719.875
  23460635.273    -4955515.75043  -3846670.03442  23460637.422    23460636.505
  24105265.285    -1521330.00843  -1179327.64442  24105266.941    24105268.161
  22233339.392   -17260196.62843 -13403983.45242  22233342.132    22233339.071
  23610816.088    -5676624.05543  -4408584.23442  23610817.559    23610816.392
  24642347.998    -3831150.80343  -2755556.37042  24642349.807    24642347.680
  23987997.759    -8894676.98743  -6916698.99442  23987999.769    23987996.507
 03  4  2  2 45  0.0000000  0  8G11G14G31G 3G25G15G23G18
  22668387.469   -10505054.40143  -8176153.18142  22668390.147    22668386.031
  20723643.973   -24579242.53144 -18875418.97942  20723646.450    20723641.537
  23473648.298    -4887134.03843  -3793385.64842  23473650.050    23473649.424
  24121380.527    -1436643.85243  -1113338.58142  24121382.180    24121383.401
  22217515.344   -17343352.58643 -13468780.18642  22217517.993    22217514.887
  23631470.337    -5568085.39443  -4324008.69042  23631471.878    23631470.671
  24654571.052    -3766916.29343  -2705503.44642  24654572.894    24654571.193
  24001986.931    -8821163.86943  -6859416.06842  24001988.952    24001985.665
 03  4  2  2 45 30.0000000  0  8G11G14G31G 3G25G15G23G18
  22653155.768   -10585097.61743  -8238524.44342  22653158.451    22653154.239
  20732632.374   -24532008.47844 -18838613.21542  20732634.850    20732629.878
  23486714.896    -4818468.13143  -3739879.80742  23486716.690    23486715.857
  24137504.989    -1351909.77343  -1047312.15942  24137506.521    24137507.790
  22201749.824   -17426200.51343 -13533336.90542  22201752.401    22201749.308
  23652163.591    -5459341.95943  -4239273.59442  23652165.134    23652163.876
  24666811.593    -3702592.77643  -2655381.21642  24666813.298    24666811.990
  24015997.050    -8747540.23043  -6802047.02642  24015999.064    24015995.932
 03  4  2  2 46  0.0000000  0  8G11G14G31G 3G25G15G23G18
  22637976.896   -10664862.41843  -8300678.75442  22637979.687    22637975.414
  20741678.046   -24484473.22844 -18801572.74142  20741680.577    20741675.474
  23499826.183    -4749568.71643  -3686192.00842  23499827.977    23499826.754
  24153629.215    -1267178.21543   -981287.71742  24153630.673    24153631.786
  22186034.441   -17508785.32543 -13597688.59942  22186036.998    22186033.892
  23672886.621    -5350443.48543  -4154417.71242  23672888.109    23672886.437
  24679059.887    -3638227.73643  -2605226.58542  24679061.557    24679060.382
  24030019.248    -8673853.64943  -6744628.92942  24030021.279    24030018.130
 03  4  2  2 46 30.0000000  0  8G11G14G31G 3G25G15G23G18
  22622859.452   -10744304.12943  -8362581.31642  22622862.276    22622858.094
  20750788.591   -24436596.50144 -18764266.20042  20750791.144    20750786.082
  23512989.117    -4680396.48743  -3632291.61542  23512991.005    23512990.012
  24169759.989    -1182410.00243   -915234.69642  24169761.558    24169762.883
  22170377.603   -17591061.99843 -13661800.18642  22170380.210    22170377.126
  23693646.554    -5241349.79243  -4069409.66842  23693648.232    23693646.307
  24691324.328    -3573778.58743  -2555006.50442  24691325.812    24691324.429
  24044061.462    -8600061.90943  -6687128.92642  24044063.539    24044060.131
 03  4  2  2 47  0.0000000  0  8G11G14G31G 3G25G15G23G18
  22607803.341   -10823423.23143  -8424232.47742  22607806.159    22607802.202
  20759963.334   -24388383.21344 -18726697.38942  20759965.841    20759960.718
  23526202.994    -4610957.03343  -3578183.01442  23526204.968    23526204.208
  24185896.683    -1097610.37543   -849157.22242  24185898.352    24185900.052
  22154779.254   -17673031.07843 -13725672.10042  22154781.833    22154778.769
  23714442.608    -5132065.50043  -3984253.13442  23714444.363    23714442.722
  24703604.331    -3509247.53143  -2504722.59942  24703605.999    24703604.213
  24058123.197    -8526167.53543  -6629548.93742  24058125.366    24058121.575
 03  4  2  2 47 30.0000000  0  8G11G14G31G 3G25G15G23G18
  22592805.588   -10902237.17643  -8485645.87542  22592808.322    22592804.476
  20769197.836   -24339855.44144 -18688883.52842  20769200.351    20769195.170
  23539463.738    -4541273.31143  -3523884.07342  23539465.667    23539464.650
  24202035.638    -1012802.27843   -783073.13442  24202037.075    24202038.707
  22139236.397   -17754709.61243 -13789317.60342  22139238.883    22139235.706
  23735270.879    -5022612.69443  -3898965.26442  23735272.427    23735271.160
  24715896.088    -3444654.21243  -2454390.18142  24715897.902    24715896.151
  24072200.794    -8452190.49743  -6571904.50242  24072202.940    24072198.965
 03  4  2  2 48  0.0000000  0  8G11G14G31G 3G25G15G23G18
  22577869.447   -10980726.97743  -8546806.68142  22577872.083    22577868.399
  20778494.910   -24290998.75144 -18650813.36842  20778497.431    20778492.242
  23552773.140    -4471332.07843  -3469384.45842  23552775.228    23552774.067
  24218178.466     -927972.23743   -716971.95642  24218180.093    24218181.516
  22123752.306   -17836078.40043 -13852721.75542  22123754.864    22123751.593
  23756133.798    -4912977.07243  -3813534.95242  23756135.237    23756134.191
  24728202.977    -3379981.92643  -2403996.21142  24728204.957    24728202.937
  24086296.996    -8378114.33543  -6514182.82442  24086299.178    24086295.318
 03  4  2  2 48 30.0000000  0  8G11G14G31G 3G25G15G23G18
  22562995.830   -11058887.33143  -8607710.77142  22562998.467    22562994.940
  20787854.902   -24241811.63644 -18612485.73742  20787857.412    20787852.258
  23566131.628    -4401132.76043  -3414683.76942  23566133.876    23566132.493
  24234325.512     -843119.52943   -650853.13342  24234327.295    24234328.543
  22108328.547   -17917131.41043 -13915879.84342  22108330.991    22108327.592
  23777031.824    -4803157.29243  -3727961.14842  23777033.271    23777032.142
  24740525.721    -3315227.02443  -2353537.84242  24740527.874    24740525.542
  24100412.853    -8303935.73143  -6456381.32242  24100415.041    24100411.004
 03  4  2  2 49  0.0000000  0  8G11G14G31G 3G25G15G23G18
  22548183.798   -11136724.98343  -8668363.41442  22548186.459    22548182.830
  20797275.649   -24192305.53044 -18573909.53842  20797278.153    20797272.970
  23579537.066    -4330687.68843  -3359791.58942  23579539.161    23579537.249
  24250474.398     -758256.18943   -584726.01042  24250476.163    24250477.599
  22092963.192   -17997875.80443 -13978797.46142  22092965.740    22092962.356
  23797962.921    -4693164.52543  -3642252.55342  23797964.306    23797963.063
  24752862.444    -3250398.26043  -2303021.96842  24752864.523    24752862.269
  24114546.081    -8229663.92443  -6398507.19042  24114548.339    24114544.358
 03  4  2  2 49 30.0000000  0  8G11G14G31G 3G25G15G23G18
  22533435.107   -11214230.10443  -8728756.94542  22533437.791    22533434.018
  20806758.036   -24142475.15044 -18535080.66142  20806760.562    20806755.395
  23592989.901    -4259992.51443  -3304704.52642  23592991.911    23592989.796
  24266626.444     -673377.81943   -518587.18742  24266627.968    24266629.525
  22077658.475   -18078301.87943 -14041467.04042  22077661.028    22077657.733
  23818927.656    -4582993.55143  -3556405.09742  23818929.199    23818927.903
  24765214.193    -3185488.04943  -2252442.55042  24765216.501    24765214.401
  24128698.808    -8155291.39743  -6340554.62842  24128701.056    24128697.045
 03  4  2  2 50  0.0000000  0  8G11G14G31G 3G25G15G23G18
  22518749.630   -11291403.47443  -8788891.97242  22518752.296    22518748.250
  20816301.243   -24092325.23844 -18496002.79942  20816303.786    20816298.596
  23606489.077    -4189053.10143  -3249427.12742  23606491.139    23606489.335
  24282780.274     -588490.00843   -452441.00242  24282781.846    24282783.433
  22062414.597   -18158409.64743 -14103888.58642  22062417.068    22062413.684
  23839925.397    -4472649.32843  -3470422.61442  23839926.953    23839925.806
  24777581.088    -3120498.94643  -2201801.67942  24777583.222    24777581.121
  24142870.279    -8080820.99743  -6282525.82142  24142872.548    24142868.194
 03  4  2  2 50 30.0000000  0  7G11G14G31G 3G25G15G18
  22504129.540   -11368232.86543  -8848758.97942  22504132.252    22504127.931
  20825906.785   -24041848.21944 -18456670.03842  20825909.316    20825904.008
  23620036.366    -4117862.75843  -3193954.22642  23620038.244    23620036.708
  24298937.017     -503586.05743   -386282.23942  24298938.744    24298940.525
  22047233.270   -18238186.56043 -14166052.32142  22047235.908    22047232.592
  23860957.754    -4362124.20743  -3384299.19342  23860959.241    23860958.344
  24157061.740    -8006243.18143  -6224413.29942  24157063.931    24157060.136
 03  4  2  2 51  0.0000000  0  7G11G14G31G 3G25G15G18
  22489570.591   -11444739.76443  -8908374.65442  22489573.355    22489569.073
  20835569.592   -23991069.95844 -18417102.54742  20835572.139    20835566.765
  23633626.216    -4046448.26443  -3138306.65142  23633627.969    23633626.659
  24315092.071     -418692.29643   -320131.43042  24315093.629    24315095.644
  22032111.027   -18317654.16043 -14227975.04342  22032113.556    22032110.341
  23882019.731    -4251443.88343  -3298054.83442  23882021.127    23882020.201
  24171269.357    -7931581.72243  -6166235.56342  24171271.520    24171267.804
 03  4  2  2 51 30.0000000  0  7G11G14G31G 3G25G15G18
  22475071.396   -11520932.98843  -8967745.91742  22475074.101    22475069.931
  20845287.143   -23940003.47244 -18377310.45642  20845289.701    20845284.338
  23647255.700    -3974823.84643  -3082495.51842  23647257.588    23647256.426
  24331242.280     -333822.78443   -253999.50342  24331244.048    24331245.957
  22017045.937   -18396821.10443 -14289663.48542  22017048.443    22017045.299
  23903108.553    -4140621.57543  -3211699.83842  23903109.822    23903108.731
  24185490.768    -7856847.62443  -6108001.21142  24185493.027    24185489.221
 03  4  2  2 52  0.0000000  0  7G11G14G31G 3G25G15G18
  22460641.529   -11596761.95443  -9026833.34142  22460644.245    22460640.113
  20855068.332   -23888602.67044 -18337257.87742  20855070.895    20855065.584
  23660934.067    -3902944.05743  -3026485.36342  23660935.931    23660934.928
  24347396.530     -248932.03643   -187851.01542  24347398.235    24347400.176
  22002047.852   -18475636.24843 -14351077.79842  22002050.316    22002047.158
  23924232.908    -4029611.16143  -3125198.25742  23924234.290    23924233.013
  24199735.202    -7781992.52743  -6049672.59342  24199737.373    24199733.910
 03  4  2  2 52 30.0000000  0  7G11G14G31G 3G25G15G18
  22446273.332   -11672267.23343  -9085668.55942  22446276.121    22446271.903
  20864904.663   -23836912.33944 -18296979.68542  20864907.224    20864901.937
  23674652.104    -3830854.85443  -2970312.05542  23674653.884    23674653.278
  24363546.080     -164065.71843   -121721.56942  24363547.705    24363549.782
  21987108.996   -18554140.25943 -14412249.67742  21987111.464    21987108.214
  23945384.776    -3918457.82343  -3038585.32742  23945386.045    23945384.691
  24213994.597    -7707059.46643  -5991283.22142  24213996.886    24213993.273
 03  4  2  2 53  0.0000000  0  7G11G14G31G 3G25G15G18
  22431967.680   -11747443.23843  -9144247.19442  22431970.558    22431966.270
  20874796.418   -23784931.15244 -18256474.85142  20874798.967    20874793.617
  23688410.534    -3758555.96943  -2913975.37442  23688412.135    23688411.177
  24379691.158      -79223.13443    -55610.64142  24379692.759    24379694.883
  21972230.587   -18632327.37143 -14473174.60442  21972232.984    21972229.600
  23966564.264    -3807160.05443  -2951859.83542  23966565.540    23966564.072
  24228269.736    -7632044.90143  -5932830.36942  24228272.156    24228267.929
 03  4  2  2 53 30.0000000  0  7G11G14G31G 3G25G15G18
  22417730.456   -11822259.68843  -9202545.65142  22417733.255    22417729.088
  20884748.294   -23732633.55344 -18215723.47342  20884750.881    20884745.523
  23702213.052    -3686022.61843  -2857455.96542  23702214.717    23702213.727
  24395836.632        5620.75243     10501.29042  24395838.226    24395840.013
  21957417.907   -18710167.31243 -14533829.02142  21957420.429    21957417.103
  23987775.940    -3695692.23443  -2865001.85642  23987777.250    23987775.817
  24242565.355    -7556921.29043  -5874292.53742  24242567.823    24242563.397
 03  4  2  2 54  0.0000000  0  7G11G14G31G 3G25G15G18
  22403559.753   -11896727.25143  -9260572.26142  22403562.514    22403558.310
  20894757.556   -23680034.31544 -18174737.04842  20894760.139    20894754.775
  23716057.604    -3613270.74543  -2800766.28742  23716059.044    23716057.897
  24411979.132       90450.32143     76602.10042  24411980.869    24411982.567
  21942669.496   -18787670.19243 -14594220.80242  21942671.993    21942668.727
  24009016.907    -3584069.33243  -2778023.01242  24009018.240    24009017.200
  24256878.869    -7481701.21243  -5815679.49142  24256881.328    24256877.286
 03  4  2  2 54 30.0000000  0  7G11G14G31G 3G25G15G18
  22389456.897   -11970837.78143  -9318320.65842  22389459.737    22389455.544
  20904824.989   -23627129.84244 -18133512.76242  20904827.573    20904822.101
  23729944.099    -3540297.55143  -2743904.14142  23729945.599    23729944.395
  24428119.568      175268.44543    142693.96842  24428121.344    24428123.103
  21927986.901   -18864828.18643 -14654343.82542  21927989.383    21927985.979
  24030288.430    -3472287.83743  -2690920.59842  24030289.568    24030288.613
  24271212.319    -7406378.92743  -5756986.83742  24271214.478    24271210.870
 03  4  2  2 55  0.0000000  0  7G11G14G31G 3G25G15G18
  22375418.672   -12044608.08443  -9375803.92742  22375421.539    22375417.485
  20914946.474   -23573941.01344 -18092066.91342  20914949.085    20914943.667
  23743868.419    -3467125.04643  -2686886.69242  23743870.136    23743869.069
  24444254.244      260053.40343    208759.99942  24444255.824    24444257.435
  21913366.707   -18941657.45443 -14714210.70542  21913369.215    21913365.805
  24051586.293    -3360368.43243  -2603710.72942  24051587.569    24051585.987
  24285561.526    -7330973.52143  -5698229.45642  24285563.744    24285560.069
 03  4  2  2 55 30.0000000  0  7G11G14G31G 3G25G15G18
  22361450.470   -12118011.78543  -9433001.54842  22361453.278    22361449.202
  20925126.260   -23520445.91444 -18050382.41242  20925128.854    20925123.475
  23757834.878    -3393732.24343  -2629697.58242  23757836.681    23757835.612
  24460385.812      344826.40843    274816.71842  24460387.665    24460389.265
  21898814.204   -19018131.18643 -14773800.54342  21898816.683    21898813.286
  24072914.196    -3248289.25143  -2516376.37442  24072915.773    24072913.752
  24299931.133    -7255460.80343  -5639388.44442  24299933.199    24299929.871
 03  4  2  2 56  0.0000000  0  7G11G14G31G 3G25G15G18
  22347550.361   -12191057.84743  -9489920.50342  22347553.139    22347548.850
  20935361.779   -23466657.43844 -18008469.30742  20935364.388    20935359.044
  23771839.923    -3320133.25543  -2572347.77042  23771841.919    23771841.150
  24476512.744      429573.81843    340853.46742  24476514.465    24476516.359
  21884327.575   -19094258.50343 -14833120.44742  21884330.066    21884326.621
  24094269.833    -3136063.58043  -2428927.84142  24094271.445    24094269.561
  24314318.760    -7179852.02943  -5580472.50242  24314320.759    24314317.820
 03  4  2  2 56 30.0000000  0  7G11G14G31G 3G25G15G18
  22333719.914   -12263737.52243  -9546553.97042  22333722.586    22333718.244
  20945653.883   -23412571.62744 -17966324.50942  20945656.499    20945651.140
  23785885.176    -3246324.83743  -2514834.78542  23785887.024    23785886.523
  24492635.707      514299.20043    406873.04842  24492637.458    24492639.157
  21869908.454   -19170030.91443 -14892163.80942  21869910.960    21869907.413
  24115654.468    -3023687.42443  -2341362.07142  24115655.796    24115654.180
  24328725.749    -7104140.91543  -5521476.82942  24328727.805    24328725.269
 03  4  2  2 57  0.0000000  0  7G11G14G31G 3G25G15G18
  22319959.256   -12336049.86443  -9602901.18642  22319961.910    22319957.601
  20956001.996   -23358191.69844 -17923950.53042  20956004.563    20955999.225
  23799969.857    -3172311.42843  -2457162.08742  23799971.455    23799970.729
  24508753.547      598998.27243    472872.15142  24508755.287    24508756.839
  21855557.249   -19245446.92743 -14950929.44242  21855559.806    21855556.081
  24137066.911    -2911164.26543  -2253681.75442  24137068.205    24137066.789
  24343152.561    -7028328.73243  -5462402.42942  24343154.398    24343151.932
 03  4  2  2 57 30.0000000  0  7G11G14G31G 3G25G15G18
  22306267.840   -12407998.73443  -9658965.17542  22306270.504    22306266.103
  20966404.566   -23303525.93344 -17881353.82342  20966407.094    20966401.750
  23814091.393    -3098102.13343  -2399336.76142  23814093.292    23814091.919
  24524864.786      683662.31443    538843.93642  24524866.393    24524867.862
  21841273.095   -19320510.32543 -15009420.32842  21841275.652    21841271.958
  24158505.700    -2798502.34843  -2165893.27342  24158506.950    24158505.713
  24357597.349    -6952421.49543  -5403253.98342  24357599.274    24357596.593
 03  4  2  2 58  0.0000000  0  7G11G14G31G 3G25G15G18
  22292643.672   -12479593.87943  -9714753.54042  22292646.371    22292641.831
  20976858.833   -23248588.32244 -17838545.29242  20976861.348    20976856.086
  23828247.233    -3023712.06643  -2341370.54042  23828249.276    23828247.629
  24540966.620      768276.77343    604777.10042  24540968.106    24540969.741
  21827054.141   -19395230.99843 -15067644.15242  21827056.669    21827053.006
  24179967.997    -2685715.86943  -2078007.76342  24179969.313    24179968.339
  24372057.739    -6876431.50343  -5344041.02142  24372059.732    24372056.933
 03  4  2  2 58 30.0000000  0  7G11G14G31G 3G25G15G18
  22279086.239   -12550838.73643  -9770268.95642  22279088.971    22279084.277
  20987363.444   -23193386.40844 -17795530.80942  20987365.943    20987360.692
  23842435.873    -2949149.82443  -2283270.14442  23842438.120    23842436.518
  24557057.489      852833.37243    670665.17042  24557058.932    24557060.735
  21812899.742   -19469612.01543 -15125603.30942  21812902.292    21812898.625
  24201452.997    -2572812.33743  -1990031.03142  24201454.205    24201453.166
  24386533.199    -6800364.14243  -5284767.80842  24386535.137    24386531.960
 03  4  2  2 59  0.0000000  0  7G11G14G31G 3G25G15G18
  22265606.617   -12621674.30943  -9825465.44542  22265609.436    22265604.632
  20997928.690   -23137865.92544 -17752268.07842  20997931.204    20997925.886
  23856667.322    -2874361.92543  -2224993.91742  23856669.550    23856668.518
  24573147.156      937385.65343    736549.87442  24573148.799    24573150.887
  21798821.501   -19543593.94643 -15183251.48542  21798824.009    21798820.218
  24222970.550    -2459737.28343  -1901920.69342  24222971.783    24222970.524
  24401033.514    -6724163.07743  -5225390.35542  24401035.700    24401032.665
 03  4  2  2 59 30.0000000  0  7G11G14G31G 3G25G15G18
  22252196.488   -12692144.87543  -9880377.52642  22252199.363    22252194.493
  21008545.307   -23082075.07244 -17708794.67442  21008547.863    21008542.527
  23870932.585    -2799397.76943  -2166580.31342  23870934.876    23870934.170
  24589226.793     1021884.61543    802393.01542  24589228.426    24589230.908
  21784810.781   -19617221.07243 -15240623.19542  21784813.293    21784809.460
  24244511.467    -2346539.28843  -1813714.53542  24244512.722    24244511.268
  24415550.870    -6647874.53543  -5165944.76642  24415552.978    24415550.191
 03  4  2  3  0  0.0000000  0  7G11G14G31G 3G25G15G18
  22238858.156   -12762238.62543  -9934995.97942  22238860.983    22238856.097
  21019214.803   -23026006.31944 -17665104.72542  21019217.357    21019212.058
  23885233.383    -2724250.81243  -2108024.34342  23885235.135    23885234.380
  24605298.059     1106337.32943    868200.12342  24605299.702    24605301.975
  21770869.569   -19690481.75143 -15297709.36642  21770872.115    21770868.445
  24266077.247    -2233210.99843  -1725406.83342  24266078.566    24266076.801
  24430086.661    -6571488.82243  -5106423.46342  24430088.896    24430086.072
 03  4  2  3  0 30.0000000  0  7G11G14G31G 3G25G15G18
  22225587.075   -12831978.10743  -9989338.36342  22225589.908    22225585.106
  21029932.147   -22969686.52144 -17621219.15842  21029934.686    21029929.378
  23899563.371    -2648948.97143  -2049347.63642  23899565.159    23899563.616
  24621354.919     1190715.97743    933949.51742  24621356.790    24621358.759
  21756993.912   -19763398.54043 -15354527.57542  21756996.457    21756992.738
  24287662.812    -2119779.26943  -1637018.53242  24287664.143    24287662.200
  24444636.249    -6495031.10843  -5046846.02642  24444638.463    24444635.535
 03  4  2  3  1  0.0000000  0  7G11G14G31G 3G25G15G18
  22212387.272   -12901343.26343 -10043389.07842  22212390.091    22212385.307
  21040700.202   -22913099.62844 -17577125.47142  21040702.719    21040697.477
  23913924.596    -2573477.33243  -1990538.63642  23913927.025    23913925.147
  24637400.466     1275035.88943    999653.13442  24637402.583    24637404.405
  21743187.642   -19835950.99543 -15411061.88042  21743190.165    21743186.342
  24309270.741    -2006228.22643  -1548537.25242  24309272.320    24309270.248
  24459202.663    -6418483.25743  -4987198.36542  24459204.889    24459201.863
 03  4  2  3  1 30.0000000  0  7G11G14G31G 3G25G15G18
  22199262.114   -12970316.98043 -10097134.77842  22199264.864    22199259.983
  21051521.542   -22856232.98444 -17532813.78042  21051524.047    21051518.805
  23928320.656    -2497824.07143  -1931588.10942  23928323.041    23928320.999
  24653437.405     1359309.27143   1065320.51742  24653439.435    24653441.308
  21729453.947   -19908121.65543 -15467298.68242  21729456.466    21729452.631
  24330903.808    -1892545.33143  -1459953.23042  24330905.419    24330903.496
  24473789.552    -6341830.41943  -4927468.93042  24473791.659    24473788.081
 03  4  2  3  2  0.0000000  0  7G11G14G31G 3G25G15G18
  22186210.425   -13038903.57543 -10150578.82242  22186213.175    22186208.325
  21062394.514   -22799095.20244 -17488290.82342  21062397.005    21062391.756
  23942750.029    -2421998.99243  -1872503.75242  23942752.075    23942750.267
  24669463.324     1443526.84743   1130944.42742  24669465.476    24669467.672
  21715792.058   -19979915.20743 -15523241.63742  21715794.583    21715790.689
  24352560.567    -1778739.14143  -1371273.16442  24352561.929    24352560.192
  24488394.852    -6265079.44743  -4867663.02242  24488397.027    24488392.814
 03  4  2  3  2 30.0000000  0  7G11G14G31G 3G25G15G18
  22173232.970   -13107099.45943 -10203718.40342  22173235.744    22173230.984
  21073319.022   -22741686.84944 -17443557.02842  21073321.548    21073316.214
  23957211.422    -2346003.43843  -1813286.50842  23957213.271    23957212.233
  24685478.932     1527687.67843   1196524.07342  24685480.700    24685483.158
  21702202.621   -20051327.56543 -15578887.56142  21702205.198    21702201.293
  24374240.702    -1664810.35543  -1282497.54842  24374242.052    24374240.198
  24503019.180    -6188228.57443  -4807779.26942  24503021.220    24503017.123
 03  4  2  3  3  0.0000000  0  7G11G14G31G 3G25G15G18
  22160325.957   -13174925.69543 -10256569.95942  22160328.733    22160324.022
  21084290.177   -22684033.37244 -17398632.23242  21084292.717    21084287.301
  23971700.020    -2269863.93743  -1753957.11842  23971701.765    23971701.160
  24701478.723     1611765.79043   1262039.26842  24701480.340    24701482.861
  21688681.784   -20122379.75043 -15634252.82942  21688684.390    21688680.477
  24395939.247    -1550784.63943  -1193646.38242  24395940.565    24395938.735
  24517657.771    -6111301.40943  -4747836.00642  24517659.719    24517656.092
 03  4  2  3  3 30.0000000  0  7G11G14G31G 3G25G15G18
  22147495.262   -13242351.44943 -10309109.44942  22147497.974    22147493.249
  21095313.007   -22626107.93244 -17353495.51742  21095315.592    21095310.113
  23986221.263    -2193554.81843  -1694495.58242  23986222.898    23986222.422
  24717467.587     1695787.03343   1327510.16242  24717469.241    24717471.860
  21675235.404   -20193041.02143 -15689313.48242  21675237.968    21675234.014
  24417661.330    -1436635.35043  -1104698.95742  24417662.633    24417660.827
  24532316.247    -6034269.31743  -4687810.93842  24532318.362    24532315.206
 03  4  2  3  4  0.0000000  0  7G11G14G31G 3G25G15G18
  22134739.560   -13309383.14043 -10361341.88842  22134742.295    22134737.447
  21106385.510   -22567921.29744 -17308155.27542  21106388.142    21106382.661
  24000772.730    -2117087.92143  -1634911.08542  24000774.421    24000774.001
  24733443.256     1779739.91843   1392927.78142  24733445.073    24733447.781
  21661862.048   -20263317.63943 -15744074.41242  21661864.612    21661860.741
  24439404.862    -1322373.66643  -1015663.95942  24439406.197    24439404.351
  24546993.668    -5957140.88443  -4627710.88142  24546995.604    24546992.458
 03  4  2  3  4 30.0000000  0  7G11G14G31G 3G25G15G18
  22122068.473   -13375970.08743 -10413227.77542  22122071.293    22122066.345
  21117516.556   -22509426.88644 -17262575.21142  21117519.214    21117513.722
  24015362.901    -2040417.67743  -1575168.14842  24015364.450    24015364.160
  24749414.764     1863670.57743   1458328.06742  24749416.445    24749419.375
  21648571.733   -20333158.92443 -15798496.11842  21648574.204    21648570.246
  24461178.295    -1207953.04043   -926505.07742  24461179.777    24461177.554
  24561697.903    -5879867.79843  -4567498.15142  24561699.916    24561696.620
 03  4  2  3  5  0.0000000  0  7G11G14G31G 3G25G15G18
  22109468.385   -13442183.40843 -10464822.50742  22109471.204    22109466.419
  21128691.967   -22450699.95344 -17216813.95142  21128694.602    21128689.027
  24029976.980    -1963620.26543  -1515326.09642  24029978.596    24029977.987
  24765367.767     1947503.19743   1523651.97342  24765369.372    24765372.295
  21635350.688   -20402635.72643 -15852633.81942  21635353.230    21635349.081
  24482967.877    -1093448.41143   -837280.76942  24482969.290    24482966.730
  24576416.271    -5802522.93343  -4507229.50442  24576418.350    24576414.815
 03  4  2  3  5 30.0000000  0  7G11G14G31G 3G25G15G18
  22096942.978   -13508004.91943 -10516111.93642  22096945.720    22096940.967
  21139914.236   -22391726.36544 -17170860.49842  21139916.860    21139911.325
  24044617.617    -1886682.68243  -1455374.87642  24044619.351    24044618.535
  24781304.907     2031251.10443   1588909.88042  24781306.265    24781309.063
  21622202.528   -20471729.94943 -15906473.40242  21622205.046    21622200.732
  24504776.052     -978846.25543   -747980.44942  24504777.432    24504775.073
  24591151.000    -5725090.54243  -4446892.60842  24591153.477    24591150.418
 03  4  2  3  6  0.0000000  0  6G11G14G31G25G15G18
  22084495.685   -13573415.05543 -10567080.81942  22084498.516    22084493.811
  21151186.354   -22332490.82944 -17124702.92942  21151188.972    21151183.460
  24059287.437    -1809590.57943  -1395303.22342  24059289.208    24059289.079
  21609130.819   -20540421.96843 -15959999.58242  21609133.343    21609128.978
  24526605.477     -864131.08543   -658592.05542  24526606.954    24526604.915
  24605905.693    -5647553.16243  -4386473.84542  24605908.165    24605905.567
 03  4  2  3  6 30.0000000  0  5G11G14G31G25G15
  22072118.424   -13638457.87843 -10617763.50142  22072121.234    22072116.413
  21162499.113   -22273041.55844 -17078378.81842  21162501.695    21162496.326
  24073978.095    -1732393.48243  -1335149.76242  24073979.497    24073979.208
  21596127.150   -20608755.69243 -16013246.57542  21596129.702    21596125.431
  24548447.133     -749351.76443   -569153.67142  24548448.561    24548447.005
 03  4  2  3  7  0.0000000  0  5G11G14G31G25G15
  22059823.508   -13703067.83743 -10668108.87342  22059826.269    22059821.573
  21173864.212   -22213317.31144 -17031840.43642  21173866.726    21173861.509
  24088700.160    -1655030.86443  -1274867.33142  24088701.603    24088700.921
  21583204.289   -20676665.50743 -16066163.25042  21583206.801    21583202.571
  24570312.791     -634446.81043   -479617.40342  24570314.075    24570313.013
 03  4  2  3  7 30.0000000  0  5G11G14G31G25G15
  22047605.660   -13767273.12743 -10718138.92242  22047608.391    22047603.754
  21185275.610   -22153350.13544 -16985112.76742  21185278.069    21185272.875
  24103446.996    -1577535.90343  -1214481.75642  24103448.864    24103448.024
  21570356.738   -20744179.59743 -16118771.56242  21570359.191    21570355.026
  24592196.081     -519448.61143   -390008.48042  24592197.401    24592196.562
 03  4  2  3  8  0.0000000  0  5G11G14G31G25G15
  22035467.116   -13831061.60843 -10767844.18642  22035469.831    22035465.146
  21196734.763   -22093132.07044 -16938189.59842  21196737.258    21196732.002
  24118220.032    -1499901.90043  -1153987.83142  24118221.927    24118221.381
  21557586.820   -20811286.01844 -16171062.21142  21557589.229    21557585.049
  24614098.996     -404349.56743   -300320.96642  24614100.235    24614098.936
 03  4  2  3  8 30.0000000  0  5G11G14G31G25G15
  22023403.942   -13894453.46443 -10817240.38742  22023406.682    22023402.034
  21208237.042   -22032687.46444 -16891089.91042  21208239.554    21208234.253
  24133015.104    -1422153.98843  -1093405.15242  24133016.665    24133016.144
  21544890.723   -20878004.62344 -16223050.67142  21544893.149    21544888.882
  24636016.520     -289173.96043   -210573.82142  24636017.627    24636015.590
 03  4  2  3  9  0.0000000  0  5G11G14G31G25G15
  22011416.043   -13957450.25943 -10866328.75542  22011418.751    22011414.130
  21219781.363   -21972021.95344 -16843818.08442  21219783.906    21219778.560
  24147830.616    -1344299.10043  -1032739.12242  24147832.045    24147831.555
  21532267.896   -20944337.32944 -16274738.43242  21532270.405    21532266.156
  24657947.136     -173927.72443   -120771.64142  24657948.393    24657946.158
 03  4  2  3  9 30.0000000  0  5G11G14G31G25G15
  21999510.922   -14020011.87543 -10915078.02042  21999513.642    21999509.089
  21231374.527   -21911099.18544 -16796345.80842  21231377.090    21231371.794
  24162673.140    -1266301.96143   -971962.22742  24162674.656    24162674.218
  21519726.360   -21010243.56844 -16326093.87442  21519728.871    21519724.530
  24679897.868      -58574.77743    -30886.28642  24679899.198    24679897.315
 03  4  2  3 10  0.0000000  0  4G11G14G31G25
  21987683.097   -14082167.66043 -10963511.05542  21987685.724    21987681.265
  21243010.281   -21849952.97544 -16748699.40042  21243012.807    21243007.509
  24177535.651    -1188197.19543   -911101.45042  24177537.352    24177537.374
  21507260.449   -21075752.28144 -16377139.55342  21507262.953    21507258.530
 03  4  2  3 10 30.0000000  0  4G11G14G31G25
  21975936.488   -14143896.13243 -11011611.11742  21975939.137    21975934.707
  21254691.791   -21788565.72544 -16700865.18442  21254694.318    21254689.095
  24192422.218    -1109968.40143   -850144.03242  24192423.890    24192423.868
  21494874.088   -21140842.58544 -16427859.20442  21494876.582    21494872.230
 03  4  2  3 11  0.0000000  0  4G11G14G31G25
  21964277.223   -14205165.51043 -11059353.44242  21964279.899    21964275.456
  21266424.544   -21726909.82344 -16652821.61942  21266427.025    21266421.759
  24207337.792    -1031589.05343   -789069.33942  24207339.561    24207338.790
  21482573.359   -21205482.88644 -16478228.20742  21482575.828    21482571.584
 03  4  2  3 11 30.0000000  0  4G11G14G31G25
  21952697.917   -14266015.23043 -11106768.76742  21952700.558    21952696.007
  21278200.156   -21665028.65344 -16604602.52742  21278202.607    21278197.309
  24222272.958     -953103.56943   -727911.91742  24222275.004    24222274.093
  21470350.715   -21269712.48843 -16528277.18742  21470353.172    21470348.995
 03  4  2  3 12  0.0000000  0  4G11G14G31G25
  21941197.828   -14326449.13143 -11153860.09242  21941200.487    21941195.651
  21290017.273   -21602929.92544 -16556213.91442  21290019.706    21290014.318
  24237226.904     -874520.76343   -666678.65642  24237229.033    24237228.173
  21458205.777   -21333534.71644 -16578008.72742  21458208.170    21458203.928
 03  4  2  3 12 30.0000000  0  4G11G14G31G25
  21929781.711   -14386441.69643 -11200607.50342  21929784.386    21929779.447
  21301879.733   -21540592.10144 -16507638.99042  21301882.225    21301876.767
  24252202.803     -795820.25743   -605353.67842  24252205.057    24252204.757
  21446143.285   -21396924.33544 -16627403.16142  21446145.621    21446141.239
 03  4  2  3 13  0.0000000  0  4G11G14G31G25
  21918444.923   -14446016.86643 -11247029.65742  21918447.555    21918442.771
  21313782.409   -21478043.18144 -16458899.57542  21313784.930    21313779.449
  24267196.109     -717030.93043   -543959.50142  24267198.017    24267197.963
  21434158.288   -21459905.20344 -16676479.09542  21434160.702    21434156.336
 03  4  2  3 13 30.0000000  0  4G11G14G31G25
  21907191.567   -14505152.73843 -11293109.49142  21907194.213    21907189.568
  21325728.625   -21415265.17144 -16409981.64042  21325731.154    21325725.642
  24282209.494     -638135.89443   -482482.96442  24282211.279    24282211.307
  21422255.296   -21522455.34444 -16725219.40042  21422257.736    21422253.393
 03  4  2  3 14  0.0000000  0  4G11G14G31G25
  21896021.867   -14563849.76343 -11338847.38642  21896024.503    21896019.727
  21337717.648   -21352262.37244 -16360888.55042  21337720.167    21337714.626
  24297242.047     -559140.72943   -420928.38742  24297243.799    24297243.598
  21410434.100   -21584575.62644 -16773624.74842  21410436.548    21410432.258
 03  4  2  3 14 30.0000000  0  4G11G14G31G25
  21884930.487   -14622135.39043 -11384264.71442  21884933.130    21884928.143
  21349743.491   -21289066.06044 -16311644.67042  21349746.018    21349740.401
  24312287.508     -480077.72343   -359320.95442  24312289.313    24312288.790
  21398689.561   -21646293.29644 -16821716.38042  21398691.964    21398687.804
 03  4  2  3 15  0.0000000  0  4G11G14G31G25
  21873926.682   -14679960.59943 -11429323.27142  21873929.400    21873924.255
  21361814.604   -21225631.68444 -16262215.28342  21361817.149    21361811.494
  24327353.929     -400903.25043   -297626.66142  24327355.837    24327355.029
  21387030.984   -21707559.55344 -16869456.26342  21387033.396    21387029.151
 03  4  2  3 15 30.0000000  0  4G11G14G31G25
  21863003.916   -14737359.98543 -11474050.01142  21863006.674    21863001.490
  21373923.861   -21161997.12044 -16212629.90742  21373926.374    21373920.685
  24342434.215     -321656.48043   -235876.07042  24342436.140    24342435.333
  21375451.887   -21768408.39744 -16916870.88042  21375454.300    21375449.872
 03  4  2  3 16  0.0000000  0  4G11G14G31G25
  21852165.770   -14794314.60843 -11518430.17942  21852168.572    21852163.382
  21386074.053   -21098147.67844 -16162877.09342  21386076.552    21386070.861
  24357530.563     -242323.66643   -174058.40142  24357532.767    24357532.066
  21363955.555   -21828821.52144 -16963945.98842  21363958.025    21363953.537
 03  4  2  3 16 30.0000000  0  4G11G14G31G25
  21841414.858   -14850810.24843 -11562452.69142  21841417.676    21841412.659
  21398267.112   -21034072.80044 -16112948.62542  21398269.589    21398264.010
  24372645.067     -162895.49743   -112166.44242  24372647.311    24372647.022
  21352544.917   -21888784.59644 -17010670.39942  21352547.420    21352542.835
 03  4  2  3 17  0.0000000  0  4G11G14G31G25
  21830750.756   -14906850.18943 -11606120.12542  21830753.491    21830748.537
  21410501.763   -20969779.43144 -16062849.88942  21410504.250    21410498.726
  24387776.154      -83379.86743    -50206.28442  24387778.175    24387778.506
  21341219.331   -21948300.28644 -17057046.21142  21341221.851    21341217.279
 03  4  2  3 17 30.0000000  0  4G11G14G31G25
  21820175.011   -14962425.63643 -11649425.62242  21820177.731    21820172.756
  21422778.786   -20905262.96944 -16012577.32442  21422781.307    21422775.887
  24402925.337       -3773.11843     11824.81642  24402926.973    24402927.148
  21329980.645   -22007360.17144 -17103066.84242  21329983.079    21329978.507
 03  4  2  3 18  0.0000000  0  4G11G14G31G25
  21809682.260   -15017565.27043 -11692391.51742  21809684.920    21809680.012
  21435092.172   -20840555.80344 -15962156.14842  21435094.680    21435089.240
  24418084.953       75891.04843     73900.70142  24418086.786    24418087.021
  21318823.060   -22065993.57544 -17148755.14742  21318825.519    21318820.885
 03  4  2  3 18 30.0000000  0  4G11G14G31G25
  21799271.596   -15072273.10943 -11735020.93742  21799274.205    21799269.486
  21447440.397   -20775665.54044 -15911592.30942  21447442.889    21447437.496
  24433254.257      155603.82243    136014.42442  24433256.115    24433256.050
  21307745.878   -22124204.16844 -17194113.98942  21307748.363    21307743.679
 03  4  2  3 19  0.0000000  0  4G11G14G31G25
  21788951.602   -15126504.74843 -11777279.30242  21788954.210    21788949.465
  21459831.106   -20710552.01544 -15860854.49842  21459833.635    21459828.193
  24448440.088      235404.47943    198196.65442  24448441.963    24448441.653
  21296757.551   -22181947.75944 -17239108.94342  21296760.041    21296755.448
 03  4  2  3 19 30.0000000  0  4G11G14G31G25
  21778720.051   -15180271.72343 -11819175.60442  21778722.669    21778717.615
  21472261.449   -20645230.03544 -15809954.25942  21472263.978    21472258.536
  24463639.046      315276.96743    260434.87842  24463640.848    24463640.952
  21285855.971   -22239235.59944 -17283748.76442  21285858.415    21285853.941
 03  4  2  3 20  0.0000000  0  4G11G14G31G25
  21768572.489   -15233597.21443 -11860727.89042  21768575.119    21768569.825
  21484726.248   -20579726.74444 -15758912.72842  21484728.791    21484723.396
  24478846.500      395193.22743    322707.19342  24478848.255    24478848.305
  21275036.753   -22296090.96244 -17328051.58042  21275039.163    21275034.651
 03  4  2  3 20 30.0000000  0  4G11G14G31G25
  21758515.713   -15286446.21644 -11901908.88542  21758518.344    21758512.844
  21497231.545   -20514010.82544 -15707705.50742  21497234.070    21497228.709
  24494068.331      475183.44843    385037.11442  24494070.084    24494069.857
  21264306.391   -22352479.01544 -17371990.26342  21264308.808    21264304.318
 03  4  2  3 21  0.0000000  0  4G11G14G31G25
  21748547.479   -15338829.72844 -11942727.16542  21748550.170    21748544.608
  21509774.606   -20448096.94544 -15656344.02242  21509777.073    21509771.750
  24509301.135      555231.71743    447412.26542  24509302.904    24509302.360
  21253662.760   -22408410.80544 -17415573.42142  21253665.223    21253660.870
 03  4  2  3 21 30.0000000  0  4G11G14G31G25
  21738664.693   -15390763.91143 -11983195.30542  21738667.418    21738661.882
  21522351.485   -20382004.96144 -15604843.76742  21522354.004    21522348.660
  24524540.937      635317.10843    509816.35942  24524542.747    24524541.993
  21243103.081   -22463902.26544 -17458813.46242  21243105.512    21243101.126
 03  4  2  3 22  0.0000000  0  4G11G14G31G25
  21728869.940   -15442235.78243 -12023303.21442  21728872.634    21728867.081
  21534964.015   -20315725.61244 -15553197.50842  21534966.584    21534961.130
  24539789.519      715447.89743    572255.82042  24539791.173    24539790.702
  21232629.456   -22518940.78144 -17501700.56042  21232631.940    21232627.527
 03  4  2  3 22 30.0000000  0  4G11G14G31G25
  21719166.572   -15493226.66643 -12063036.33142  21719169.292    21719163.770
  21547615.144   -20249243.52144 -15501393.28742  21547617.761    21547612.196
  24555049.374      795638.12243    634741.61042  24555050.967    24555050.907
  21222245.739   -22573507.72544 -17544220.19242  21222248.157    21222243.695
 03  4  2  3 23  0.0000000  0  4G11G14G31G25
  21709549.040   -15543767.03443 -12102418.39442  21709551.700    21709546.274
  21560298.394   -20182593.19044 -15449457.96142  21560301.025    21560295.312
  24570313.842      875852.40843    697246.14442  24570315.404    24570315.463
  21211945.779   -22627633.57244 -17586396.12742  21211948.229    21211943.857
 03  4  2  3 23 30.0000000  0  4G11G14G31G25
  21700019.095   -15593847.05343 -12141441.74742  21700021.728    21700016.376
  21573014.764   -20115768.09143 -15397386.45942  21573017.422    21573011.756
  24585583.726      956096.04743    759773.55442  24585585.564    24585585.368
  21201731.765   -22681308.68044 -17628220.82942  21201734.167    21201729.733
 03  4  2  3 24  0.0000000  0  4G11G14G31G25
  21690583.769   -15643429.63443 -12180077.48542  21690586.435    21690581.149
  21585770.658   -20048734.97543 -15345152.85742  21585773.306    21585767.745
  24600865.354     1036401.15443    822348.85942  24600867.127    24600866.996
  21191610.474   -22734496.39544 -17669665.73842  21191612.902    21191608.281
 03  4  2  3 24 30.0000000  0  5G11G14G20G31G25
  21681242.531   -15692518.13843 -12218328.23242  21681245.228    21681239.956
  21598564.759   -19981500.88143 -15292762.64042  21598567.393    21598561.976
  24724593.375    -1234950.92953   -789492.32752  24724596.065    24724595.232
  24616156.821     1116759.69243    884965.79742  24616158.753    24616158.985
  21181581.327   -22787199.80944 -17710733.28742  21181583.706    21181579.079
 03  4  2  3 25  0.0000000  0  5G11G14G20G31G25
  21671990.841   -15741136.40143 -12256212.55042  21671993.515    21671988.320
  21611391.994   -19914092.94143 -15240236.95442  21611394.566    21611389.264
  24708260.269    -1320781.13843   -856372.79442  24708262.663    24708261.938
  24631453.361     1197143.30243    947602.26642  24631455.180    24631455.480
  21171639.812   -22839442.88744 -17751442.13142  21171642.193    21171637.535
 03  4  2  3 25 30.0000000  0  5G11G14G20G31G25
  21662829.823   -15789277.57844 -12293725.11842  21662832.449    21662827.328
  21624252.985   -19846507.79843 -15187573.19242  21624255.576    21624250.344
  24691920.630    -1406645.05343   -923279.53442  24691923.308    24691922.155
  24646755.253     1277554.25443   1010260.01742  24646756.839    24646757.138
  21161787.165   -22891218.83244 -17791786.97142  21161789.563    21161784.818
 03  4  2  3 26  0.0000000  0  5G11G14G20G31G25
  21653757.682   -15836951.97843 -12330873.98042  21653760.267    21653755.094
  21637145.131   -19778759.35043 -15134782.19242  21637147.724    21637142.500
  24675572.683    -1492554.56343   -990221.84342  24675575.174    24675574.074
  24662059.380     1357977.45843   1072927.34042  24662060.959    24662060.944
  21152021.364   -22942537.91644 -17831775.81842  21152023.773    21152019.105
 03  4  2  3 26 30.0000000  0  5G11G14G20G31G25
  21644774.927   -15884156.39443 -12367656.61242  21644777.521    21644772.327
  21650068.362   -19710847.86344 -15081864.14642  21650070.978    21650065.523
  24659216.451    -1578507.38143  -1057197.88142  24659218.973    24659218.085
  24677365.613     1438411.62743   1135603.18142  24677367.253    24677367.142
  21142343.211   -22993397.19444 -17871406.37342  21142345.580    21142340.911
 03  4  2  3 27  0.0000000  0  5G11G14G20G31G25
  21635886.555   -15930864.60643 -12404052.57042  21635889.119    21635884.049
  21663026.949   -19642750.42744 -15028801.19142  21663029.630    21663023.980
  24642856.577    -1664478.46043  -1124188.20242  24642859.019    24642858.136
  24692677.760     1518878.38043   1198304.42642  24692679.362    24692679.605
  21132757.456   -23043770.55044 -17910658.29142  21132759.881    21132755.177
 03  4  2  3 27 30.0000000  0  5G11G14G20G31G25
  21627091.167   -15977084.58643 -12440068.10842  21627093.748    21627088.670
  21676018.632   -19574478.51543 -14975602.28342  21676021.370    21676015.715
  24626491.190    -1750476.90543  -1191199.86542  24626493.813    24626492.730
  24707993.943     1599365.24243   1261021.35142  24707995.285    24707995.780
  21123262.709   -23093665.83144 -17949537.68442  21123265.131    21123260.437
 03  4  2  3 28  0.0000000  0  5G11G14G20G31G25
  21618388.117   -16022818.50543 -12475704.89942  21618390.730    21618385.674
  21689042.330   -19506037.93543 -14922271.97342  21689045.025    21689039.572
  24610120.535    -1836506.30643  -1258235.61142  24610123.083    24610121.444
  24723312.418     1679865.29143   1323748.55442  24723314.037    24723314.521
  21113858.278   -23143085.80544 -17988046.71242  21113860.740    21113856.088
 03  4  2  3 28 30.0000000  0  5G11G14G20G31G25
  21609779.157   -16068058.90344 -12510957.12042  21609781.777    21609776.649
  21702099.088   -19437424.20843 -14868806.72642  21702101.711    21702096.321
  24593744.973    -1922560.08143  -1325290.34342  24593747.603    24593745.817
  24738634.653     1760381.84343   1386488.58342  24738636.119    24738636.980
  21104545.909   -23192022.62044 -18026179.23642  21104548.354    21104543.569
 03  4  2  3 29  0.0000000  0  5G11G14G20G31G25
  21601265.608   -16112798.12344 -12545818.81542  21601268.258    21601262.993
  21715189.433   -19368633.53343 -14815203.57942  21715192.070    21715186.700
  24577365.759    -2008631.79543  -1392359.08042  24577368.376    24577366.785
  24753960.330     1840917.69443   1449243.68542  24753962.181    24753962.895
  21095326.889   -23240468.91644 -18063929.54142  21095329.303    21095324.530
 03  4  2  3 29 30.0000000  0  5G11G14G20G31G25
  21592846.928   -16157038.84644 -12580292.06842  21592849.579    21592844.135
  21728312.516   -19299671.50743 -14761466.93242  21728315.099    21728309.750
  24560982.504    -2094725.05443  -1459444.59042  24560985.118    24560983.735
  24769288.535     1921465.92543   1512008.41342  24769290.909    24769291.298
  21086200.659   -23288427.43944 -18101299.77442  21086203.089    21086198.370
 03  4  2  3 30  0.0000000  0  5G11G14G20G31G25
  21584519.014   -16200802.30744 -12614393.43942  21584521.653    21584516.009
  21741463.518   -19230562.81643 -14707615.99242  21741466.071    21741460.714
  24544591.047    -2180861.80543  -1526563.97542  24544593.696    24544592.194
  24784613.879     2002000.90343   1574762.82042  24784616.003    24784616.428
  21077163.285   -23335919.25744 -18138306.33342  21077165.712    21077160.922
 03  4  2  3 30 30.0000000  0  5G11G14G20G31G25
  21576286.069   -16244066.97044 -12648106.13342  21576288.680    21576282.964
  21754645.698   -19161289.70143 -14653636.92442  21754648.327    21754642.914
  24528195.493    -2267022.21343  -1593701.78342  24528197.921    24528196.267
  24799936.843     3657959.24453   2865119.86552  24799940.514    24799943.647
  21068218.559   -23382923.78144 -18174933.18842  21068221.016    21068216.208
 03  4  2  3 31  0.0000000  0  5G11G14G20G31G25
  21568147.614   -16286834.34744 -12681431.31442  21568150.258    21568144.721
  21767858.511   -19091856.32543 -14599532.98242  21767861.130    21767855.636
  24511794.496    -2353208.16043  -1660859.48842  24511797.019    24511795.483
  24815264.654     3738495.34753   2927875.16552  24815266.171    24815268.838
  21059366.384   -23429442.16144 -18211181.22642  21059368.820    21059364.007
 03  4  2  3 31 30.0000000  0  5G11G14G20G31G25
  21560100.909   -16329119.97744 -12714381.11842  21560103.521    21560098.000
  21781098.127   -19022281.44743 -14545318.78442  21781100.754    21781095.179
  24495385.668    -2439436.37443  -1728050.15342  24495388.160    24495386.642
  24830586.514     3819009.52343   2990613.38242  24830587.675    24830589.855
  21050603.601   -23475489.76144 -18247062.42642  21050606.065    21050601.332
 03  4  2  3 32  0.0000000  0  5G11G14G20G31G25
  21552153.234   -16370885.10144 -12746925.33242  21552155.815    21552150.329
  21794371.621   -18952529.42143 -14490966.55342  21794374.179    21794368.465
  24478976.518    -2525668.95443  -1795244.20042  24478978.845    24478977.044
  24845910.532     3899536.33443   3053361.43342  24845911.689    24845913.356
  21041937.950   -23521028.12544 -18282546.82442  21041940.340    21041935.557
 03  4  2  3 32 30.0000000  0  5G11G14G20G31G25
  21544297.196   -16412168.73144 -12779094.35242  21544299.776    21544294.347
  21807670.494   -18882643.20843 -14436509.75242  21807673.100    21807667.363
  24462558.355    -2611945.94343  -1862472.80442  24462560.698    24462559.028
  24861228.312     3980031.83443   3116085.06142  24861229.859    24861230.957
  21033361.659   -23566096.93544 -18317665.32742  21033364.015    21033359.199
 03  4  2  3 33  0.0000000  0  5G11G14G20G31G25
  21536538.478   -16452940.84344 -12810864.79942  21536541.131    21536535.731
  21820999.993   -18812595.67843 -14381927.24542  21821002.589    21820996.985
  24446136.639    -2698238.41043  -1929713.55442  24446139.234    24446137.951
  24876544.595     4060521.70543   3178804.34142  24876546.599    24876547.782
  21024880.489   -23610665.69644 -18352394.18342  21024882.867    21024877.944
 03  4  2  3 33 30.0000000  0  5G11G14G20G31G25
  21528878.021   -16493196.58544 -12842232.88242  21528880.673    21528875.312
  21834360.573   -18742384.80243 -14327217.46142  21834363.122    21834357.734
  24429713.817    -2784542.00543  -1996962.89642  24429716.051    24429714.655
  24891860.628     4141006.75743   3241519.82142  24891862.492    24891863.548
  21016495.270   -23654729.83044 -18386729.82142  21016497.677    21016492.768
 03  4  2  3 34  0.0000000  0  5G11G14G20G31G25
  21521308.802   -16532972.37543 -12873226.96242  21521311.476    21521306.220
  21847744.825   -18672050.11243 -14272411.20442  21847747.327    21847742.027
  24413281.443    -2870894.12543  -2064250.01342  24413283.738    24413282.316
  24907167.975     4221446.34243   3304199.87342  24907169.679    24907170.478
  21008199.104   -23698325.55244 -18420700.48042  21008201.485    21008196.739
 03  4  2  3 34 30.0000000  0  5G11G14G20G31G25
  21513841.107   -16572215.39344 -12903805.90842  21513843.708    21513838.461
  21861162.027   -18601542.31743 -14217470.05242  21861164.534    21861159.210
  24396849.316    -2957242.90043  -2131534.59642  24396851.816    24396850.505
  24922476.050     4301888.95143   3366882.28542  24922477.626    24922478.159
  21000002.216   -23741400.89844 -18454265.63142  21000004.545    20999999.678
 03  4  2  3 35  0.0000000  0  4G11G14G20G25
  21506471.438   -16610943.22044 -12933983.41142  21506474.076    21506468.755
  21874608.246   -18530881.83443 -14162409.92542  21874610.761    21874605.437
  24380414.780    -3043606.60243  -2198830.78742  24380417.098    24380415.800
  20991900.894   -23783973.26644 -18487438.85442  20991903.263    20991898.350
 03  4  2  3 35 30.0000000  0  4G11G14G20G25
  21499198.950   -16649160.52044 -12963763.09842  21499201.560    21499196.142
  21888082.220   -18460076.34743 -14107236.80642  21888084.727    21888079.216
  24363976.624    -3129990.58943  -2266142.82042  24363978.905    24363977.280
  20983894.410   -23826047.48644 -18520223.91942  20983896.768    20983891.848
 03  4  2  3 36  0.0000000  0  4G11G14G20G25
  21492023.184   -16686869.46344 -12993146.65842  21492025.786    21492020.312
  21901582.616   -18389131.37843 -14051955.01042  21901585.199    21901579.564
  24347533.897    -3216397.96943  -2333473.10042  24347536.228    24347534.212
  20975982.082   -23867626.27544 -18552622.93342  20975984.488    20975979.648
 03  4  2  3 36 30.0000000  0  4G11G14G20G25
  21484947.639   -16724051.82044 -13022119.89342  21484950.293    21484944.791
  21915112.295   -18318031.80343 -13996552.74642  21915114.948    21915109.270
  24331089.815    -3302811.34943  -2400808.05542  24331092.230    24331090.117
  20968167.726   -23908691.37844 -18584621.67642  20968170.057    20968165.235
 03  4  2  3 37  0.0000000  0  4G11G14G20G25
  21477966.484   -16760737.76544 -13050706.31342  21477969.161    21477963.629
  21928665.351   -18246810.42043 -13941055.55542  21928667.978    21928662.090
  24314638.411    -3389261.32843  -2468171.52942  24314640.914    24314639.172
  20960445.420   -23949272.72044 -18616243.45342  20960447.762    20960442.818
 03  4  2  3 37 30.0000000  0  4G11G14G20G25
  21471083.653   -16796906.81943 -13078889.95842  21471086.303    21471080.778
  21942244.958   -18175449.35543 -13885449.53042  21942247.574    21942241.626
  24298184.357    -3475728.04443  -2535548.06442  24298186.644    24298185.243
  20952818.935   -23989349.92444 -18647472.40342  20952821.299    20952816.292
 03  4  2  3 38  0.0000000  0  4G11G14G20G25
  21464297.375   -16832568.73244 -13106678.44142  21464300.003    21464294.465
  21955848.490   -18103962.06343 -13829745.13842  21955851.135    21955845.160
  24281725.348    -3562222.21243  -2602945.98242  24281727.454    24281726.024
  20945286.420   -24028933.39844 -18678316.62142  20945288.772    20945283.719
 03  4  2  3 38 30.0000000  0  4G11G14G20G25
  21457610.722   -16867707.06744 -13134058.93542  21457613.366    21457607.927
  21969478.726   -18032334.39543 -13773931.37142  21969481.342    21969475.480
  24265263.711    -3648727.70043  -2670352.71042  24265266.079    24265264.408
  20937851.026   -24068006.53444 -18708763.18042  20937853.404    20937848.347
 03  4  2  3 39  0.0000000  0  4G11G14G20G25
  21451024.312   -16902318.76044 -13161029.05542  21451026.920    21451021.518
  21983135.812   -17960566.50043 -13718008.33242  21983138.380    21983132.509
  24248800.533    -3735241.88443  -2737766.21942  24248802.928    24248801.064
  20930513.280   -24106566.74044 -18738810.05042  20930515.642    20930510.632
 03  4  2  3 39 30.0000000  0  4G11G14G20G25
  21444532.542   -16936433.33044 -13187611.81842  21444535.141    21444529.637
  21996813.328   -17888690.39443 -13662000.98542  21996815.903    21996810.096
  24232329.989    -3821794.92843  -2805210.00042  24232332.448    24232330.358
  20923267.467   -24144643.30244 -18768480.05642  20923269.848    20923264.764
 03  4  2  3 40  0.0000000  0  4G11G14G20G25
  21438144.471   -16970002.92444 -13213769.92042  21438147.100    21438141.566
  22010519.845   -17816661.64543 -13605874.67942  22010522.407    22010516.696
  24215860.980    -3908339.75043  -2872647.37842  24215863.535    24215861.332
  20916122.806   -24182188.92044 -18797736.32242  20916125.161    20916119.978
 03  4  2  3 40 30.0000000  0  4G11G14G20G25
  21431858.005   -17003038.58844 -13239511.96842  21431860.630    21431855.083
  22024252.929   -17744493.51343 -13549639.77242  22024255.414    22024249.832
  24199391.349    -3994887.83443  -2940087.32842  24199393.889    24199391.745
  20909076.898   -24219214.28444 -18826587.21842  20909079.313    20909074.249
 03  4  2  3 41  0.0000000  0  4G11G14G20G25
  21425667.416   -17035569.77044 -13264860.91142  21425670.018    21425664.546
  22038006.352   -17672218.45743 -13493321.54542  22038008.821    22038003.243
  24182915.422    -4081468.99543  -3007553.05942  24182917.942    24182915.828
  20902124.599   -24255749.43444 -18855056.12042  20902126.935    20902121.828
 03  4  2  3 41 30.0000000  0  4G11G14G20G25
  21419579.417   -17067562.12644 -13289789.98942  21419582.002    21419576.656
  22051786.177   -17599804.93643 -13436895.42642  22051788.666    22051783.035
  24166439.687    -4168049.39743  -3075018.16942  24166442.170    24166439.854
  20895271.901   -24291760.25144 -18883116.45642  20895274.279    20895269.199
 03  4  2  3 42  0.0000000  0  4G11G14G20G25
  21413591.285   -17099030.43344 -13314310.72142  21413593.850    21413588.475
  22065589.154   -17527270.31343 -13380374.94442  22065591.645    22065585.960
  24149961.205    -4254644.28143  -3142494.56742  24149963.636    24149961.069
  20888516.203   -24327261.56744 -18910779.77642  20888518.564    20888513.437
 03  4  2  3 42 30.0000000  0  4G11G14G20G25
  21407707.807   -17129948.24244 -13338402.49942  21407710.382    21407704.927
  22079419.525   -17454591.16043 -13323741.84442  22079422.045    22079416.436
  24133484.888    -4341227.61843  -3209961.99142  24133487.493    24133484.271
  20881862.522   -24362226.95044 -18938025.48242  20881864.879    20881859.653
 03  4  2  3 43  0.0000000  0  4G11G14G20G25
  21401924.511   -17160339.37944 -13362083.86942  21401927.069    21401921.616
  22093272.352   -17381793.45843 -13267016.36142  22093274.914    22093269.491
  24117006.008    -4427823.35943  -3277439.08942  24117008.680    24117005.391
  20875306.198   -24396680.21044 -18964872.13342  20875308.559    20875303.386
 03  4  2  3 43 30.0000000  0  4G11G14G20G25
  21396239.077   -17190216.56344 -13385364.76042  21396241.656    21396236.171
  22107144.991   -17308892.78843 -13210210.63942  22107147.465    22107142.067
  24100522.321    -4514444.85643  -3344936.29242  24100524.821    24100521.767
  20868844.843   -24430634.55844 -18991330.02042  20868847.229    20868842.060
 03  4  2  3 44  0.0000000  0  4G11G14G20G25
  21390655.023   -17219560.63544 -13408230.24642  21390657.680    21390652.098
  22121040.331   -17235872.44243 -13153311.67642  22121042.824    22121037.365
  24084037.538    -4601073.05743  -3412438.71642  24084039.883    24084036.794
  20862481.992   -24464071.05944 -19017384.39542  20862484.390    20862479.283
 03  4  2  3 44 30.0000000  0  4G11G14G20G25
  21385168.560   -17248392.31444 -13430696.46342  21385171.112    21385165.515
  22134953.876   -17162756.20543 -13096337.99042  22134956.410    22134950.989
  24067547.078    -4687729.28143  -3479963.00142  24067549.378    24067546.438
  20856213.701   -24497010.71444 -19043051.62142  20856216.093    20856211.060
 03  4  2  3 45  0.0000000  0  4G11G14G20G25
  21379786.152   -17276676.76944 -13452736.27142  21379788.723    21379783.099
  22148891.878   -17089511.39443 -13039264.11642  22148894.377    22148889.057
  24051057.915    -4774378.64243  -3547481.97242  24051060.096    24051057.592
  20850046.737   -24529418.48544 -19068304.38442  20850049.074    20850044.008
 03  4  2  3 45 30.0000000  0  4G11G14G20G25
  21374506.600   -17304421.15444 -13474355.25542  21374509.186    21374503.498
  22162852.487   -17016148.16643 -12982097.96442  22162854.933    22162849.583
  24034568.880    -4861028.96843  -3615001.66942  24034571.035    24034568.772
  20843979.334   -24561302.46944 -19093149.00542  20843981.741    20843976.639
 03  4  2  3 46  0.0000000  0  4G11G14G20G25
  21369327.617   -17331636.64444 -13495562.10442  21369330.228    21369324.633
  22176833.106   -16942679.58543 -12924849.72742  22176835.548    22176830.117
  24018077.893    -4947691.18743  -3682530.61842  24018079.786    24018077.663
  20838009.575   -24592673.56644 -19117593.97342  20838012.013    20838006.872
 03  4  2  3 46 30.0000000  0  4G11G14G20G25
  21364251.473   -17358311.29544 -13516347.50942  21364254.066    21364248.635
  22190835.522   -16869096.06743 -12867511.91942  22190837.946    22190832.504
  24001586.303    -5034353.29843  -3750059.46742  24001588.531    24001586.434
  20832139.758   -24623519.45944 -19141629.69842  20832142.185    20832137.030
 03  4  2  3 47  0.0000000  0  4G11G14G20G25
  21359277.706   -17384448.77444 -13536714.35442  21359280.296    21359274.794
  22204858.611   -16795404.09943 -12810089.60942  22204861.057    22204855.677
  23985094.374    -5121019.41943  -3817591.46042  23985096.529    23985094.229
  20826369.147   -24653844.39544 -19165259.48342  20826371.548    20826366.356
 03  4  2  3 47 30.0000000  0  4G11G14G20G25
  21354407.037   -17410044.51144 -13556659.05442  21354409.629    21354404.110
  22218902.741   -16721601.36143 -12752580.98842  22218905.239    22218899.968
  23968602.523    -5207685.02143  -3885122.98842  23968604.652    23968602.195
  20820698.563   -24683643.90344 -19188479.84242  20820700.976    20820695.687
 03  4  2  3 48  0.0000000  0  4G11G14G20G25
  21349639.739   -17435096.67144 -13576180.18242  21349642.345    21349636.858
  22232967.871   -16647688.57943 -12694986.62742  22232970.380    22232965.100
  23952110.889    -5294348.27843  -3952652.69842  23952113.110    23952110.781
  20815128.119   -24712916.75744 -19211289.82142  20815130.574    20815125.208
 03  4  2  3 48 30.0000000  0  4G11G14G20G25
  21344975.375   -17459608.12744 -13595279.98242  21344977.950    21344972.439
  22247053.008   -16573670.63843 -12637310.32642  22247055.485    22247050.154
  23935619.365    -5381012.08743  -4020182.83242  23935621.612    23935619.295
  20809657.278   -24741665.31344 -19233691.27342  20809659.782    20809654.487
 03  4  2  3 49  0.0000000  0  4G11G14G20G25
  21340412.696   -17483584.76744 -13613963.04642  21340415.309    21340409.733
  22261156.548   -16499556.42143 -12579559.00142  22261159.106    22261153.572
  23919126.322    -5467682.91543  -4087718.43942  23919128.562    23919126.517
  20804285.116   -24769896.75944 -19255689.75942  20804287.540    20804282.179
 03  4  2  3 49 30.0000000  0  4G11G14G20G25
  21335954.192   -17507013.76544 -13632219.38142  21335956.835    21335951.171
  22275280.543   -16425335.01443 -12521724.14542  22275283.132    22275277.430
  23902634.259    -5554347.45543  -4155249.11842  23902636.626    23902634.717
  20799013.699   -24797597.72844 -19277274.90042  20799016.135    20799010.832
 03  4  2  3 50  0.0000000  0  4G11G14G20G25
  21331599.441   -17529897.70544 -13650050.99242  21331602.091    21331596.412
  22289423.953   -16351010.89043 -12463809.25942  22289426.536    22289420.791
  23886143.241    -5641008.20943  -4222776.83942  23886145.671    23886143.352
  20793842.779   -24824771.02644 -19298448.85742  20793845.182    20793839.867
 03  4  2  3 50 30.0000000  0  4G11G14G20G25
  21327349.734   -17552230.47444 -13667453.12942  21327352.395    21327346.662
  22303587.689   -16276580.45143 -12405811.51642  22303590.195    22303584.428
  23869654.242    -5727658.93543  -4290296.71542  23869656.723    23869654.021
  20788773.345   -24851410.57744 -19319206.91942  20788775.758    20788770.588
 03  4  2  3 51  0.0000000  0  4G11G14G20G25
  21323202.228   -17574025.26244 -13684436.04242  21323204.891    21323199.283
  22317768.664   -16202059.23243 -12347743.04442  22317771.153    22317765.313
  23853164.348    -5814312.82043  -4357819.10142  23853166.979    23853164.399
  20783802.990   -24877530.02044 -19339559.70442  20783805.356    20783800.258
 03  4  2  3 51 30.0000000  0  4G11G14G20G25
  21319157.508   -17595280.38744 -13700998.45342  21319160.089    21319154.494
  22331966.760   -16127447.80743 -12289604.27042  22331969.263    22331963.320
  23836674.145    -5900968.44543  -4425342.85042  23836676.694    23836674.470
  20778931.749   -24903128.11044 -19359506.23242  20778934.140    20778929.054
 03  4  2  3 52  0.0000000  0  4G11G14G20G25
  21315217.335   -17615985.91544 -13717132.60042  21315219.881    21315214.346
  22346183.570   -16052738.30843 -12231389.07542  22346186.062    22346180.096
  23820185.790    -5987615.34943  -4492859.79042  23820188.369    23820185.984
  20774161.645   -24928194.97744 -19379038.82242  20774164.039    20774158.896
 03  4  2  3 52 30.0000000  0  5G11G14G20G25G 1
  21311379.242   -17636154.76844 -13732848.54542  21311381.802    21311376.383
  22360416.126   -15977945.67143 -12173109.10742  22360418.621    22360412.744
  23803696.830    -6074266.46843  -4560379.99942  23803699.359    23803696.471
  20769490.259   -24952743.48544 -19398167.49242  20769492.639    20769487.354
  24617949.204     -637122.99653   -490363.73752  24617950.752    24617951.794
 03  4  2  3 53  0.0000000  0  5G11G14G20G25G 1
  21307649.815   -17655754.20044 -13748120.81542  21307652.334    21307646.707
  22374670.462   -15903038.88643 -12114740.17842  22374672.912    22374667.147
  23787212.797    -6160888.63143  -4627877.69042  23787215.448    23787212.504
  20764923.672   -24976741.20744 -19416866.97742  20764926.066    20764920.684
  24602446.523     -718584.64443   -553840.00442  24602447.962    24602448.124
 03  4  2  3 53 30.0000000  0  5G11G14G20G25G 1
  21304026.987   -17674792.14744 -13762955.55342  21304029.566    21304023.898
  22388944.383   -15828028.29343 -12056290.36742  22388946.897    22388941.174
  23770732.902    -6247489.56843  -4695358.83742  23770735.370    23770732.787
  20760460.331   -25000195.84844 -19435143.29342  20760462.751    20760457.477
  24586973.872     -799883.74053   -617189.65852  24586976.481    24586976.637
 03  4  2  3 54  0.0000000  0  5G11G14G20G25G 1
  21300507.012   -17693289.49944 -13777369.04942  21300509.607    21300503.940
  22403233.755   -15752936.66543 -11997777.41942  22403236.261    22403230.624
  23754253.363    -6334090.00943  -4762839.59742  23754255.597    23754253.290
  20756096.215   -25023129.01944 -19453013.27342  20756098.608    20756093.487
  24571529.724     -881041.63343   -680429.24542  24571532.371    24571532.402
 03  4  2  3 54 30.0000000  0  5G11G14G20G25G 1
  21297089.224   -17711249.91844 -13791364.16342  21297091.814    21297086.058
  22417537.570   -15677769.69943 -11939205.75042  22417540.029    22417534.406
  23737773.625    -6420693.14743  -4830322.44142  23737775.835    23737773.282
  20751830.778   -25045544.35244 -19470479.73542  20751833.131    20751827.899
  24556111.800     -962062.01553   -743561.71152  24556114.254    24556115.171
 03  4  2  3 55  0.0000000  0  5G11G14G20G25G 1
  21293776.187   -17728660.19744 -13804930.60042  21293778.769    21293772.962
  22431857.673   -15602516.70243 -11880567.02342  22431860.194    22431854.639
  23721295.508    -6507285.83843  -4897797.13242  23721297.792    23721295.057
  20747666.257   -25067429.22044 -19487532.84042  20747668.623    20747663.259
  24540723.520    -1042932.63253   -806577.48952  24540725.688    24540726.254
 03  4  2  3 55 30.0000000  0  5G11G14G20G25G 1
  21290568.250   -17745518.04344 -13818066.56542  21290570.821    21290565.022
  22446194.441   -15527176.26943 -11821860.19342  22446197.042    22446191.529
  23704819.583    -6593864.57343  -4965260.99542  23704822.038    23704819.383
  20743603.078   -25088780.95544 -19504170.51342  20743605.481    20743600.074
  24525362.833    -1123650.45143   -869474.21842  24525365.928    24525365.336
 03  4  2  3 56  0.0000000  0  4G11G14G20G25
  21287467.714   -17761811.52644 -13830762.77042  21287470.256    21287464.462
  22460549.718   -15451739.07343 -11763077.94742  22460552.347    22460546.735
  23688348.940    -6680417.83143  -5032705.02342  23688351.301    23688348.607
  20739643.455   -25109588.22744 -19520383.94442  20739645.858    20739640.496
 03  4  2  3 56 30.0000000  0  4G11G14G20G25
  21284472.604   -17777550.52644 -13843026.90942  21284475.190    21284469.440
  22474921.199   -15376216.59343 -11704229.24942  22474923.783    22474918.285
  23671881.586    -6766954.72343  -5100136.25942  23671883.944    23671881.173
  20735785.667   -25129861.08744 -19536180.94442  20735788.020    20735782.701
 03  4  2  3 57  0.0000000  0  4G11G14G20G25
  21281581.620   -17792742.40444 -13854864.72742  21281584.218    21281578.467
  22489306.967   -15300618.07643 -11645321.30242  22489309.522    22489304.294
  23655415.976    -6853482.12243  -5167560.10342  23655418.405    23655415.503
  20732028.205   -25149606.89544 -19551567.25542  20732030.541    20732025.155
 03  4  2  3 57 30.0000000  0  4G11G14G20G25
  21278793.431   -17807394.27344 -13866281.75542  21278796.052    21278790.315
  22503705.593   -15224952.50343 -11586361.11442  22503708.077    22503703.035
  23638950.813    -6940006.58243  -5234981.65842  23638953.265    23638950.332
  20728369.661   -25168832.89844 -19566548.52042  20728371.986    20728366.552
 03  4  2  3 58  0.0000000  0  4G11G14G20G25
  21276114.955   -17821469.94144 -13877249.79442  21276117.567    21276111.816
  22518123.634   -15149185.70543 -11527322.04142  22518126.056    22518120.890
  23622493.270    -7026491.72543  -5302372.59342  23622495.683    23622492.599
  20724816.728   -25187503.18444 -19581096.75942  20724819.108    20724813.645
 03  4  2  3 58 30.0000000  0  4G11G14G20G25
  21273540.279   -17835000.15544 -13887792.80242  21273542.869    21273537.103
  22532554.643   -15073349.73643 -11468229.07342  22532557.120    22532552.020
  23606037.564    -7112967.27643  -5369756.01342  23606039.987    23606036.785
  20721363.672   -25205648.62744 -19595236.03442  20721366.049    20721360.597
 03  4  2  3 59  0.0000000  0  4G11G14G20G25
  21271073.124   -17847965.72044 -13897895.83342  21271075.702    21271069.780
  22547002.425   -14997427.33743 -11409068.76342  22547004.844    22546999.554
  23589587.194    -7199413.79543  -5437116.81942  23589589.768    23589586.486
  20718014.205   -25223250.48344 -19608951.72842  20718016.570    20718011.013
 03  4  2  3 59 30.0000000  0  4G11G14G20G25
  21268709.088   -17860388.06544 -13907575.56042  21268711.699    21268705.891
  22561462.153   -14921441.52743 -11349859.04442  22561464.596    22561459.079
  23573138.536    -7285851.81743  -5504470.99842  23573141.077    23573137.714
  20714764.038   -25240329.97544 -19622260.39242  20714766.429    20714760.921
